<?xml version='1.0' encoding='UTF-8'?><gpx version="1.1" creator="JPX - https://github.com/jenetics/jpx" xmlns="http://www.topografix.com/GPX/1/1"><trk><trkseg><trkpt lat="43.7742533" lon="11.263025"><ele>57.0</ele><time>2026-04-18T06:52:54.652Z</time></trkpt><trkpt lat="43.77434" lon="11.2634567"><ele>57.0</ele><time>2026-04-18T06:52:55.652Z</time></trkpt><trkpt lat="43.7742583" lon="11.2634183"><ele>57.0</ele><time>2026-04-18T06:53:00.653Z</time></trkpt><trkpt lat="43.7739433" lon="11.2631033"><ele>57.0</ele><time>2026-04-18T06:53:01.652Z</time></trkpt><trkpt lat="43.7737233" lon="11.263195"><ele>57.0</ele><time>2026-04-18T06:53:04.931Z</time></trkpt><trkpt lat="43.7739017" lon="11.2631517"><ele>57.0</ele><time>2026-04-18T06:53:08.931Z</time></trkpt><trkpt lat="43.77393" lon="11.2630683"><ele>57.0</ele><time>2026-04-18T06:53:10.931Z</time></trkpt><trkpt lat="43.7739833" lon="11.262945"><ele>57.0</ele><time>2026-04-18T06:53:13.931Z</time></trkpt><trkpt lat="43.7740233" lon="11.2628583"><ele>57.0</ele><time>2026-04-18T06:53:17.931Z</time></trkpt><trkpt lat="43.7740617" lon="11.26278"><ele>57.0</ele><time>2026-04-18T06:53:20.931Z</time></trkpt><trkpt lat="43.774105" lon="11.2626867"><ele>57.0</ele><time>2026-04-18T06:53:24.931Z</time></trkpt><trkpt lat="43.774145" lon="11.2626"><ele>57.0</ele><time>2026-04-18T06:53:28.931Z</time></trkpt><trkpt lat="43.7741967" lon="11.2624383"><ele>57.0</ele><time>2026-04-18T06:53:36.932Z</time></trkpt><trkpt lat="43.7741217" lon="11.26235"><ele>57.0</ele><time>2026-04-18T06:53:39.932Z</time></trkpt><trkpt lat="43.7740667" lon="11.2622933"><ele>57.0</ele><time>2026-04-18T06:53:41.932Z</time></trkpt><trkpt lat="43.7739933" lon="11.2622133"><ele>57.0</ele><time>2026-04-18T06:53:44.931Z</time></trkpt><trkpt lat="43.7739367" lon="11.262145"><ele>57.0</ele><time>2026-04-18T06:53:46.932Z</time></trkpt><trkpt lat="43.77385" lon="11.26206"><ele>57.0</ele><time>2026-04-18T06:53:48.931Z</time></trkpt><trkpt lat="43.7737983" lon="11.26199"><ele>57.166666666666664</ele><time>2026-04-18T06:53:50.931Z</time></trkpt><trkpt lat="43.77372" lon="11.2619033"><ele>57.33333333333333</ele><time>2026-04-18T06:53:53.932Z</time></trkpt><trkpt lat="43.77365" lon="11.261825"><ele>57.5</ele><time>2026-04-18T06:53:56.931Z</time></trkpt><trkpt lat="43.773575" lon="11.26175"><ele>57.666666666666664</ele><time>2026-04-18T06:53:59.931Z</time></trkpt><trkpt lat="43.7735233" lon="11.2617"><ele>57.83333333333333</ele><time>2026-04-18T06:54:01.931Z</time></trkpt><trkpt lat="43.7734633" lon="11.2616367"><ele>58.0</ele><time>2026-04-18T06:54:03.931Z</time></trkpt><trkpt lat="43.7733933" lon="11.261565"><ele>57.99999999999999</ele><time>2026-04-18T06:54:05.931Z</time></trkpt><trkpt lat="43.77333" lon="11.2615017"><ele>58.0</ele><time>2026-04-18T06:54:07.931Z</time></trkpt><trkpt lat="43.773255" lon="11.2614467"><ele>58.0</ele><time>2026-04-18T06:54:10.931Z</time></trkpt><trkpt lat="43.773175" lon="11.2613967"><ele>58.0</ele><time>2026-04-18T06:54:13.932Z</time></trkpt><trkpt lat="43.7731083" lon="11.2613483"><ele>57.99999999999999</ele><time>2026-04-18T06:54:15.932Z</time></trkpt><trkpt lat="43.7730483" lon="11.2612717"><ele>58.0</ele><time>2026-04-18T06:54:17.931Z</time></trkpt><trkpt lat="43.77298" lon="11.2611817"><ele>57.49999999999999</ele><time>2026-04-18T06:54:19.931Z</time></trkpt><trkpt lat="43.7729067" lon="11.26109"><ele>57.0</ele><time>2026-04-18T06:54:21.931Z</time></trkpt><trkpt lat="43.7728283" lon="11.2610833"><ele>56.5</ele><time>2026-04-18T06:54:24.931Z</time></trkpt><trkpt lat="43.7728017" lon="11.2610033"><ele>56.0</ele><time>2026-04-18T06:54:27.931Z</time></trkpt><trkpt lat="43.772805" lon="11.2609067"><ele>55.49999999999999</ele><time>2026-04-18T06:54:30.931Z</time></trkpt><trkpt lat="43.77285" lon="11.2608183"><ele>55.0</ele><time>2026-04-18T06:54:32.932Z</time></trkpt><trkpt lat="43.772895" lon="11.2607483"><ele>54.99999999999999</ele><time>2026-04-18T06:54:34.931Z</time></trkpt><trkpt lat="43.7729383" lon="11.2606783"><ele>55.0</ele><time>2026-04-18T06:54:36.931Z</time></trkpt><trkpt lat="43.7729833" lon="11.2605883"><ele>55.0</ele><time>2026-04-18T06:54:38.932Z</time></trkpt><trkpt lat="43.7730417" lon="11.26044"><ele>55.0</ele><time>2026-04-18T06:54:40.931Z</time></trkpt><trkpt lat="43.77309" lon="11.26036"><ele>54.99999999999999</ele><time>2026-04-18T06:54:42.932Z</time></trkpt><trkpt lat="43.7731217" lon="11.2602717"><ele>55.0</ele><time>2026-04-18T06:54:44.931Z</time></trkpt><trkpt lat="43.77316" lon="11.2601983"><ele>54.99999999999999</ele><time>2026-04-18T06:54:46.931Z</time></trkpt><trkpt lat="43.7731867" lon="11.26008"><ele>55.0</ele><time>2026-04-18T06:54:49.932Z</time></trkpt><trkpt lat="43.7732033" lon="11.2599717"><ele>55.0</ele><time>2026-04-18T06:54:51.932Z</time></trkpt><trkpt lat="43.7732" lon="11.25985"><ele>55.0</ele><time>2026-04-18T06:54:53.931Z</time></trkpt><trkpt lat="43.7732167" lon="11.2597417"><ele>54.99999999999999</ele><time>2026-04-18T06:54:55.932Z</time></trkpt><trkpt lat="43.77324" lon="11.25961"><ele>55.0</ele><time>2026-04-18T06:54:57.931Z</time></trkpt><trkpt lat="43.7732883" lon="11.2595317"><ele>55.49999999999999</ele><time>2026-04-18T06:54:58.932Z</time></trkpt><trkpt lat="43.7733083" lon="11.2594033"><ele>56.0</ele><time>2026-04-18T06:55:00.931Z</time></trkpt><trkpt lat="43.773385" lon="11.25933"><ele>56.5</ele><time>2026-04-18T06:55:02.931Z</time></trkpt><trkpt lat="43.773445" lon="11.2592467"><ele>57.0</ele><time>2026-04-18T06:55:04.931Z</time></trkpt><trkpt lat="43.7735017" lon="11.2591667"><ele>57.49999999999999</ele><time>2026-04-18T06:55:06.931Z</time></trkpt><trkpt lat="43.7734917" lon="11.25904"><ele>58.0</ele><time>2026-04-18T06:55:08.932Z</time></trkpt><trkpt lat="43.7735333" lon="11.2589517"><ele>58.33333333333333</ele><time>2026-04-18T06:55:10.932Z</time></trkpt><trkpt lat="43.7736167" lon="11.2588833"><ele>58.666666666666664</ele><time>2026-04-18T06:55:12.931Z</time></trkpt><trkpt lat="43.773665" lon="11.2587833"><ele>59.0</ele><time>2026-04-18T06:55:14.931Z</time></trkpt><trkpt lat="43.7737017" lon="11.2586867"><ele>59.33333333333333</ele><time>2026-04-18T06:55:16.931Z</time></trkpt><trkpt lat="43.7737483" lon="11.2585883"><ele>59.666666666666664</ele><time>2026-04-18T06:55:18.931Z</time></trkpt><trkpt lat="43.77379" lon="11.2584767"><ele>60.0</ele><time>2026-04-18T06:55:20.931Z</time></trkpt><trkpt lat="43.7738633" lon="11.2583867"><ele>60.0</ele><time>2026-04-18T06:55:22.931Z</time></trkpt><trkpt lat="43.773895" lon="11.25828"><ele>60.0</ele><time>2026-04-18T06:55:24.932Z</time></trkpt><trkpt lat="43.77387" lon="11.25818"><ele>60.0</ele><time>2026-04-18T06:55:26.931Z</time></trkpt><trkpt lat="43.773825" lon="11.258045"><ele>60.0</ele><time>2026-04-18T06:55:29.932Z</time></trkpt><trkpt lat="43.7737783" lon="11.25795"><ele>60.0</ele><time>2026-04-18T06:55:31.931Z</time></trkpt><trkpt lat="43.773735" lon="11.25787"><ele>60.0</ele><time>2026-04-18T06:55:33.931Z</time></trkpt><trkpt lat="43.7736833" lon="11.2578"><ele>60.0</ele><time>2026-04-18T06:55:34.931Z</time></trkpt><trkpt lat="43.7736867" lon="11.257695"><ele>60.0</ele><time>2026-04-18T06:55:36.931Z</time></trkpt><trkpt lat="43.7736733" lon="11.25759"><ele>60.0</ele><time>2026-04-18T06:55:38.932Z</time></trkpt><trkpt lat="43.7737183" lon="11.25749"><ele>60.0</ele><time>2026-04-18T06:55:40.931Z</time></trkpt><trkpt lat="43.77379" lon="11.2574217"><ele>60.0</ele><time>2026-04-18T06:55:42.931Z</time></trkpt><trkpt lat="43.7738617" lon="11.257355"><ele>60.0</ele><time>2026-04-18T06:55:44.931Z</time></trkpt><trkpt lat="43.7737783" lon="11.25721"><ele>60.0</ele><time>2026-04-18T06:55:47.932Z</time></trkpt><trkpt lat="43.7737717" lon="11.2570267"><ele>60.0</ele><time>2026-04-18T06:55:56.931Z</time></trkpt><trkpt lat="43.7737533" lon="11.2569417"><ele>60.0</ele><time>2026-04-18T06:55:58.931Z</time></trkpt><trkpt lat="43.7737317" lon="11.2568333"><ele>60.0</ele><time>2026-04-18T06:56:00.931Z</time></trkpt><trkpt lat="43.77369" lon="11.2567017"><ele>60.0</ele><time>2026-04-18T06:56:02.931Z</time></trkpt><trkpt lat="43.7736867" lon="11.2565967"><ele>60.6</ele><time>2026-04-18T06:56:04.932Z</time></trkpt><trkpt lat="43.773655" lon="11.2564283"><ele>61.2</ele><time>2026-04-18T06:56:06.931Z</time></trkpt><trkpt lat="43.7736167" lon="11.2563333"><ele>61.8</ele><time>2026-04-18T06:56:07.931Z</time></trkpt><trkpt lat="43.773625" lon="11.256245"><ele>62.4</ele><time>2026-04-18T06:56:08.931Z</time></trkpt><trkpt lat="43.7736083" lon="11.2561133"><ele>63.0</ele><time>2026-04-18T06:56:10.931Z</time></trkpt><trkpt lat="43.77352" lon="11.256035"><ele>61.333333333333336</ele><time>2026-04-18T06:56:11.931Z</time></trkpt><trkpt lat="43.7734883" lon="11.2559283"><ele>59.66666666666667</ele><time>2026-04-18T06:56:13.932Z</time></trkpt><trkpt lat="43.77347" lon="11.25582"><ele>58.0</ele><time>2026-04-18T06:56:15.932Z</time></trkpt><trkpt lat="43.7734783" lon="11.25571"><ele>56.333333333333336</ele><time>2026-04-18T06:56:17.931Z</time></trkpt><trkpt lat="43.7734933" lon="11.2555667"><ele>54.66666666666667</ele><time>2026-04-18T06:56:19.931Z</time></trkpt><trkpt lat="43.7735167" lon="11.25546"><ele>53.0</ele><time>2026-04-18T06:56:21.931Z</time></trkpt><trkpt lat="43.7735133" lon="11.2553433"><ele>52.8</ele><time>2026-04-18T06:56:23.931Z</time></trkpt><trkpt lat="43.7734817" lon="11.2552667"><ele>52.599999999999994</ele><time>2026-04-18T06:56:24.931Z</time></trkpt><trkpt lat="43.7734017" lon="11.25516"><ele>52.400000000000006</ele><time>2026-04-18T06:56:26.931Z</time></trkpt><trkpt lat="43.7733367" lon="11.2550417"><ele>52.2</ele><time>2026-04-18T06:56:28.931Z</time></trkpt><trkpt lat="43.773255" lon="11.2549683"><ele>52.0</ele><time>2026-04-18T06:56:30.931Z</time></trkpt><trkpt lat="43.7731717" lon="11.254915"><ele>52.0</ele><time>2026-04-18T06:56:32.931Z</time></trkpt><trkpt lat="43.7731033" lon="11.2548667"><ele>52.0</ele><time>2026-04-18T06:56:34.931Z</time></trkpt><trkpt lat="43.7730483" lon="11.25477"><ele>52.0</ele><time>2026-04-18T06:56:36.931Z</time></trkpt><trkpt lat="43.7729967" lon="11.2546817"><ele>52.0</ele><time>2026-04-18T06:56:38.932Z</time></trkpt><trkpt lat="43.7729067" lon="11.25454"><ele>52.0</ele><time>2026-04-18T06:56:40.931Z</time></trkpt><trkpt lat="43.7728483" lon="11.25448"><ele>52.83333333333333</ele><time>2026-04-18T06:56:41.932Z</time></trkpt><trkpt lat="43.7727767" lon="11.2544767"><ele>53.666666666666664</ele><time>2026-04-18T06:56:43.931Z</time></trkpt><trkpt lat="43.7726833" lon="11.254475"><ele>54.5</ele><time>2026-04-18T06:56:45.932Z</time></trkpt><trkpt lat="43.7726067" lon="11.2544733"><ele>55.33333333333333</ele><time>2026-04-18T06:56:47.931Z</time></trkpt><trkpt lat="43.7725367" lon="11.2544617"><ele>56.166666666666664</ele><time>2026-04-18T06:56:49.932Z</time></trkpt><trkpt lat="43.7724633" lon="11.2544367"><ele>57.0</ele><time>2026-04-18T06:56:51.931Z</time></trkpt><trkpt lat="43.7723933" lon="11.2544267"><ele>58.0</ele><time>2026-04-18T06:56:53.931Z</time></trkpt><trkpt lat="43.7723233" lon="11.25443"><ele>59.0</ele><time>2026-04-18T06:56:55.931Z</time></trkpt><trkpt lat="43.7722383" lon="11.2544417"><ele>60.0</ele><time>2026-04-18T06:56:57.931Z</time></trkpt><trkpt lat="43.772155" lon="11.2544533"><ele>61.0</ele><time>2026-04-18T06:56:59.931Z</time></trkpt><trkpt lat="43.77207" lon="11.2544867"><ele>62.0</ele><time>2026-04-18T06:57:01.931Z</time></trkpt><trkpt lat="43.772" lon="11.2544767"><ele>63.0</ele><time>2026-04-18T06:57:03.931Z</time></trkpt><trkpt lat="43.7719233" lon="11.2544333"><ele>63.166666666666664</ele><time>2026-04-18T06:57:05.931Z</time></trkpt><trkpt lat="43.771855" lon="11.254385"><ele>63.33333333333333</ele><time>2026-04-18T06:57:07.931Z</time></trkpt><trkpt lat="43.771785" lon="11.2542917"><ele>63.5</ele><time>2026-04-18T06:57:09.931Z</time></trkpt><trkpt lat="43.7717333" lon="11.2541817"><ele>63.666666666666664</ele><time>2026-04-18T06:57:11.932Z</time></trkpt><trkpt lat="43.7716883" lon="11.2540767"><ele>63.83333333333333</ele><time>2026-04-18T06:57:13.932Z</time></trkpt><trkpt lat="43.7716567" lon="11.2539783"><ele>64.0</ele><time>2026-04-18T06:57:15.931Z</time></trkpt><trkpt lat="43.7716017" lon="11.25385"><ele>64.5</ele><time>2026-04-18T06:57:17.932Z</time></trkpt><trkpt lat="43.7715483" lon="11.253755"><ele>65.0</ele><time>2026-04-18T06:57:19.931Z</time></trkpt><trkpt lat="43.77152" lon="11.2536717"><ele>65.5</ele><time>2026-04-18T06:57:23.932Z</time></trkpt><trkpt lat="43.7714967" lon="11.2535833"><ele>66.0</ele><time>2026-04-18T06:57:27.931Z</time></trkpt><trkpt lat="43.7714733" lon="11.2534733"><ele>66.5</ele><time>2026-04-18T06:57:30.932Z</time></trkpt><trkpt lat="43.7715217" lon="11.2533533"><ele>67.0</ele><time>2026-04-18T06:57:32.932Z</time></trkpt><trkpt lat="43.7715283" lon="11.2532583"><ele>67.0</ele><time>2026-04-18T06:57:34.931Z</time></trkpt><trkpt lat="43.7715367" lon="11.2531683"><ele>67.0</ele><time>2026-04-18T06:57:36.931Z</time></trkpt><trkpt lat="43.7715317" lon="11.2530717"><ele>67.0</ele><time>2026-04-18T06:57:38.932Z</time></trkpt><trkpt lat="43.7715367" lon="11.2529683"><ele>67.0</ele><time>2026-04-18T06:57:41.931Z</time></trkpt><trkpt lat="43.7715067" lon="11.2528883"><ele>67.0</ele><time>2026-04-18T06:57:43.931Z</time></trkpt><trkpt lat="43.7714117" lon="11.2528933"><ele>67.0</ele><time>2026-04-18T06:57:45.931Z</time></trkpt><trkpt lat="43.7713383" lon="11.252915"><ele>67.0</ele><time>2026-04-18T06:57:47.931Z</time></trkpt><trkpt lat="43.7712467" lon="11.2529"><ele>66.57142857142857</ele><time>2026-04-18T06:57:49.932Z</time></trkpt><trkpt lat="43.7711917" lon="11.2528283"><ele>66.14285714285714</ele><time>2026-04-18T06:57:51.931Z</time></trkpt><trkpt lat="43.771155" lon="11.2527433"><ele>65.71428571428571</ele><time>2026-04-18T06:57:53.931Z</time></trkpt><trkpt lat="43.771115" lon="11.2526633"><ele>65.28571428571428</ele><time>2026-04-18T06:57:55.932Z</time></trkpt><trkpt lat="43.7710917" lon="11.2525767"><ele>64.85714285714285</ele><time>2026-04-18T06:57:57.932Z</time></trkpt><trkpt lat="43.7710567" lon="11.2524517"><ele>64.42857142857143</ele><time>2026-04-18T06:58:00.931Z</time></trkpt><trkpt lat="43.7710567" lon="11.2523617"><ele>64.0</ele><time>2026-04-18T06:58:02.931Z</time></trkpt><trkpt lat="43.7710017" lon="11.2523017"><ele>64.0</ele><time>2026-04-18T06:58:04.931Z</time></trkpt><trkpt lat="43.770935" lon="11.2522383"><ele>64.0</ele><time>2026-04-18T06:58:07.932Z</time></trkpt><trkpt lat="43.770825" lon="11.2522483"><ele>64.0</ele><time>2026-04-18T06:58:10.932Z</time></trkpt><trkpt lat="43.77076" lon="11.252275"><ele>64.0</ele><time>2026-04-18T06:58:11.931Z</time></trkpt><trkpt lat="43.7706333" lon="11.252355"><ele>64.0</ele><time>2026-04-18T06:58:13.932Z</time></trkpt><trkpt lat="43.770535" lon="11.252365"><ele>63.99999999999999</ele><time>2026-04-18T06:58:15.931Z</time></trkpt><trkpt lat="43.7704633" lon="11.2523483"><ele>64.0</ele><time>2026-04-18T06:58:17.931Z</time></trkpt><trkpt lat="43.77036" lon="11.252425"><ele>64.0</ele><time>2026-04-18T06:58:19.931Z</time></trkpt><trkpt lat="43.7703" lon="11.2525067"><ele>64.0</ele><time>2026-04-18T06:58:20.932Z</time></trkpt><trkpt lat="43.7702433" lon="11.252455"><ele>63.99999999999999</ele><time>2026-04-18T06:58:22.932Z</time></trkpt><trkpt lat="43.77024" lon="11.2523583"><ele>64.0</ele><time>2026-04-18T06:58:24.931Z</time></trkpt><trkpt lat="43.7702833" lon="11.252165"><ele>64.16666666666666</ele><time>2026-04-18T06:58:26.931Z</time></trkpt><trkpt lat="43.77033" lon="11.2520567"><ele>64.33333333333333</ele><time>2026-04-18T06:58:27.931Z</time></trkpt><trkpt lat="43.7703717" lon="11.2519433"><ele>64.5</ele><time>2026-04-18T06:58:28.931Z</time></trkpt><trkpt lat="43.7704" lon="11.2518033"><ele>64.66666666666667</ele><time>2026-04-18T06:58:30.931Z</time></trkpt><trkpt lat="43.7704467" lon="11.251715"><ele>64.83333333333334</ele><time>2026-04-18T06:58:32.931Z</time></trkpt><trkpt lat="43.7704233" lon="11.25163"><ele>65.0</ele><time>2026-04-18T06:58:34.931Z</time></trkpt><trkpt lat="43.7703567" lon="11.2515317"><ele>64.2</ele><time>2026-04-18T06:58:36.931Z</time></trkpt><trkpt lat="43.7703" lon="11.2514267"><ele>63.4</ele><time>2026-04-18T06:58:38.931Z</time></trkpt><trkpt lat="43.7702283" lon="11.25132"><ele>62.599999999999994</ele><time>2026-04-18T06:58:40.931Z</time></trkpt><trkpt lat="43.7701383" lon="11.2512017"><ele>61.8</ele><time>2026-04-18T06:58:42.931Z</time></trkpt><trkpt lat="43.7700683" lon="11.2511133"><ele>61.0</ele><time>2026-04-18T06:58:44.932Z</time></trkpt><trkpt lat="43.769985" lon="11.2510617"><ele>60.199999999999996</ele><time>2026-04-18T06:58:46.932Z</time></trkpt><trkpt lat="43.7698867" lon="11.2509783"><ele>59.39999999999999</ele><time>2026-04-18T06:58:48.932Z</time></trkpt><trkpt lat="43.7697967" lon="11.2509017"><ele>58.6</ele><time>2026-04-18T06:58:50.931Z</time></trkpt><trkpt lat="43.7697233" lon="11.250845"><ele>57.8</ele><time>2026-04-18T06:58:52.931Z</time></trkpt><trkpt lat="43.7696467" lon="11.250815"><ele>57.0</ele><time>2026-04-18T06:58:54.931Z</time></trkpt><trkpt lat="43.7695767" lon="11.2507933"><ele>57.0</ele><time>2026-04-18T06:58:56.932Z</time></trkpt><trkpt lat="43.769525" lon="11.2507433"><ele>56.99999999999999</ele><time>2026-04-18T06:58:58.932Z</time></trkpt><trkpt lat="43.76948" lon="11.2506367"><ele>57.0</ele><time>2026-04-18T06:59:01.93Z</time></trkpt><trkpt lat="43.7694283" lon="11.25056"><ele>57.0</ele><time>2026-04-18T06:59:05.93Z</time></trkpt><trkpt lat="43.76936" lon="11.2505183"><ele>56.99999999999999</ele><time>2026-04-18T06:59:09.931Z</time></trkpt><trkpt lat="43.7692967" lon="11.2504767"><ele>57.0</ele><time>2026-04-18T06:59:13.931Z</time></trkpt><trkpt lat="43.7692283" lon="11.250435"><ele>57.0</ele><time>2026-04-18T06:59:18.93Z</time></trkpt><trkpt lat="43.769246" lon="11.250458"><ele>57.0</ele><time>2026-04-18T07:04:34.931Z</time></trkpt><trkpt lat="43.7693137" lon="11.2505039"><ele>57.0</ele><time>2026-04-18T07:04:36.93Z</time></trkpt><trkpt lat="43.7693723" lon="11.2505423"><ele>57.0</ele><time>2026-04-18T07:04:38.931Z</time></trkpt><trkpt lat="43.7694391" lon="11.2505992"><ele>57.0</ele><time>2026-04-18T07:04:40.93Z</time></trkpt><trkpt lat="43.7694967" lon="11.2506483"><ele>57.0</ele><time>2026-04-18T07:04:42.931Z</time></trkpt><trkpt lat="43.7694533" lon="11.2507917"><ele>57.0</ele><time>2026-04-18T07:04:45.93Z</time></trkpt><trkpt lat="43.7694033" lon="11.2509283"><ele>55.6</ele><time>2026-04-18T07:04:47.931Z</time></trkpt><trkpt lat="43.7693233" lon="11.25106"><ele>54.2</ele><time>2026-04-18T07:04:49.93Z</time></trkpt><trkpt lat="43.769285" lon="11.25113"><ele>52.8</ele><time>2026-04-18T07:04:50.93Z</time></trkpt><trkpt lat="43.7692233" lon="11.251265"><ele>51.4</ele><time>2026-04-18T07:04:52.93Z</time></trkpt><trkpt lat="43.7691767" lon="11.2513867"><ele>50.0</ele><time>2026-04-18T07:04:54.93Z</time></trkpt><trkpt lat="43.76916" lon="11.25151"><ele>50.0</ele><time>2026-04-18T07:04:56.93Z</time></trkpt><trkpt lat="43.7691333" lon="11.2516217"><ele>50.0</ele><time>2026-04-18T07:04:58.93Z</time></trkpt><trkpt lat="43.76909" lon="11.2517333"><ele>50.0</ele><time>2026-04-18T07:05:00.93Z</time></trkpt><trkpt lat="43.7690483" lon="11.25185"><ele>50.0</ele><time>2026-04-18T07:05:02.931Z</time></trkpt><trkpt lat="43.7690017" lon="11.25197"><ele>50.0</ele><time>2026-04-18T07:05:04.93Z</time></trkpt><trkpt lat="43.76895" lon="11.252095"><ele>50.0</ele><time>2026-04-18T07:05:06.93Z</time></trkpt><trkpt lat="43.768905" lon="11.25222"><ele>50.0</ele><time>2026-04-18T07:05:08.93Z</time></trkpt><trkpt lat="43.76886" lon="11.2523517"><ele>50.0</ele><time>2026-04-18T07:05:10.93Z</time></trkpt><trkpt lat="43.7687983" lon="11.2524767"><ele>50.0</ele><time>2026-04-18T07:05:12.931Z</time></trkpt><trkpt lat="43.7687483" lon="11.2526067"><ele>50.0</ele><time>2026-04-18T07:05:14.93Z</time></trkpt><trkpt lat="43.7687133" lon="11.2527317"><ele>50.66666666666667</ele><time>2026-04-18T07:05:16.93Z</time></trkpt><trkpt lat="43.7686783" lon="11.2528267"><ele>51.333333333333336</ele><time>2026-04-18T07:05:18.93Z</time></trkpt><trkpt lat="43.7686483" lon="11.2529133"><ele>52.0</ele><time>2026-04-18T07:05:20.93Z</time></trkpt><trkpt lat="43.768615" lon="11.2530183"><ele>52.66666666666667</ele><time>2026-04-18T07:05:22.931Z</time></trkpt><trkpt lat="43.7685767" lon="11.253125"><ele>53.333333333333336</ele><time>2026-04-18T07:05:24.931Z</time></trkpt><trkpt lat="43.7685383" lon="11.2532333"><ele>54.0</ele><time>2026-04-18T07:05:26.931Z</time></trkpt><trkpt lat="43.76856" lon="11.2533217"><ele>53.166666666666664</ele><time>2026-04-18T07:05:28.93Z</time></trkpt><trkpt lat="43.7685183" lon="11.253405"><ele>52.33333333333333</ele><time>2026-04-18T07:05:30.93Z</time></trkpt><trkpt lat="43.7684517" lon="11.2534517"><ele>51.5</ele><time>2026-04-18T07:05:33.93Z</time></trkpt><trkpt lat="43.7683717" lon="11.2533967"><ele>50.666666666666664</ele><time>2026-04-18T07:05:36.93Z</time></trkpt><trkpt lat="43.7682967" lon="11.253355"><ele>49.83333333333333</ele><time>2026-04-18T07:05:39.93Z</time></trkpt><trkpt lat="43.768235" lon="11.25332"><ele>49.0</ele><time>2026-04-18T07:05:41.93Z</time></trkpt><trkpt lat="43.7681733" lon="11.2532867"><ele>49.0</ele><time>2026-04-18T07:05:43.93Z</time></trkpt><trkpt lat="43.7681083" lon="11.2532533"><ele>49.0</ele><time>2026-04-18T07:05:45.93Z</time></trkpt><trkpt lat="43.7680483" lon="11.2532167"><ele>49.0</ele><time>2026-04-18T07:05:47.93Z</time></trkpt><trkpt lat="43.7679783" lon="11.2531417"><ele>49.0</ele><time>2026-04-18T07:05:50.93Z</time></trkpt><trkpt lat="43.76792" lon="11.2531083"><ele>49.0</ele><time>2026-04-18T07:05:52.93Z</time></trkpt><trkpt lat="43.767855" lon="11.2530717"><ele>49.0</ele><time>2026-04-18T07:05:54.93Z</time></trkpt><trkpt lat="43.7677883" lon="11.2530233"><ele>49.0</ele><time>2026-04-18T07:05:56.931Z</time></trkpt><trkpt lat="43.7677167" lon="11.2529683"><ele>51.166666666666664</ele><time>2026-04-18T07:05:58.93Z</time></trkpt><trkpt lat="43.7676467" lon="11.25292"><ele>53.33333333333333</ele><time>2026-04-18T07:06:00.93Z</time></trkpt><trkpt lat="43.7675667" lon="11.2529"><ele>55.5</ele><time>2026-04-18T07:06:02.93Z</time></trkpt><trkpt lat="43.7674833" lon="11.252875"><ele>57.66666666666667</ele><time>2026-04-18T07:06:05.931Z</time></trkpt><trkpt lat="43.7674283" lon="11.252815"><ele>59.833333333333336</ele><time>2026-04-18T07:06:08.93Z</time></trkpt><trkpt lat="43.7673733" lon="11.2528767"><ele>62.0</ele><time>2026-04-18T07:06:12.93Z</time></trkpt><trkpt lat="43.7673467" lon="11.253005"><ele>62.00000000000001</ele><time>2026-04-18T07:06:15.931Z</time></trkpt><trkpt lat="43.7673267" lon="11.2531083"><ele>62.0</ele><time>2026-04-18T07:06:17.93Z</time></trkpt><trkpt lat="43.7673133" lon="11.2532317"><ele>62.0</ele><time>2026-04-18T07:06:19.931Z</time></trkpt><trkpt lat="43.7672983" lon="11.2533317"><ele>62.0</ele><time>2026-04-18T07:06:21.93Z</time></trkpt><trkpt lat="43.7672883" lon="11.2534283"><ele>62.00000000000001</ele><time>2026-04-18T07:06:23.93Z</time></trkpt><trkpt lat="43.7672767" lon="11.2535633"><ele>62.0</ele><time>2026-04-18T07:06:26.93Z</time></trkpt><trkpt lat="43.7672333" lon="11.2536533"><ele>61.333333333333336</ele><time>2026-04-18T07:06:28.93Z</time></trkpt><trkpt lat="43.7672" lon="11.2537433"><ele>60.66666666666667</ele><time>2026-04-18T07:06:30.93Z</time></trkpt><trkpt lat="43.767185" lon="11.25383"><ele>60.0</ele><time>2026-04-18T07:06:32.93Z</time></trkpt><trkpt lat="43.7671683" lon="11.253935"><ele>59.33333333333333</ele><time>2026-04-18T07:06:34.93Z</time></trkpt><trkpt lat="43.767115" lon="11.2540433"><ele>58.666666666666664</ele><time>2026-04-18T07:06:36.93Z</time></trkpt><trkpt lat="43.7670817" lon="11.2541533"><ele>58.0</ele><time>2026-04-18T07:06:38.93Z</time></trkpt><trkpt lat="43.767055" lon="11.2542583"><ele>57.8</ele><time>2026-04-18T07:06:40.93Z</time></trkpt><trkpt lat="43.767025" lon="11.2543717"><ele>57.599999999999994</ele><time>2026-04-18T07:06:42.93Z</time></trkpt><trkpt lat="43.7669817" lon="11.2544833"><ele>57.400000000000006</ele><time>2026-04-18T07:06:44.931Z</time></trkpt><trkpt lat="43.7669267" lon="11.2545983"><ele>57.2</ele><time>2026-04-18T07:06:46.931Z</time></trkpt><trkpt lat="43.76688" lon="11.2547167"><ele>57.0</ele><time>2026-04-18T07:06:48.93Z</time></trkpt><trkpt lat="43.76683" lon="11.2548283"><ele>58.0</ele><time>2026-04-18T07:06:50.93Z</time></trkpt><trkpt lat="43.7667867" lon="11.2549367"><ele>59.0</ele><time>2026-04-18T07:06:52.93Z</time></trkpt><trkpt lat="43.7667467" lon="11.2550467"><ele>60.0</ele><time>2026-04-18T07:06:54.93Z</time></trkpt><trkpt lat="43.7667083" lon="11.2551633"><ele>61.0</ele><time>2026-04-18T07:06:56.93Z</time></trkpt><trkpt lat="43.7666617" lon="11.2552717"><ele>62.0</ele><time>2026-04-18T07:06:58.931Z</time></trkpt><trkpt lat="43.7666217" lon="11.2553817"><ele>62.00000000000001</ele><time>2026-04-18T07:07:00.93Z</time></trkpt><trkpt lat="43.766575" lon="11.2554883"><ele>62.0</ele><time>2026-04-18T07:07:02.93Z</time></trkpt><trkpt lat="43.7665367" lon="11.2555983"><ele>62.0</ele><time>2026-04-18T07:07:04.93Z</time></trkpt><trkpt lat="43.7664967" lon="11.255705"><ele>62.0</ele><time>2026-04-18T07:07:06.931Z</time></trkpt><trkpt lat="43.7664667" lon="11.255825"><ele>62.00000000000001</ele><time>2026-04-18T07:07:08.93Z</time></trkpt><trkpt lat="43.7664233" lon="11.2559317"><ele>62.0</ele><time>2026-04-18T07:07:10.93Z</time></trkpt><trkpt lat="43.7663883" lon="11.2560533"><ele>61.400000000000006</ele><time>2026-04-18T07:07:12.93Z</time></trkpt><trkpt lat="43.7663433" lon="11.25617"><ele>60.800000000000004</ele><time>2026-04-18T07:07:14.93Z</time></trkpt><trkpt lat="43.7662967" lon="11.2562783"><ele>60.2</ele><time>2026-04-18T07:07:16.93Z</time></trkpt><trkpt lat="43.7662483" lon="11.2563867"><ele>59.6</ele><time>2026-04-18T07:07:18.93Z</time></trkpt><trkpt lat="43.7661983" lon="11.25649"><ele>59.0</ele><time>2026-04-18T07:07:20.931Z</time></trkpt><trkpt lat="43.7661533" lon="11.2565917"><ele>59.16666666666667</ele><time>2026-04-18T07:07:22.931Z</time></trkpt><trkpt lat="43.7661067" lon="11.2566933"><ele>59.333333333333336</ele><time>2026-04-18T07:07:24.931Z</time></trkpt><trkpt lat="43.7660667" lon="11.2568017"><ele>59.5</ele><time>2026-04-18T07:07:26.93Z</time></trkpt><trkpt lat="43.7660267" lon="11.25691"><ele>59.66666666666667</ele><time>2026-04-18T07:07:28.931Z</time></trkpt><trkpt lat="43.765985" lon="11.2570167"><ele>59.833333333333336</ele><time>2026-04-18T07:07:30.93Z</time></trkpt><trkpt lat="43.7659433" lon="11.2571217"><ele>60.0</ele><time>2026-04-18T07:07:32.931Z</time></trkpt><trkpt lat="43.7659033" lon="11.25723"><ele>58.333333333333336</ele><time>2026-04-18T07:07:34.93Z</time></trkpt><trkpt lat="43.7658617" lon="11.25734"><ele>56.66666666666667</ele><time>2026-04-18T07:07:36.93Z</time></trkpt><trkpt lat="43.76582" lon="11.257455"><ele>55.0</ele><time>2026-04-18T07:07:38.931Z</time></trkpt><trkpt lat="43.765785" lon="11.2575667"><ele>53.333333333333336</ele><time>2026-04-18T07:07:40.931Z</time></trkpt><trkpt lat="43.7657417" lon="11.2576717"><ele>51.66666666666667</ele><time>2026-04-18T07:07:42.93Z</time></trkpt><trkpt lat="43.7656983" lon="11.25778"><ele>50.0</ele><time>2026-04-18T07:07:44.93Z</time></trkpt><trkpt lat="43.76566" lon="11.2578833"><ele>50.00000000000001</ele><time>2026-04-18T07:07:46.93Z</time></trkpt><trkpt lat="43.7656167" lon="11.257985"><ele>50.0</ele><time>2026-04-18T07:07:48.931Z</time></trkpt><trkpt lat="43.7655767" lon="11.2580733"><ele>50.0</ele><time>2026-04-18T07:07:50.93Z</time></trkpt><trkpt lat="43.7655367" lon="11.258165"><ele>50.0</ele><time>2026-04-18T07:07:52.93Z</time></trkpt><trkpt lat="43.7654967" lon="11.25825"><ele>50.00000000000001</ele><time>2026-04-18T07:07:54.93Z</time></trkpt><trkpt lat="43.7654717" lon="11.2583533"><ele>50.0</ele><time>2026-04-18T07:07:56.93Z</time></trkpt><trkpt lat="43.7654467" lon="11.2584583"><ele>49.00000000000001</ele><time>2026-04-18T07:07:58.93Z</time></trkpt><trkpt lat="43.7654367" lon="11.2585817"><ele>48.0</ele><time>2026-04-18T07:08:00.93Z</time></trkpt><trkpt lat="43.7654267" lon="11.25871"><ele>47.0</ele><time>2026-04-18T07:08:02.93Z</time></trkpt><trkpt lat="43.7654183" lon="11.258815"><ele>46.0</ele><time>2026-04-18T07:08:04.93Z</time></trkpt><trkpt lat="43.7654233" lon="11.25894"><ele>45.0</ele><time>2026-04-18T07:08:06.93Z</time></trkpt><trkpt lat="43.7654383" lon="11.2590517"><ele>44.0</ele><time>2026-04-18T07:08:08.93Z</time></trkpt><trkpt lat="43.76545" lon="11.25917"><ele>43.83333333333333</ele><time>2026-04-18T07:08:10.931Z</time></trkpt><trkpt lat="43.7654433" lon="11.2592783"><ele>43.666666666666664</ele><time>2026-04-18T07:08:12.93Z</time></trkpt><trkpt lat="43.7654367" lon="11.2593817"><ele>43.5</ele><time>2026-04-18T07:08:14.931Z</time></trkpt><trkpt lat="43.7654183" lon="11.2594867"><ele>43.333333333333336</ele><time>2026-04-18T07:08:16.93Z</time></trkpt><trkpt lat="43.7653983" lon="11.2595967"><ele>43.16666666666667</ele><time>2026-04-18T07:08:18.93Z</time></trkpt><trkpt lat="43.765385" lon="11.2597033"><ele>43.0</ele><time>2026-04-18T07:08:20.93Z</time></trkpt><trkpt lat="43.7653767" lon="11.25983"><ele>43.4</ele><time>2026-04-18T07:08:22.93Z</time></trkpt><trkpt lat="43.7653617" lon="11.2599483"><ele>43.8</ele><time>2026-04-18T07:08:24.93Z</time></trkpt><trkpt lat="43.7653533" lon="11.2600717"><ele>44.2</ele><time>2026-04-18T07:08:26.93Z</time></trkpt><trkpt lat="43.7653433" lon="11.2602"><ele>44.6</ele><time>2026-04-18T07:08:28.93Z</time></trkpt><trkpt lat="43.7653367" lon="11.2603233"><ele>45.0</ele><time>2026-04-18T07:08:30.93Z</time></trkpt><trkpt lat="43.7653183" lon="11.2604483"><ele>45.0</ele><time>2026-04-18T07:08:32.93Z</time></trkpt><trkpt lat="43.765305" lon="11.26057"><ele>45.0</ele><time>2026-04-18T07:08:34.93Z</time></trkpt><trkpt lat="43.76529" lon="11.260695"><ele>45.0</ele><time>2026-04-18T07:08:36.931Z</time></trkpt><trkpt lat="43.7652817" lon="11.26082"><ele>45.0</ele><time>2026-04-18T07:08:38.93Z</time></trkpt><trkpt lat="43.76526" lon="11.2609533"><ele>45.0</ele><time>2026-04-18T07:08:40.93Z</time></trkpt><trkpt lat="43.7652383" lon="11.261085"><ele>45.6</ele><time>2026-04-18T07:08:42.931Z</time></trkpt><trkpt lat="43.765235" lon="11.2612133"><ele>46.2</ele><time>2026-04-18T07:08:44.93Z</time></trkpt><trkpt lat="43.7652233" lon="11.2613433"><ele>46.8</ele><time>2026-04-18T07:08:46.93Z</time></trkpt><trkpt lat="43.7652133" lon="11.26147"><ele>47.4</ele><time>2026-04-18T07:08:48.93Z</time></trkpt><trkpt lat="43.7651883" lon="11.26159"><ele>48.0</ele><time>2026-04-18T07:08:50.931Z</time></trkpt><trkpt lat="43.76518" lon="11.2617133"><ele>49.166666666666664</ele><time>2026-04-18T07:08:52.93Z</time></trkpt><trkpt lat="43.765175" lon="11.2618417"><ele>50.33333333333333</ele><time>2026-04-18T07:08:54.93Z</time></trkpt><trkpt lat="43.7651683" lon="11.2619633"><ele>51.5</ele><time>2026-04-18T07:08:56.93Z</time></trkpt><trkpt lat="43.7651583" lon="11.262085"><ele>52.666666666666664</ele><time>2026-04-18T07:08:58.93Z</time></trkpt><trkpt lat="43.7651467" lon="11.2622133"><ele>53.83333333333333</ele><time>2026-04-18T07:09:00.93Z</time></trkpt><trkpt lat="43.7651333" lon="11.26233"><ele>55.0</ele><time>2026-04-18T07:09:02.93Z</time></trkpt><trkpt lat="43.765115" lon="11.26246"><ele>55.0</ele><time>2026-04-18T07:09:04.93Z</time></trkpt><trkpt lat="43.7651017" lon="11.2625867"><ele>55.0</ele><time>2026-04-18T07:09:06.93Z</time></trkpt><trkpt lat="43.7650833" lon="11.2627117"><ele>55.0</ele><time>2026-04-18T07:09:08.93Z</time></trkpt><trkpt lat="43.76507" lon="11.262835"><ele>55.0</ele><time>2026-04-18T07:09:10.93Z</time></trkpt><trkpt lat="43.7650567" lon="11.262955"><ele>55.0</ele><time>2026-04-18T07:09:12.93Z</time></trkpt><trkpt lat="43.765055" lon="11.2630867"><ele>54.166666666666664</ele><time>2026-04-18T07:09:14.931Z</time></trkpt><trkpt lat="43.76505" lon="11.2632067"><ele>53.33333333333333</ele><time>2026-04-18T07:09:16.93Z</time></trkpt><trkpt lat="43.765035" lon="11.263325"><ele>52.5</ele><time>2026-04-18T07:09:18.93Z</time></trkpt><trkpt lat="43.7650167" lon="11.26344"><ele>51.66666666666667</ele><time>2026-04-18T07:09:20.93Z</time></trkpt><trkpt lat="43.7650017" lon="11.263545"><ele>50.833333333333336</ele><time>2026-04-18T07:09:22.93Z</time></trkpt><trkpt lat="43.7649933" lon="11.263645"><ele>50.0</ele><time>2026-04-18T07:09:24.93Z</time></trkpt><trkpt lat="43.7649883" lon="11.26375"><ele>50.00000000000001</ele><time>2026-04-18T07:09:26.931Z</time></trkpt><trkpt lat="43.7649783" lon="11.2638617"><ele>50.0</ele><time>2026-04-18T07:09:28.93Z</time></trkpt><trkpt lat="43.7649667" lon="11.263985"><ele>50.0</ele><time>2026-04-18T07:09:30.93Z</time></trkpt><trkpt lat="43.764955" lon="11.2641017"><ele>50.0</ele><time>2026-04-18T07:09:32.931Z</time></trkpt><trkpt lat="43.7649417" lon="11.264225"><ele>50.00000000000001</ele><time>2026-04-18T07:09:34.93Z</time></trkpt><trkpt lat="43.76493" lon="11.2643533"><ele>50.0</ele><time>2026-04-18T07:09:36.93Z</time></trkpt><trkpt lat="43.76492" lon="11.26448"><ele>50.6</ele><time>2026-04-18T07:09:38.93Z</time></trkpt><trkpt lat="43.7649033" lon="11.264615"><ele>51.2</ele><time>2026-04-18T07:09:40.931Z</time></trkpt><trkpt lat="43.7648783" lon="11.2647417"><ele>51.8</ele><time>2026-04-18T07:09:42.93Z</time></trkpt><trkpt lat="43.764865" lon="11.26486"><ele>52.4</ele><time>2026-04-18T07:09:44.93Z</time></trkpt><trkpt lat="43.7648533" lon="11.2649867"><ele>53.0</ele><time>2026-04-18T07:09:46.931Z</time></trkpt><trkpt lat="43.76485" lon="11.265105"><ele>53.16666666666667</ele><time>2026-04-18T07:09:48.93Z</time></trkpt><trkpt lat="43.7648417" lon="11.2652383"><ele>53.333333333333336</ele><time>2026-04-18T07:09:50.93Z</time></trkpt><trkpt lat="43.7648383" lon="11.265355"><ele>53.5</ele><time>2026-04-18T07:09:52.93Z</time></trkpt><trkpt lat="43.76483" lon="11.2654717"><ele>53.66666666666667</ele><time>2026-04-18T07:09:54.93Z</time></trkpt><trkpt lat="43.7648183" lon="11.2655917"><ele>53.833333333333336</ele><time>2026-04-18T07:09:56.931Z</time></trkpt><trkpt lat="43.7648033" lon="11.26572"><ele>54.0</ele><time>2026-04-18T07:09:58.93Z</time></trkpt><trkpt lat="43.7647917" lon="11.2658333"><ele>53.400000000000006</ele><time>2026-04-18T07:10:00.93Z</time></trkpt><trkpt lat="43.7647917" lon="11.2659633"><ele>52.800000000000004</ele><time>2026-04-18T07:10:02.931Z</time></trkpt><trkpt lat="43.7647817" lon="11.2661"><ele>52.2</ele><time>2026-04-18T07:10:04.93Z</time></trkpt><trkpt lat="43.7647633" lon="11.26623"><ele>51.599999999999994</ele><time>2026-04-18T07:10:06.93Z</time></trkpt><trkpt lat="43.7647483" lon="11.2663683"><ele>51.0</ele><time>2026-04-18T07:10:08.931Z</time></trkpt><trkpt lat="43.76473" lon="11.2665017"><ele>51.0</ele><time>2026-04-18T07:10:10.93Z</time></trkpt><trkpt lat="43.76471" lon="11.2666267"><ele>51.0</ele><time>2026-04-18T07:10:12.93Z</time></trkpt><trkpt lat="43.7647033" lon="11.2667617"><ele>51.0</ele><time>2026-04-18T07:10:14.93Z</time></trkpt><trkpt lat="43.7646983" lon="11.266885"><ele>51.0</ele><time>2026-04-18T07:10:16.93Z</time></trkpt><trkpt lat="43.764685" lon="11.2670017"><ele>51.0</ele><time>2026-04-18T07:10:18.93Z</time></trkpt><trkpt lat="43.7646717" lon="11.2671133"><ele>51.0</ele><time>2026-04-18T07:10:20.93Z</time></trkpt><trkpt lat="43.7646567" lon="11.2672183"><ele>50.833333333333336</ele><time>2026-04-18T07:10:22.93Z</time></trkpt><trkpt lat="43.764645" lon="11.26733"><ele>50.66666666666667</ele><time>2026-04-18T07:10:24.93Z</time></trkpt><trkpt lat="43.7646317" lon="11.267445"><ele>50.5</ele><time>2026-04-18T07:10:26.93Z</time></trkpt><trkpt lat="43.7646217" lon="11.267565"><ele>50.333333333333336</ele><time>2026-04-18T07:10:28.93Z</time></trkpt><trkpt lat="43.76461" lon="11.2676833"><ele>50.16666666666667</ele><time>2026-04-18T07:10:30.93Z</time></trkpt><trkpt lat="43.7645883" lon="11.2677983"><ele>50.0</ele><time>2026-04-18T07:10:32.93Z</time></trkpt><trkpt lat="43.7645683" lon="11.2679183"><ele>50.00000000000001</ele><time>2026-04-18T07:10:34.931Z</time></trkpt><trkpt lat="43.7645617" lon="11.2680383"><ele>50.0</ele><time>2026-04-18T07:10:36.93Z</time></trkpt><trkpt lat="43.7645533" lon="11.26816"><ele>50.0</ele><time>2026-04-18T07:10:38.931Z</time></trkpt><trkpt lat="43.7645383" lon="11.2682767"><ele>50.0</ele><time>2026-04-18T07:10:40.93Z</time></trkpt><trkpt lat="43.7645267" lon="11.2683867"><ele>50.00000000000001</ele><time>2026-04-18T07:10:42.93Z</time></trkpt><trkpt lat="43.7645183" lon="11.2685033"><ele>50.0</ele><time>2026-04-18T07:10:44.93Z</time></trkpt><trkpt lat="43.7645067" lon="11.2686183"><ele>50.00000000000001</ele><time>2026-04-18T07:10:46.93Z</time></trkpt><trkpt lat="43.764495" lon="11.2687383"><ele>50.0</ele><time>2026-04-18T07:10:48.93Z</time></trkpt><trkpt lat="43.76448" lon="11.268855"><ele>50.0</ele><time>2026-04-18T07:10:50.93Z</time></trkpt><trkpt lat="43.7644633" lon="11.26898"><ele>50.0</ele><time>2026-04-18T07:10:52.93Z</time></trkpt><trkpt lat="43.7644533" lon="11.2690933"><ele>50.00000000000001</ele><time>2026-04-18T07:10:54.93Z</time></trkpt><trkpt lat="43.7644383" lon="11.2692167"><ele>50.0</ele><time>2026-04-18T07:10:56.931Z</time></trkpt><trkpt lat="43.7644167" lon="11.2693367"><ele>50.00000000000001</ele><time>2026-04-18T07:10:58.931Z</time></trkpt><trkpt lat="43.7643983" lon="11.26945"><ele>50.0</ele><time>2026-04-18T07:11:00.931Z</time></trkpt><trkpt lat="43.764385" lon="11.2695533"><ele>50.0</ele><time>2026-04-18T07:11:02.93Z</time></trkpt><trkpt lat="43.7643733" lon="11.2696467"><ele>50.0</ele><time>2026-04-18T07:11:04.93Z</time></trkpt><trkpt lat="43.76436" lon="11.2697467"><ele>50.00000000000001</ele><time>2026-04-18T07:11:06.93Z</time></trkpt><trkpt lat="43.764345" lon="11.2698483"><ele>50.0</ele><time>2026-04-18T07:11:08.93Z</time></trkpt><trkpt lat="43.7643267" lon="11.269955"><ele>50.00000000000001</ele><time>2026-04-18T07:11:10.93Z</time></trkpt><trkpt lat="43.76432" lon="11.2700567"><ele>50.0</ele><time>2026-04-18T07:11:12.93Z</time></trkpt><trkpt lat="43.7643067" lon="11.2701567"><ele>50.0</ele><time>2026-04-18T07:11:14.93Z</time></trkpt><trkpt lat="43.7642933" lon="11.2702583"><ele>50.0</ele><time>2026-04-18T07:11:16.931Z</time></trkpt><trkpt lat="43.7642683" lon="11.2703833"><ele>50.00000000000001</ele><time>2026-04-18T07:11:19.931Z</time></trkpt><trkpt lat="43.7642583" lon="11.2704767"><ele>50.0</ele><time>2026-04-18T07:11:22.931Z</time></trkpt><trkpt lat="43.76422" lon="11.2705533"><ele>50.00000000000001</ele><time>2026-04-18T07:11:26.93Z</time></trkpt><trkpt lat="43.76415" lon="11.2706"><ele>50.0</ele><time>2026-04-18T07:11:29.93Z</time></trkpt><trkpt lat="43.7641267" lon="11.2707133"><ele>50.0</ele><time>2026-04-18T07:11:32.93Z</time></trkpt><trkpt lat="43.7640867" lon="11.2708183"><ele>50.0</ele><time>2026-04-18T07:11:35.93Z</time></trkpt><trkpt lat="43.76406" lon="11.270925"><ele>50.00000000000001</ele><time>2026-04-18T07:11:38.931Z</time></trkpt><trkpt lat="43.7640533" lon="11.271035"><ele>50.0</ele><time>2026-04-18T07:11:41.93Z</time></trkpt><trkpt lat="43.764015" lon="11.271105"><ele>50.00000000000001</ele><time>2026-04-18T07:11:43.93Z</time></trkpt><trkpt lat="43.7639767" lon="11.2712233"><ele>50.0</ele><time>2026-04-18T07:11:46.93Z</time></trkpt><trkpt lat="43.7639633" lon="11.2713167"><ele>50.0</ele><time>2026-04-18T07:11:48.93Z</time></trkpt><trkpt lat="43.76396" lon="11.2714183"><ele>50.0</ele><time>2026-04-18T07:11:50.93Z</time></trkpt><trkpt lat="43.7639633" lon="11.2715167"><ele>50.00000000000001</ele><time>2026-04-18T07:11:52.93Z</time></trkpt><trkpt lat="43.7639417" lon="11.271625"><ele>50.0</ele><time>2026-04-18T07:11:55.93Z</time></trkpt><trkpt lat="43.7639067" lon="11.2717433"><ele>50.00000000000001</ele><time>2026-04-18T07:11:58.93Z</time></trkpt><trkpt lat="43.7639067" lon="11.2718533"><ele>50.0</ele><time>2026-04-18T07:12:00.93Z</time></trkpt><trkpt lat="43.7639017" lon="11.2719517"><ele>50.0</ele><time>2026-04-18T07:12:02.93Z</time></trkpt><trkpt lat="43.76387" lon="11.272035"><ele>50.0</ele><time>2026-04-18T07:12:04.931Z</time></trkpt><trkpt lat="43.7638083" lon="11.27207"><ele>50.00000000000001</ele><time>2026-04-18T07:12:06.93Z</time></trkpt><trkpt lat="43.76372" lon="11.2720683"><ele>50.0</ele><time>2026-04-18T07:12:08.931Z</time></trkpt><trkpt lat="43.7636367" lon="11.272065"><ele>50.00000000000001</ele><time>2026-04-18T07:12:10.93Z</time></trkpt><trkpt lat="43.763555" lon="11.2720733"><ele>50.0</ele><time>2026-04-18T07:12:12.93Z</time></trkpt><trkpt lat="43.7634667" lon="11.2720817"><ele>50.0</ele><time>2026-04-18T07:12:14.93Z</time></trkpt><trkpt lat="43.76339" lon="11.2720933"><ele>50.0</ele><time>2026-04-18T07:12:16.931Z</time></trkpt><trkpt lat="43.76331" lon="11.2720917"><ele>50.00000000000001</ele><time>2026-04-18T07:12:18.93Z</time></trkpt><trkpt lat="43.763225" lon="11.2721183"><ele>50.0</ele><time>2026-04-18T07:12:20.931Z</time></trkpt><trkpt lat="43.7631367" lon="11.2721783"><ele>50.28571428571429</ele><time>2026-04-18T07:12:23.93Z</time></trkpt><trkpt lat="43.7630517" lon="11.2722217"><ele>50.57142857142857</ele><time>2026-04-18T07:12:26.93Z</time></trkpt><trkpt lat="43.7629883" lon="11.2722517"><ele>50.85714285714286</ele><time>2026-04-18T07:12:30.93Z</time></trkpt><trkpt lat="43.7629267" lon="11.2722817"><ele>51.142857142857146</ele><time>2026-04-18T07:12:32.93Z</time></trkpt><trkpt lat="43.7628617" lon="11.272325"><ele>51.42857142857143</ele><time>2026-04-18T07:12:34.93Z</time></trkpt><trkpt lat="43.7628067" lon="11.2723683"><ele>51.714285714285715</ele><time>2026-04-18T07:12:36.93Z</time></trkpt><trkpt lat="43.7627383" lon="11.2724167"><ele>52.0</ele><time>2026-04-18T07:12:38.93Z</time></trkpt><trkpt lat="43.762665" lon="11.2724683"><ele>52.49999999999999</ele><time>2026-04-18T07:12:40.93Z</time></trkpt><trkpt lat="43.7625733" lon="11.2725267"><ele>53.0</ele><time>2026-04-18T07:12:42.93Z</time></trkpt><trkpt lat="43.7624833" lon="11.2725767"><ele>53.5</ele><time>2026-04-18T07:12:44.93Z</time></trkpt><trkpt lat="43.7624117" lon="11.272615"><ele>54.0</ele><time>2026-04-18T07:12:46.93Z</time></trkpt><trkpt lat="43.7623267" lon="11.2726517"><ele>54.49999999999999</ele><time>2026-04-18T07:12:49.931Z</time></trkpt><trkpt lat="43.7622633" lon="11.2726833"><ele>55.0</ele><time>2026-04-18T07:12:51.93Z</time></trkpt><trkpt lat="43.7622" lon="11.272685"><ele>54.99999999999999</ele><time>2026-04-18T07:12:53.931Z</time></trkpt><trkpt lat="43.7621267" lon="11.2727033"><ele>55.0</ele><time>2026-04-18T07:12:55.93Z</time></trkpt><trkpt lat="43.7620467" lon="11.272725"><ele>55.0</ele><time>2026-04-18T07:12:57.93Z</time></trkpt><trkpt lat="43.7619633" lon="11.27275"><ele>55.0</ele><time>2026-04-18T07:12:59.93Z</time></trkpt><trkpt lat="43.7618867" lon="11.2727683"><ele>54.99999999999999</ele><time>2026-04-18T07:13:01.93Z</time></trkpt><trkpt lat="43.7618233" lon="11.2727667"><ele>55.0</ele><time>2026-04-18T07:13:03.93Z</time></trkpt><trkpt lat="43.7617383" lon="11.2727583"><ele>54.8</ele><time>2026-04-18T07:13:06.93Z</time></trkpt><trkpt lat="43.7616417" lon="11.272765"><ele>54.6</ele><time>2026-04-18T07:13:09.931Z</time></trkpt><trkpt lat="43.761525" lon="11.2727167"><ele>54.400000000000006</ele><time>2026-04-18T07:13:11.931Z</time></trkpt><trkpt lat="43.7614533" lon="11.2726967"><ele>54.2</ele><time>2026-04-18T07:13:13.93Z</time></trkpt><trkpt lat="43.7613717" lon="11.2726683"><ele>54.0</ele><time>2026-04-18T07:13:15.93Z</time></trkpt><trkpt lat="43.7612717" lon="11.2726433"><ele>54.0</ele><time>2026-04-18T07:13:17.931Z</time></trkpt><trkpt lat="43.7611883" lon="11.2726317"><ele>54.0</ele><time>2026-04-18T07:13:19.93Z</time></trkpt><trkpt lat="43.761115" lon="11.27261"><ele>54.0</ele><time>2026-04-18T07:13:21.93Z</time></trkpt><trkpt lat="43.7610467" lon="11.2725883"><ele>54.0</ele><time>2026-04-18T07:13:23.93Z</time></trkpt><trkpt lat="43.7609567" lon="11.272545"><ele>54.0</ele><time>2026-04-18T07:13:26.931Z</time></trkpt><trkpt lat="43.7608867" lon="11.2725267"><ele>54.0</ele><time>2026-04-18T07:13:28.93Z</time></trkpt><trkpt lat="43.7608067" lon="11.2724917"><ele>55.166666666666664</ele><time>2026-04-18T07:13:30.93Z</time></trkpt><trkpt lat="43.760725" lon="11.2724467"><ele>56.33333333333333</ele><time>2026-04-18T07:13:32.931Z</time></trkpt><trkpt lat="43.7606433" lon="11.27242"><ele>57.5</ele><time>2026-04-18T07:13:34.93Z</time></trkpt><trkpt lat="43.7605617" lon="11.2723967"><ele>58.666666666666664</ele><time>2026-04-18T07:13:36.93Z</time></trkpt><trkpt lat="43.7604833" lon="11.27237"><ele>59.83333333333333</ele><time>2026-04-18T07:13:38.931Z</time></trkpt><trkpt lat="43.7604083" lon="11.2723483"><ele>61.0</ele><time>2026-04-18T07:13:40.931Z</time></trkpt><trkpt lat="43.7603367" lon="11.2723233"><ele>60.99999999999999</ele><time>2026-04-18T07:13:42.93Z</time></trkpt><trkpt lat="43.7602733" lon="11.272305"><ele>61.0</ele><time>2026-04-18T07:13:44.93Z</time></trkpt><trkpt lat="43.7602033" lon="11.272285"><ele>60.99999999999999</ele><time>2026-04-18T07:13:46.931Z</time></trkpt><trkpt lat="43.7601283" lon="11.2722633"><ele>60.99999999999999</ele><time>2026-04-18T07:13:48.93Z</time></trkpt><trkpt lat="43.7600633" lon="11.2722383"><ele>61.0</ele><time>2026-04-18T07:13:50.93Z</time></trkpt><trkpt lat="43.7599933" lon="11.2722167"><ele>60.99999999999999</ele><time>2026-04-18T07:13:52.93Z</time></trkpt><trkpt lat="43.75992" lon="11.2721883"><ele>60.99999999999999</ele><time>2026-04-18T07:13:54.93Z</time></trkpt><trkpt lat="43.7598517" lon="11.2721567"><ele>61.28571428571428</ele><time>2026-04-18T07:13:56.93Z</time></trkpt><trkpt lat="43.7597817" lon="11.272135"><ele>61.57142857142857</ele><time>2026-04-18T07:13:58.93Z</time></trkpt><trkpt lat="43.7597133" lon="11.2721183"><ele>61.857142857142854</ele><time>2026-04-18T07:14:00.93Z</time></trkpt><trkpt lat="43.7596483" lon="11.2720967"><ele>62.14285714285714</ele><time>2026-04-18T07:14:02.93Z</time></trkpt><trkpt lat="43.7595817" lon="11.2720667"><ele>62.42857142857143</ele><time>2026-04-18T07:14:04.93Z</time></trkpt><trkpt lat="43.7595117" lon="11.2720467"><ele>62.714285714285715</ele><time>2026-04-18T07:14:06.93Z</time></trkpt><trkpt lat="43.759435" lon="11.272025"><ele>63.0</ele><time>2026-04-18T07:14:08.93Z</time></trkpt><trkpt lat="43.7593667" lon="11.2720033"><ele>63.14285714285714</ele><time>2026-04-18T07:14:10.93Z</time></trkpt><trkpt lat="43.7592967" lon="11.2719833"><ele>63.285714285714285</ele><time>2026-04-18T07:14:12.93Z</time></trkpt><trkpt lat="43.7592317" lon="11.2719633"><ele>63.42857142857143</ele><time>2026-04-18T07:14:14.93Z</time></trkpt><trkpt lat="43.759165" lon="11.2719417"><ele>63.57142857142857</ele><time>2026-04-18T07:14:16.931Z</time></trkpt><trkpt lat="43.7590983" lon="11.2719217"><ele>63.71428571428571</ele><time>2026-04-18T07:14:18.93Z</time></trkpt><trkpt lat="43.7590267" lon="11.2719067"><ele>63.857142857142854</ele><time>2026-04-18T07:14:20.93Z</time></trkpt><trkpt lat="43.758955" lon="11.2718867"><ele>64.0</ele><time>2026-04-18T07:14:22.93Z</time></trkpt><trkpt lat="43.7588883" lon="11.271865"><ele>64.0</ele><time>2026-04-18T07:14:24.93Z</time></trkpt><trkpt lat="43.7588133" lon="11.2718433"><ele>63.99999999999999</ele><time>2026-04-18T07:14:26.93Z</time></trkpt><trkpt lat="43.7587333" lon="11.2718067"><ele>64.0</ele><time>2026-04-18T07:14:28.931Z</time></trkpt><trkpt lat="43.7586667" lon="11.271785"><ele>64.0</ele><time>2026-04-18T07:14:30.931Z</time></trkpt><trkpt lat="43.758595" lon="11.27176"><ele>63.99999999999999</ele><time>2026-04-18T07:14:32.93Z</time></trkpt><trkpt lat="43.75852" lon="11.271745"><ele>64.0</ele><time>2026-04-18T07:14:34.93Z</time></trkpt><trkpt lat="43.7584533" lon="11.2717317"><ele>64.0</ele><time>2026-04-18T07:14:36.93Z</time></trkpt><trkpt lat="43.7583867" lon="11.27171"><ele>64.42857142857143</ele><time>2026-04-18T07:14:38.93Z</time></trkpt><trkpt lat="43.7583233" lon="11.2716933"><ele>64.85714285714285</ele><time>2026-04-18T07:14:40.931Z</time></trkpt><trkpt lat="43.75825" lon="11.2716617"><ele>65.28571428571428</ele><time>2026-04-18T07:14:42.93Z</time></trkpt><trkpt lat="43.7581683" lon="11.2716283"><ele>65.71428571428571</ele><time>2026-04-18T07:14:45.931Z</time></trkpt><trkpt lat="43.7581133" lon="11.271585"><ele>66.14285714285714</ele><time>2026-04-18T07:14:47.93Z</time></trkpt><trkpt lat="43.758055" lon="11.2715367"><ele>66.57142857142857</ele><time>2026-04-18T07:14:49.93Z</time></trkpt><trkpt lat="43.7579967" lon="11.2714767"><ele>67.0</ele><time>2026-04-18T07:14:51.93Z</time></trkpt><trkpt lat="43.757935" lon="11.271435"><ele>67.0</ele><time>2026-04-18T07:14:53.93Z</time></trkpt><trkpt lat="43.757865" lon="11.2713817"><ele>67.0</ele><time>2026-04-18T07:14:56.93Z</time></trkpt><trkpt lat="43.7577817" lon="11.271305"><ele>67.0</ele><time>2026-04-18T07:14:59.93Z</time></trkpt><trkpt lat="43.7577283" lon="11.2712433"><ele>67.0</ele><time>2026-04-18T07:15:01.93Z</time></trkpt><trkpt lat="43.7576633" lon="11.271165"><ele>67.0</ele><time>2026-04-18T07:15:04.93Z</time></trkpt><trkpt lat="43.7575933" lon="11.2711217"><ele>67.0</ele><time>2026-04-18T07:15:07.93Z</time></trkpt><trkpt lat="43.75752" lon="11.27105"><ele>67.57142857142857</ele><time>2026-04-18T07:15:10.931Z</time></trkpt><trkpt lat="43.7574517" lon="11.270985"><ele>68.14285714285714</ele><time>2026-04-18T07:15:13.931Z</time></trkpt><trkpt lat="43.7573933" lon="11.2709417"><ele>68.71428571428571</ele><time>2026-04-18T07:15:15.931Z</time></trkpt><trkpt lat="43.7573433" lon="11.27088"><ele>69.28571428571428</ele><time>2026-04-18T07:15:17.93Z</time></trkpt><trkpt lat="43.757285" lon="11.270825"><ele>69.85714285714285</ele><time>2026-04-18T07:15:19.93Z</time></trkpt><trkpt lat="43.7572283" lon="11.2707783"><ele>70.42857142857143</ele><time>2026-04-18T07:15:21.93Z</time></trkpt><trkpt lat="43.757175" lon="11.2707183"><ele>71.0</ele><time>2026-04-18T07:15:23.93Z</time></trkpt><trkpt lat="43.757125" lon="11.27065"><ele>70.83333333333334</ele><time>2026-04-18T07:15:25.93Z</time></trkpt><trkpt lat="43.7570533" lon="11.270575"><ele>70.66666666666667</ele><time>2026-04-18T07:15:28.93Z</time></trkpt><trkpt lat="43.7569783" lon="11.270515"><ele>70.5</ele><time>2026-04-18T07:15:31.93Z</time></trkpt><trkpt lat="43.75691" lon="11.2704283"><ele>70.33333333333333</ele><time>2026-04-18T07:15:34.93Z</time></trkpt><trkpt lat="43.75686" lon="11.270375"><ele>70.16666666666666</ele><time>2026-04-18T07:15:36.93Z</time></trkpt><trkpt lat="43.75679" lon="11.2703"><ele>70.0</ele><time>2026-04-18T07:15:39.93Z</time></trkpt><trkpt lat="43.7567183" lon="11.27021"><ele>70.83333333333333</ele><time>2026-04-18T07:15:42.93Z</time></trkpt><trkpt lat="43.7566733" lon="11.2701483"><ele>71.66666666666666</ele><time>2026-04-18T07:15:44.93Z</time></trkpt><trkpt lat="43.75663" lon="11.2700833"><ele>72.5</ele><time>2026-04-18T07:15:46.93Z</time></trkpt><trkpt lat="43.7565717" lon="11.269985"><ele>73.33333333333333</ele><time>2026-04-18T07:15:49.931Z</time></trkpt><trkpt lat="43.7565233" lon="11.2698983"><ele>74.16666666666667</ele><time>2026-04-18T07:15:52.93Z</time></trkpt><trkpt lat="43.7565" lon="11.2698117"><ele>75.0</ele><time>2026-04-18T07:15:55.931Z</time></trkpt><trkpt lat="43.756445" lon="11.2696717"><ele>74.99999999999999</ele><time>2026-04-18T07:15:59.93Z</time></trkpt><trkpt lat="43.7564167" lon="11.2695867"><ele>75.0</ele><time>2026-04-18T07:16:01.93Z</time></trkpt><trkpt lat="43.7564017" lon="11.269475"><ele>75.0</ele><time>2026-04-18T07:16:04.93Z</time></trkpt><trkpt lat="43.7563967" lon="11.2693817"><ele>75.0</ele><time>2026-04-18T07:16:06.931Z</time></trkpt><trkpt lat="43.756395" lon="11.2692883"><ele>75.0</ele><time>2026-04-18T07:16:08.93Z</time></trkpt><trkpt lat="43.7563983" lon="11.269185"><ele>74.99999999999999</ele><time>2026-04-18T07:16:10.931Z</time></trkpt><trkpt lat="43.7564083" lon="11.2690883"><ele>75.0</ele><time>2026-04-18T07:16:12.93Z</time></trkpt><trkpt lat="43.7564233" lon="11.2689983"><ele>75.57142857142857</ele><time>2026-04-18T07:16:14.93Z</time></trkpt><trkpt lat="43.75644" lon="11.26891"><ele>76.14285714285714</ele><time>2026-04-18T07:16:16.931Z</time></trkpt><trkpt lat="43.7564467" lon="11.2688167"><ele>76.71428571428572</ele><time>2026-04-18T07:16:18.93Z</time></trkpt><trkpt lat="43.7564733" lon="11.2687033"><ele>77.28571428571428</ele><time>2026-04-18T07:16:21.93Z</time></trkpt><trkpt lat="43.7565117" lon="11.2686083"><ele>77.85714285714286</ele><time>2026-04-18T07:16:23.93Z</time></trkpt><trkpt lat="43.7565567" lon="11.2685133"><ele>78.42857142857143</ele><time>2026-04-18T07:16:25.93Z</time></trkpt><trkpt lat="43.756595" lon="11.26844"><ele>79.0</ele><time>2026-04-18T07:16:27.93Z</time></trkpt><trkpt lat="43.756635" lon="11.2683683"><ele>79.0</ele><time>2026-04-18T07:16:29.93Z</time></trkpt><trkpt lat="43.7567067" lon="11.2682917"><ele>79.0</ele><time>2026-04-18T07:16:32.931Z</time></trkpt><trkpt lat="43.7567533" lon="11.2682317"><ele>79.0</ele><time>2026-04-18T07:16:34.93Z</time></trkpt><trkpt lat="43.7568283" lon="11.2681733"><ele>79.0</ele><time>2026-04-18T07:16:37.93Z</time></trkpt><trkpt lat="43.7568867" lon="11.2681367"><ele>79.0</ele><time>2026-04-18T07:16:39.931Z</time></trkpt><trkpt lat="43.7569467" lon="11.2681083"><ele>79.0</ele><time>2026-04-18T07:16:41.93Z</time></trkpt><trkpt lat="43.7570367" lon="11.2680717"><ele>79.57142857142858</ele><time>2026-04-18T07:16:44.931Z</time></trkpt><trkpt lat="43.7571017" lon="11.268065"><ele>80.14285714285714</ele><time>2026-04-18T07:16:46.931Z</time></trkpt><trkpt lat="43.7571683" lon="11.26807"><ele>80.71428571428572</ele><time>2026-04-18T07:16:48.931Z</time></trkpt><trkpt lat="43.7572583" lon="11.2680783"><ele>81.28571428571429</ele><time>2026-04-18T07:16:51.93Z</time></trkpt><trkpt lat="43.7573283" lon="11.26808"><ele>81.85714285714286</ele><time>2026-04-18T07:16:53.93Z</time></trkpt><trkpt lat="43.7573933" lon="11.26809"><ele>82.42857142857143</ele><time>2026-04-18T07:16:55.93Z</time></trkpt><trkpt lat="43.7574767" lon="11.2681117"><ele>83.0</ele><time>2026-04-18T07:16:58.93Z</time></trkpt><trkpt lat="43.7575567" lon="11.26815"><ele>83.0</ele><time>2026-04-18T07:17:01.93Z</time></trkpt><trkpt lat="43.7576233" lon="11.2681883"><ele>83.0</ele><time>2026-04-18T07:17:04.93Z</time></trkpt><trkpt lat="43.7577017" lon="11.2682383"><ele>83.0</ele><time>2026-04-18T07:17:07.93Z</time></trkpt><trkpt lat="43.757775" lon="11.2682933"><ele>83.0</ele><time>2026-04-18T07:17:10.931Z</time></trkpt><trkpt lat="43.7578317" lon="11.26834"><ele>83.0</ele><time>2026-04-18T07:17:12.93Z</time></trkpt><trkpt lat="43.7579033" lon="11.2684"><ele>83.0</ele><time>2026-04-18T07:17:15.93Z</time></trkpt><trkpt lat="43.7579733" lon="11.2684717"><ele>84.33333333333334</ele><time>2026-04-18T07:17:18.93Z</time></trkpt><trkpt lat="43.7580533" lon="11.2685367"><ele>85.66666666666667</ele><time>2026-04-18T07:17:21.93Z</time></trkpt><trkpt lat="43.7581383" lon="11.2685883"><ele>87.0</ele><time>2026-04-18T07:17:24.931Z</time></trkpt><trkpt lat="43.7582133" lon="11.2686617"><ele>88.33333333333333</ele><time>2026-04-18T07:17:27.93Z</time></trkpt><trkpt lat="43.75828" lon="11.2687067"><ele>89.66666666666666</ele><time>2026-04-18T07:17:30.93Z</time></trkpt><trkpt lat="43.7583567" lon="11.2687533"><ele>91.0</ele><time>2026-04-18T07:17:34.93Z</time></trkpt><trkpt lat="43.7584383" lon="11.2687917"><ele>91.0</ele><time>2026-04-18T07:17:37.931Z</time></trkpt><trkpt lat="43.7584967" lon="11.2688517"><ele>91.0</ele><time>2026-04-18T07:17:40.931Z</time></trkpt><trkpt lat="43.7585567" lon="11.268915"><ele>91.0</ele><time>2026-04-18T07:17:43.93Z</time></trkpt><trkpt lat="43.7586383" lon="11.268975"><ele>91.0</ele><time>2026-04-18T07:17:46.93Z</time></trkpt><trkpt lat="43.7586983" lon="11.2690133"><ele>91.0</ele><time>2026-04-18T07:17:48.931Z</time></trkpt><trkpt lat="43.7587533" lon="11.26906"><ele>91.0</ele><time>2026-04-18T07:17:50.93Z</time></trkpt><trkpt lat="43.7588067" lon="11.269125"><ele>91.0</ele><time>2026-04-18T07:17:53.93Z</time></trkpt><trkpt lat="43.7588833" lon="11.2691833"><ele>91.33333333333333</ele><time>2026-04-18T07:17:56.93Z</time></trkpt><trkpt lat="43.7589433" lon="11.2692183"><ele>91.66666666666666</ele><time>2026-04-18T07:17:58.931Z</time></trkpt><trkpt lat="43.75902" lon="11.2692833"><ele>92.0</ele><time>2026-04-18T07:18:01.93Z</time></trkpt><trkpt lat="43.7590917" lon="11.2693417"><ele>92.33333333333333</ele><time>2026-04-18T07:18:04.93Z</time></trkpt><trkpt lat="43.7591617" lon="11.2693833"><ele>92.66666666666667</ele><time>2026-04-18T07:18:07.93Z</time></trkpt><trkpt lat="43.759235" lon="11.26944"><ele>93.0</ele><time>2026-04-18T07:18:10.93Z</time></trkpt><trkpt lat="43.75931" lon="11.26949"><ele>93.5</ele><time>2026-04-18T07:18:13.93Z</time></trkpt><trkpt lat="43.75938" lon="11.2695417"><ele>94.0</ele><time>2026-04-18T07:18:16.93Z</time></trkpt><trkpt lat="43.7594533" lon="11.2696133"><ele>94.5</ele><time>2026-04-18T07:18:19.93Z</time></trkpt><trkpt lat="43.7595117" lon="11.26965"><ele>95.0</ele><time>2026-04-18T07:18:21.93Z</time></trkpt><trkpt lat="43.75959" lon="11.2697017"><ele>95.5</ele><time>2026-04-18T07:18:24.93Z</time></trkpt><trkpt lat="43.759655" lon="11.2697517"><ele>96.0</ele><time>2026-04-18T07:18:27.93Z</time></trkpt><trkpt lat="43.759715" lon="11.269805"><ele>96.0</ele><time>2026-04-18T07:18:30.93Z</time></trkpt><trkpt lat="43.7597867" lon="11.2698533"><ele>96.0</ele><time>2026-04-18T07:18:33.93Z</time></trkpt><trkpt lat="43.7598617" lon="11.2698967"><ele>96.0</ele><time>2026-04-18T07:18:36.93Z</time></trkpt><trkpt lat="43.7599383" lon="11.2699617"><ele>96.0</ele><time>2026-04-18T07:18:39.93Z</time></trkpt><trkpt lat="43.7599983" lon="11.2699983"><ele>96.0</ele><time>2026-04-18T07:18:41.93Z</time></trkpt><trkpt lat="43.7600533" lon="11.2700417"><ele>96.0</ele><time>2026-04-18T07:18:43.93Z</time></trkpt><trkpt lat="43.7601317" lon="11.2700733"><ele>96.83333333333333</ele><time>2026-04-18T07:18:46.93Z</time></trkpt><trkpt lat="43.7602167" lon="11.27011"><ele>97.66666666666666</ele><time>2026-04-18T07:18:49.931Z</time></trkpt><trkpt lat="43.7603" lon="11.2701433"><ele>98.5</ele><time>2026-04-18T07:18:52.929Z</time></trkpt><trkpt lat="43.7603617" lon="11.270165"><ele>99.33333333333333</ele><time>2026-04-18T07:18:54.929Z</time></trkpt><trkpt lat="43.7604417" lon="11.2701783"><ele>100.16666666666666</ele><time>2026-04-18T07:18:57.93Z</time></trkpt><trkpt lat="43.760505" lon="11.270185"><ele>101.0</ele><time>2026-04-18T07:18:59.929Z</time></trkpt><trkpt lat="43.7605917" lon="11.27017"><ele>100.99999999999999</ele><time>2026-04-18T07:19:02.93Z</time></trkpt><trkpt lat="43.760675" lon="11.270145"><ele>101.0</ele><time>2026-04-18T07:19:05.929Z</time></trkpt><trkpt lat="43.76074" lon="11.2701233"><ele>101.0</ele><time>2026-04-18T07:19:08.929Z</time></trkpt><trkpt lat="43.760815" lon="11.2700867"><ele>101.0</ele><time>2026-04-18T07:19:11.929Z</time></trkpt><trkpt lat="43.7608717" lon="11.2700417"><ele>100.99999999999999</ele><time>2026-04-18T07:19:14.93Z</time></trkpt><trkpt lat="43.76094" lon="11.2699733"><ele>101.0</ele><time>2026-04-18T07:19:17.929Z</time></trkpt><trkpt lat="43.7610067" lon="11.2699033"><ele>100.16666666666666</ele><time>2026-04-18T07:19:20.93Z</time></trkpt><trkpt lat="43.761075" lon="11.2698283"><ele>99.33333333333333</ele><time>2026-04-18T07:19:23.93Z</time></trkpt><trkpt lat="43.761125" lon="11.2697417"><ele>98.5</ele><time>2026-04-18T07:19:26.929Z</time></trkpt><trkpt lat="43.76117" lon="11.26965"><ele>97.66666666666666</ele><time>2026-04-18T07:19:29.929Z</time></trkpt><trkpt lat="43.76121" lon="11.26955"><ele>96.83333333333333</ele><time>2026-04-18T07:19:32.93Z</time></trkpt><trkpt lat="43.76123" lon="11.26946"><ele>96.0</ele><time>2026-04-18T07:19:35.929Z</time></trkpt><trkpt lat="43.7612467" lon="11.2693333"><ele>96.0</ele><time>2026-04-18T07:19:38.929Z</time></trkpt><trkpt lat="43.7612633" lon="11.2692133"><ele>96.0</ele><time>2026-04-18T07:19:41.929Z</time></trkpt><trkpt lat="43.76127" lon="11.2690917"><ele>96.0</ele><time>2026-04-18T07:19:44.929Z</time></trkpt><trkpt lat="43.761265" lon="11.2689683"><ele>96.0</ele><time>2026-04-18T07:19:47.929Z</time></trkpt><trkpt lat="43.76126" lon="11.2688567"><ele>96.0</ele><time>2026-04-18T07:19:50.929Z</time></trkpt><trkpt lat="43.7612517" lon="11.2687467"><ele>96.0</ele><time>2026-04-18T07:19:53.93Z</time></trkpt><trkpt lat="43.7612433" lon="11.268645"><ele>95.83333333333333</ele><time>2026-04-18T07:19:56.929Z</time></trkpt><trkpt lat="43.76123" lon="11.26852"><ele>95.66666666666667</ele><time>2026-04-18T07:19:59.929Z</time></trkpt><trkpt lat="43.76122" lon="11.268425"><ele>95.5</ele><time>2026-04-18T07:20:01.929Z</time></trkpt><trkpt lat="43.761215" lon="11.2683033"><ele>95.33333333333334</ele><time>2026-04-18T07:20:04.929Z</time></trkpt><trkpt lat="43.7612183" lon="11.2682083"><ele>95.16666666666667</ele><time>2026-04-18T07:20:06.929Z</time></trkpt><trkpt lat="43.7612233" lon="11.2680817"><ele>95.0</ele><time>2026-04-18T07:20:09.929Z</time></trkpt><trkpt lat="43.7612267" lon="11.267955"><ele>95.33333333333334</ele><time>2026-04-18T07:20:12.929Z</time></trkpt><trkpt lat="43.7612433" lon="11.2678317"><ele>95.66666666666667</ele><time>2026-04-18T07:20:15.929Z</time></trkpt><trkpt lat="43.76125" lon="11.2677417"><ele>96.0</ele><time>2026-04-18T07:20:17.929Z</time></trkpt><trkpt lat="43.7612767" lon="11.2676317"><ele>96.33333333333334</ele><time>2026-04-18T07:20:20.93Z</time></trkpt><trkpt lat="43.76129" lon="11.267525"><ele>96.66666666666667</ele><time>2026-04-18T07:20:23.93Z</time></trkpt><trkpt lat="43.7613083" lon="11.2674133"><ele>97.0</ele><time>2026-04-18T07:20:26.929Z</time></trkpt><trkpt lat="43.7613267" lon="11.267295"><ele>98.66666666666667</ele><time>2026-04-18T07:20:29.929Z</time></trkpt><trkpt lat="43.7613483" lon="11.267165"><ele>100.33333333333334</ele><time>2026-04-18T07:20:32.929Z</time></trkpt><trkpt lat="43.7613783" lon="11.267085"><ele>102.0</ele><time>2026-04-18T07:20:34.929Z</time></trkpt><trkpt lat="43.76141" lon="11.2669833"><ele>103.66666666666666</ele><time>2026-04-18T07:20:37.93Z</time></trkpt><trkpt lat="43.7614633" lon="11.266875"><ele>105.33333333333333</ele><time>2026-04-18T07:20:40.93Z</time></trkpt><trkpt lat="43.7614933" lon="11.2667967"><ele>107.0</ele><time>2026-04-18T07:20:42.929Z</time></trkpt><trkpt lat="43.7615383" lon="11.2666833"><ele>106.99999999999999</ele><time>2026-04-18T07:20:45.929Z</time></trkpt><trkpt lat="43.7615733" lon="11.2666067"><ele>107.0</ele><time>2026-04-18T07:20:47.93Z</time></trkpt><trkpt lat="43.761615" lon="11.2664983"><ele>107.0</ele><time>2026-04-18T07:20:50.929Z</time></trkpt><trkpt lat="43.7616683" lon="11.2664"><ele>107.0</ele><time>2026-04-18T07:20:53.93Z</time></trkpt><trkpt lat="43.761705" lon="11.26632"><ele>106.99999999999999</ele><time>2026-04-18T07:20:55.929Z</time></trkpt><trkpt lat="43.7617383" lon="11.266245"><ele>107.0</ele><time>2026-04-18T07:20:57.929Z</time></trkpt><trkpt lat="43.761795" lon="11.266145"><ele>105.99999999999999</ele><time>2026-04-18T07:21:00.929Z</time></trkpt><trkpt lat="43.7618417" lon="11.26608"><ele>105.0</ele><time>2026-04-18T07:21:02.93Z</time></trkpt><trkpt lat="43.7619167" lon="11.2659983"><ele>104.0</ele><time>2026-04-18T07:21:05.93Z</time></trkpt><trkpt lat="43.7619617" lon="11.265905"><ele>103.0</ele><time>2026-04-18T07:21:08.93Z</time></trkpt><trkpt lat="43.7619967" lon="11.2658317"><ele>101.99999999999999</ele><time>2026-04-18T07:21:10.929Z</time></trkpt><trkpt lat="43.76204" lon="11.26572"><ele>101.0</ele><time>2026-04-18T07:21:13.929Z</time></trkpt><trkpt lat="43.7620767" lon="11.2656467"><ele>101.28571428571428</ele><time>2026-04-18T07:21:15.929Z</time></trkpt><trkpt lat="43.7621083" lon="11.265555"><ele>101.57142857142857</ele><time>2026-04-18T07:21:17.929Z</time></trkpt><trkpt lat="43.7621383" lon="11.2654717"><ele>101.85714285714286</ele><time>2026-04-18T07:21:19.929Z</time></trkpt><trkpt lat="43.7621617" lon="11.265365"><ele>102.14285714285714</ele><time>2026-04-18T07:21:22.929Z</time></trkpt><trkpt lat="43.7621683" lon="11.2652583"><ele>102.42857142857143</ele><time>2026-04-18T07:21:25.929Z</time></trkpt><trkpt lat="43.76218" lon="11.2651717"><ele>102.71428571428571</ele><time>2026-04-18T07:21:27.929Z</time></trkpt><trkpt lat="43.7621867" lon="11.26508"><ele>103.0</ele><time>2026-04-18T07:21:29.929Z</time></trkpt><trkpt lat="43.76219" lon="11.264985"><ele>102.99999999999999</ele><time>2026-04-18T07:21:31.929Z</time></trkpt><trkpt lat="43.762195" lon="11.264895"><ele>103.0</ele><time>2026-04-18T07:21:33.929Z</time></trkpt><trkpt lat="43.7622133" lon="11.2648033"><ele>103.0</ele><time>2026-04-18T07:21:35.929Z</time></trkpt><trkpt lat="43.762235" lon="11.26471"><ele>103.0</ele><time>2026-04-18T07:21:37.929Z</time></trkpt><trkpt lat="43.7622617" lon="11.26462"><ele>103.0</ele><time>2026-04-18T07:21:39.93Z</time></trkpt><trkpt lat="43.7622883" lon="11.2645367"><ele>102.99999999999999</ele><time>2026-04-18T07:21:41.93Z</time></trkpt><trkpt lat="43.7623083" lon="11.264425"><ele>103.0</ele><time>2026-04-18T07:21:44.93Z</time></trkpt><trkpt lat="43.76225" lon="11.2643633"><ele>102.66666666666667</ele><time>2026-04-18T07:21:47.93Z</time></trkpt><trkpt lat="43.7621883" lon="11.2643433"><ele>102.33333333333334</ele><time>2026-04-18T07:21:49.929Z</time></trkpt><trkpt lat="43.762095" lon="11.2643467"><ele>102.0</ele><time>2026-04-18T07:21:52.929Z</time></trkpt><trkpt lat="43.762005" lon="11.2643583"><ele>101.66666666666666</ele><time>2026-04-18T07:21:55.929Z</time></trkpt><trkpt lat="43.76192" lon="11.2643783"><ele>101.33333333333333</ele><time>2026-04-18T07:21:58.929Z</time></trkpt><trkpt lat="43.7618433" lon="11.2643967"><ele>101.0</ele><time>2026-04-18T07:22:01.93Z</time></trkpt><trkpt lat="43.7617683" lon="11.2644183"><ele>100.99999999999999</ele><time>2026-04-18T07:22:04.93Z</time></trkpt><trkpt lat="43.761695" lon="11.2644467"><ele>101.0</ele><time>2026-04-18T07:22:07.93Z</time></trkpt><trkpt lat="43.76163" lon="11.2644683"><ele>101.0</ele><time>2026-04-18T07:22:10.929Z</time></trkpt><trkpt lat="43.7615483" lon="11.2645133"><ele>101.0</ele><time>2026-04-18T07:22:13.929Z</time></trkpt><trkpt lat="43.761485" lon="11.2645383"><ele>100.99999999999999</ele><time>2026-04-18T07:22:15.929Z</time></trkpt><trkpt lat="43.761405" lon="11.26457"><ele>101.0</ele><time>2026-04-18T07:22:18.929Z</time></trkpt><trkpt lat="43.761335" lon="11.264585"><ele>100.99999999999999</ele><time>2026-04-18T07:22:21.929Z</time></trkpt><trkpt lat="43.7612533" lon="11.26461"><ele>101.0</ele><time>2026-04-18T07:22:24.929Z</time></trkpt><trkpt lat="43.7611633" lon="11.264625"><ele>101.0</ele><time>2026-04-18T07:22:27.93Z</time></trkpt><trkpt lat="43.7610783" lon="11.26463"><ele>101.0</ele><time>2026-04-18T07:22:30.929Z</time></trkpt><trkpt lat="43.7610133" lon="11.264635"><ele>100.99999999999999</ele><time>2026-04-18T07:22:32.929Z</time></trkpt><trkpt lat="43.7609317" lon="11.2646317"><ele>101.0</ele><time>2026-04-18T07:22:35.929Z</time></trkpt><trkpt lat="43.7608633" lon="11.264615"><ele>101.66666666666666</ele><time>2026-04-18T07:22:37.929Z</time></trkpt><trkpt lat="43.7607883" lon="11.2645967"><ele>102.33333333333333</ele><time>2026-04-18T07:22:40.929Z</time></trkpt><trkpt lat="43.7607117" lon="11.26459"><ele>103.0</ele><time>2026-04-18T07:22:43.93Z</time></trkpt><trkpt lat="43.7606367" lon="11.2645783"><ele>103.66666666666666</ele><time>2026-04-18T07:22:46.929Z</time></trkpt><trkpt lat="43.7605583" lon="11.2645217"><ele>104.33333333333333</ele><time>2026-04-18T07:22:49.929Z</time></trkpt><trkpt lat="43.7605033" lon="11.2644717"><ele>105.0</ele><time>2026-04-18T07:22:51.93Z</time></trkpt><trkpt lat="43.7604367" lon="11.26442"><ele>105.0</ele><time>2026-04-18T07:22:54.929Z</time></trkpt><trkpt lat="43.760385" lon="11.2643567"><ele>105.0</ele><time>2026-04-18T07:22:58.929Z</time></trkpt><trkpt lat="43.7603267" lon="11.264285"><ele>105.0</ele><time>2026-04-18T07:23:03.929Z</time></trkpt><trkpt lat="43.760275" lon="11.264215"><ele>105.0</ele><time>2026-04-18T07:23:06.929Z</time></trkpt><trkpt lat="43.7602183" lon="11.26412"><ele>105.0</ele><time>2026-04-18T07:23:09.929Z</time></trkpt><trkpt lat="43.7601583" lon="11.26402"><ele>105.0</ele><time>2026-04-18T07:23:12.929Z</time></trkpt><trkpt lat="43.760105" lon="11.26393"><ele>105.83333333333333</ele><time>2026-04-18T07:23:15.929Z</time></trkpt><trkpt lat="43.7600383" lon="11.2638467"><ele>106.66666666666666</ele><time>2026-04-18T07:23:18.929Z</time></trkpt><trkpt lat="43.75999" lon="11.2637833"><ele>107.5</ele><time>2026-04-18T07:23:20.929Z</time></trkpt><trkpt lat="43.759935" lon="11.2636933"><ele>108.33333333333333</ele><time>2026-04-18T07:23:23.929Z</time></trkpt><trkpt lat="43.7598717" lon="11.2636033"><ele>109.16666666666666</ele><time>2026-04-18T07:23:26.929Z</time></trkpt><trkpt lat="43.7598283" lon="11.2635383"><ele>110.0</ele><time>2026-04-18T07:23:28.929Z</time></trkpt><trkpt lat="43.7597667" lon="11.263475"><ele>109.99999999999999</ele><time>2026-04-18T07:23:31.929Z</time></trkpt><trkpt lat="43.7596967" lon="11.2633967"><ele>110.0</ele><time>2026-04-18T07:23:34.929Z</time></trkpt><trkpt lat="43.7596467" lon="11.26334"><ele>110.0</ele><time>2026-04-18T07:23:36.93Z</time></trkpt><trkpt lat="43.759595" lon="11.263285"><ele>110.0</ele><time>2026-04-18T07:23:38.929Z</time></trkpt><trkpt lat="43.7595433" lon="11.2632267"><ele>109.99999999999999</ele><time>2026-04-18T07:23:40.929Z</time></trkpt><trkpt lat="43.7594683" lon="11.2631583"><ele>110.0</ele><time>2026-04-18T07:23:43.929Z</time></trkpt><trkpt lat="43.7593883" lon="11.263105"><ele>110.33333333333333</ele><time>2026-04-18T07:23:46.93Z</time></trkpt><trkpt lat="43.7593267" lon="11.2630683"><ele>110.66666666666666</ele><time>2026-04-18T07:23:48.929Z</time></trkpt><trkpt lat="43.759245" lon="11.2630133"><ele>111.0</ele><time>2026-04-18T07:23:51.929Z</time></trkpt><trkpt lat="43.7591717" lon="11.2629917"><ele>111.33333333333334</ele><time>2026-04-18T07:23:54.929Z</time></trkpt><trkpt lat="43.7590767" lon="11.262945"><ele>111.66666666666667</ele><time>2026-04-18T07:23:57.929Z</time></trkpt><trkpt lat="43.759015" lon="11.2629017"><ele>112.0</ele><time>2026-04-18T07:23:59.93Z</time></trkpt><trkpt lat="43.75893" lon="11.2628867"><ele>112.00000000000001</ele><time>2026-04-18T07:24:02.929Z</time></trkpt><trkpt lat="43.7588467" lon="11.262875"><ele>112.0</ele><time>2026-04-18T07:24:05.929Z</time></trkpt><trkpt lat="43.75877" lon="11.2628567"><ele>112.0</ele><time>2026-04-18T07:24:08.929Z</time></trkpt><trkpt lat="43.758705" lon="11.2628233"><ele>112.0</ele><time>2026-04-18T07:24:10.93Z</time></trkpt><trkpt lat="43.758625" lon="11.262795"><ele>112.00000000000001</ele><time>2026-04-18T07:24:13.929Z</time></trkpt><trkpt lat="43.7585533" lon="11.26274"><ele>112.0</ele><time>2026-04-18T07:24:16.929Z</time></trkpt><trkpt lat="43.7584817" lon="11.2626833"><ele>113.33333333333334</ele><time>2026-04-18T07:24:19.929Z</time></trkpt><trkpt lat="43.7584033" lon="11.2626117"><ele>114.66666666666667</ele><time>2026-04-18T07:24:22.929Z</time></trkpt><trkpt lat="43.7583433" lon="11.26252"><ele>116.0</ele><time>2026-04-18T07:24:25.929Z</time></trkpt><trkpt lat="43.7582833" lon="11.2624383"><ele>117.33333333333334</ele><time>2026-04-18T07:24:28.93Z</time></trkpt><trkpt lat="43.7582333" lon="11.2623467"><ele>118.66666666666667</ele><time>2026-04-18T07:24:31.929Z</time></trkpt><trkpt lat="43.75819" lon="11.26224"><ele>120.0</ele><time>2026-04-18T07:24:34.929Z</time></trkpt><trkpt lat="43.7581567" lon="11.262135"><ele>120.0</ele><time>2026-04-18T07:24:37.929Z</time></trkpt><trkpt lat="43.7581333" lon="11.2620283"><ele>120.0</ele><time>2026-04-18T07:24:40.929Z</time></trkpt><trkpt lat="43.7581233" lon="11.26192"><ele>120.0</ele><time>2026-04-18T07:24:43.929Z</time></trkpt><trkpt lat="43.75811" lon="11.26181"><ele>120.0</ele><time>2026-04-18T07:24:46.929Z</time></trkpt><trkpt lat="43.7580933" lon="11.261695"><ele>120.0</ele><time>2026-04-18T07:24:49.929Z</time></trkpt><trkpt lat="43.758075" lon="11.2616033"><ele>120.0</ele><time>2026-04-18T07:24:52.929Z</time></trkpt><trkpt lat="43.75806" lon="11.2615183"><ele>120.0</ele><time>2026-04-18T07:24:54.929Z</time></trkpt><trkpt lat="43.7580317" lon="11.26143"><ele>120.0</ele><time>2026-04-18T07:24:56.93Z</time></trkpt><trkpt lat="43.758005" lon="11.2613433"><ele>120.0</ele><time>2026-04-18T07:24:58.929Z</time></trkpt><trkpt lat="43.7579817" lon="11.261225"><ele>120.0</ele><time>2026-04-18T07:25:01.929Z</time></trkpt><trkpt lat="43.7579583" lon="11.26114"><ele>120.0</ele><time>2026-04-18T07:25:03.93Z</time></trkpt><trkpt lat="43.75793" lon="11.2610417"><ele>120.0</ele><time>2026-04-18T07:25:05.929Z</time></trkpt><trkpt lat="43.7579" lon="11.2609283"><ele>120.0</ele><time>2026-04-18T07:25:07.929Z</time></trkpt><trkpt lat="43.7578683" lon="11.260815"><ele>120.0</ele><time>2026-04-18T07:25:09.93Z</time></trkpt><trkpt lat="43.7578283" lon="11.260715"><ele>120.0</ele><time>2026-04-18T07:25:11.929Z</time></trkpt><trkpt lat="43.757775" lon="11.2606317"><ele>120.0</ele><time>2026-04-18T07:25:13.93Z</time></trkpt><trkpt lat="43.75773" lon="11.2605417"><ele>120.0</ele><time>2026-04-18T07:25:15.929Z</time></trkpt><trkpt lat="43.7576867" lon="11.2604383"><ele>120.0</ele><time>2026-04-18T07:25:17.929Z</time></trkpt><trkpt lat="43.7576433" lon="11.2603483"><ele>121.0</ele><time>2026-04-18T07:25:19.929Z</time></trkpt><trkpt lat="43.7576033" lon="11.2602633"><ele>122.0</ele><time>2026-04-18T07:25:21.929Z</time></trkpt><trkpt lat="43.75757" lon="11.2601683"><ele>123.0</ele><time>2026-04-18T07:25:23.929Z</time></trkpt><trkpt lat="43.75754" lon="11.2600867"><ele>124.0</ele><time>2026-04-18T07:25:25.93Z</time></trkpt><trkpt lat="43.7575067" lon="11.259965"><ele>125.0</ele><time>2026-04-18T07:25:28.929Z</time></trkpt><trkpt lat="43.7574617" lon="11.259865"><ele>126.0</ele><time>2026-04-18T07:25:30.929Z</time></trkpt><trkpt lat="43.7574117" lon="11.2597767"><ele>126.42857142857143</ele><time>2026-04-18T07:25:32.929Z</time></trkpt><trkpt lat="43.757385" lon="11.259695"><ele>126.85714285714286</ele><time>2026-04-18T07:25:36.929Z</time></trkpt><trkpt lat="43.7573883" lon="11.2595767"><ele>127.28571428571428</ele><time>2026-04-18T07:25:40.929Z</time></trkpt><trkpt lat="43.7574133" lon="11.2594717"><ele>127.71428571428571</ele><time>2026-04-18T07:25:43.929Z</time></trkpt><trkpt lat="43.7574533" lon="11.2593967"><ele>128.14285714285714</ele><time>2026-04-18T07:25:46.929Z</time></trkpt><trkpt lat="43.7575033" lon="11.25933"><ele>128.57142857142856</ele><time>2026-04-18T07:25:49.929Z</time></trkpt><trkpt lat="43.7575567" lon="11.2592683"><ele>129.0</ele><time>2026-04-18T07:25:52.929Z</time></trkpt><trkpt lat="43.7576" lon="11.2592033"><ele>129.0</ele><time>2026-04-18T07:25:55.929Z</time></trkpt><trkpt lat="43.757645" lon="11.2591167"><ele>129.0</ele><time>2026-04-18T07:25:59.93Z</time></trkpt><trkpt lat="43.75767" lon="11.2590333"><ele>129.0</ele><time>2026-04-18T07:26:02.93Z</time></trkpt><trkpt lat="43.7576883" lon="11.2589167"><ele>129.0</ele><time>2026-04-18T07:26:06.929Z</time></trkpt><trkpt lat="43.7576883" lon="11.2587967"><ele>129.0</ele><time>2026-04-18T07:26:10.929Z</time></trkpt><trkpt lat="43.757665" lon="11.2587017"><ele>129.0</ele><time>2026-04-18T07:26:13.93Z</time></trkpt><trkpt lat="43.7576267" lon="11.2586317"><ele>128.83333333333334</ele><time>2026-04-18T07:26:16.93Z</time></trkpt><trkpt lat="43.75758" lon="11.2585667"><ele>128.66666666666666</ele><time>2026-04-18T07:26:19.929Z</time></trkpt><trkpt lat="43.75751" lon="11.258515"><ele>128.5</ele><time>2026-04-18T07:26:23.929Z</time></trkpt><trkpt lat="43.7574333" lon="11.2584967"><ele>128.33333333333331</ele><time>2026-04-18T07:26:27.929Z</time></trkpt><trkpt lat="43.7573567" lon="11.258515"><ele>128.16666666666666</ele><time>2026-04-18T07:26:31.929Z</time></trkpt><trkpt lat="43.7573" lon="11.2585817"><ele>128.0</ele><time>2026-04-18T07:26:35.929Z</time></trkpt><trkpt lat="43.7572533" lon="11.2586717"><ele>128.0</ele><time>2026-04-18T07:26:39.929Z</time></trkpt><trkpt lat="43.75722" lon="11.2587617"><ele>127.99999999999999</ele><time>2026-04-18T07:26:43.929Z</time></trkpt><trkpt lat="43.7571883" lon="11.2588483"><ele>128.0</ele><time>2026-04-18T07:26:47.929Z</time></trkpt><trkpt lat="43.75716" lon="11.2589433"><ele>128.0</ele><time>2026-04-18T07:26:51.929Z</time></trkpt><trkpt lat="43.7571233" lon="11.2590317"><ele>127.99999999999999</ele><time>2026-04-18T07:26:56.929Z</time></trkpt><trkpt lat="43.7571" lon="11.2591133"><ele>128.0</ele><time>2026-04-18T07:27:00.929Z</time></trkpt><trkpt lat="43.7570967" lon="11.2592017"><ele>128.0</ele><time>2026-04-18T07:27:04.929Z</time></trkpt><trkpt lat="43.757045" lon="11.259295"><ele>128.14285714285714</ele><time>2026-04-18T07:27:08.93Z</time></trkpt><trkpt lat="43.7570133" lon="11.2593783"><ele>128.28571428571428</ele><time>2026-04-18T07:27:12.929Z</time></trkpt><trkpt lat="43.7569833" lon="11.2594667"><ele>128.42857142857142</ele><time>2026-04-18T07:27:16.93Z</time></trkpt><trkpt lat="43.7569417" lon="11.2595517"><ele>128.57142857142856</ele><time>2026-04-18T07:27:20.93Z</time></trkpt><trkpt lat="43.7569083" lon="11.25965"><ele>128.71428571428572</ele><time>2026-04-18T07:27:24.929Z</time></trkpt><trkpt lat="43.75688" lon="11.2597417"><ele>128.85714285714283</ele><time>2026-04-18T07:27:28.929Z</time></trkpt><trkpt lat="43.756845" lon="11.2598233"><ele>129.0</ele><time>2026-04-18T07:27:32.929Z</time></trkpt><trkpt lat="43.7567983" lon="11.2599067"><ele>130.7142857142857</ele><time>2026-04-18T07:27:37.929Z</time></trkpt><trkpt lat="43.756745" lon="11.25998"><ele>132.42857142857142</ele><time>2026-04-18T07:27:42.929Z</time></trkpt><trkpt lat="43.7566917" lon="11.2600433"><ele>134.14285714285714</ele><time>2026-04-18T07:27:47.929Z</time></trkpt><trkpt lat="43.75663" lon="11.2600233"><ele>135.85714285714283</ele><time>2026-04-18T07:27:52.929Z</time></trkpt><trkpt lat="43.756565" lon="11.260025"><ele>137.57142857142856</ele><time>2026-04-18T07:27:58.929Z</time></trkpt><trkpt lat="43.7564933" lon="11.2600167"><ele>139.28571428571428</ele><time>2026-04-18T07:28:05.929Z</time></trkpt><trkpt lat="43.7564333" lon="11.25999"><ele>141.0</ele><time>2026-04-18T07:28:09.929Z</time></trkpt><trkpt lat="43.7563867" lon="11.2599133"><ele>141.0</ele><time>2026-04-18T07:29:48.929Z</time></trkpt><trkpt lat="43.756325" lon="11.2598817"><ele>141.0</ele><time>2026-04-18T07:29:51.929Z</time></trkpt><trkpt lat="43.7562633" lon="11.2598567"><ele>141.0</ele><time>2026-04-18T07:29:54.929Z</time></trkpt><trkpt lat="43.7562" lon="11.2598233"><ele>141.0</ele><time>2026-04-18T07:29:57.929Z</time></trkpt><trkpt lat="43.75614" lon="11.259795"><ele>141.0</ele><time>2026-04-18T07:29:59.929Z</time></trkpt><trkpt lat="43.756055" lon="11.2597433"><ele>141.0</ele><time>2026-04-18T07:30:02.929Z</time></trkpt><trkpt lat="43.7559867" lon="11.2597167"><ele>141.0</ele><time>2026-04-18T07:30:04.929Z</time></trkpt><trkpt lat="43.7559183" lon="11.2596867"><ele>143.28571428571428</ele><time>2026-04-18T07:30:06.929Z</time></trkpt><trkpt lat="43.755845" lon="11.25966"><ele>145.57142857142856</ele><time>2026-04-18T07:30:08.929Z</time></trkpt><trkpt lat="43.7557733" lon="11.2596267"><ele>147.85714285714283</ele><time>2026-04-18T07:30:10.929Z</time></trkpt><trkpt lat="43.7557" lon="11.2596017"><ele>150.14285714285714</ele><time>2026-04-18T07:30:12.929Z</time></trkpt><trkpt lat="43.7556333" lon="11.2595817"><ele>152.42857142857142</ele><time>2026-04-18T07:30:14.929Z</time></trkpt><trkpt lat="43.7555583" lon="11.25955"><ele>154.7142857142857</ele><time>2026-04-18T07:30:16.93Z</time></trkpt><trkpt lat="43.7554867" lon="11.25952"><ele>157.0</ele><time>2026-04-18T07:30:18.93Z</time></trkpt><trkpt lat="43.75542" lon="11.259485"><ele>156.99999999999997</ele><time>2026-04-18T07:30:20.93Z</time></trkpt><trkpt lat="43.755355" lon="11.259465"><ele>157.0</ele><time>2026-04-18T07:30:22.929Z</time></trkpt><trkpt lat="43.75529" lon="11.2594467"><ele>157.0</ele><time>2026-04-18T07:30:24.929Z</time></trkpt><trkpt lat="43.7552017" lon="11.259405"><ele>157.0</ele><time>2026-04-18T07:30:27.93Z</time></trkpt><trkpt lat="43.7551233" lon="11.259365"><ele>157.0</ele><time>2026-04-18T07:30:30.929Z</time></trkpt><trkpt lat="43.7550633" lon="11.2593367"><ele>156.99999999999997</ele><time>2026-04-18T07:30:32.929Z</time></trkpt><trkpt lat="43.7550033" lon="11.2593033"><ele>157.0</ele><time>2026-04-18T07:30:34.929Z</time></trkpt><trkpt lat="43.75494" lon="11.2592817"><ele>156.66666666666669</ele><time>2026-04-18T07:30:36.929Z</time></trkpt><trkpt lat="43.7548617" lon="11.25926"><ele>156.33333333333334</ele><time>2026-04-18T07:30:39.929Z</time></trkpt><trkpt lat="43.7547817" lon="11.2592183"><ele>156.0</ele><time>2026-04-18T07:30:42.929Z</time></trkpt><trkpt lat="43.7547183" lon="11.2591967"><ele>155.66666666666666</ele><time>2026-04-18T07:30:44.929Z</time></trkpt><trkpt lat="43.7546317" lon="11.259165"><ele>155.33333333333331</ele><time>2026-04-18T07:30:47.929Z</time></trkpt><trkpt lat="43.7545567" lon="11.259135"><ele>155.0</ele><time>2026-04-18T07:30:50.929Z</time></trkpt><trkpt lat="43.75448" lon="11.2590883"><ele>155.0</ele><time>2026-04-18T07:30:53.929Z</time></trkpt><trkpt lat="43.7544117" lon="11.2590633"><ele>155.0</ele><time>2026-04-18T07:30:58.929Z</time></trkpt><trkpt lat="43.7543833" lon="11.2589633"><ele>155.0</ele><time>2026-04-18T07:31:10.93Z</time></trkpt><trkpt lat="43.75441" lon="11.25886"><ele>155.0</ele><time>2026-04-18T07:31:14.93Z</time></trkpt><trkpt lat="43.75443" lon="11.25877"><ele>155.0</ele><time>2026-04-18T07:31:18.93Z</time></trkpt><trkpt lat="43.754425" lon="11.25868"><ele>155.0</ele><time>2026-04-18T07:31:23.929Z</time></trkpt><trkpt lat="43.7544167" lon="11.2587733"><ele>155.0</ele><time>2026-04-18T07:32:30.929Z</time></trkpt><trkpt lat="43.7544284" lon="11.2586272"><ele>155.16666666666666</ele><time>2026-04-18T07:33:00.929Z</time></trkpt><trkpt lat="43.754445" lon="11.2585404"><ele>155.33333333333331</ele><time>2026-04-18T07:33:01.929Z</time></trkpt><trkpt lat="43.7544357" lon="11.2584374"><ele>155.5</ele><time>2026-04-18T07:33:04.929Z</time></trkpt><trkpt lat="43.7544107" lon="11.2583414"><ele>155.66666666666666</ele><time>2026-04-18T07:33:08.93Z</time></trkpt><trkpt lat="43.7544006" lon="11.2582386"><ele>155.83333333333334</ele><time>2026-04-18T07:33:15.929Z</time></trkpt><trkpt lat="43.7543608" lon="11.2581496"><ele>156.0</ele><time>2026-04-18T07:33:17.929Z</time></trkpt><trkpt lat="43.7544318" lon="11.2582567"><ele>156.14285714285714</ele><time>2026-04-18T07:34:01.929Z</time></trkpt><trkpt lat="43.7545022" lon="11.2582418"><ele>156.28571428571428</ele><time>2026-04-18T07:34:06.929Z</time></trkpt><trkpt lat="43.7545634" lon="11.2582051"><ele>156.42857142857142</ele><time>2026-04-18T07:34:22.93Z</time></trkpt><trkpt lat="43.754603" lon="11.2581348"><ele>156.57142857142856</ele><time>2026-04-18T07:34:29.929Z</time></trkpt><trkpt lat="43.7546147" lon="11.2580361"><ele>156.71428571428572</ele><time>2026-04-18T07:34:49.929Z</time></trkpt><trkpt lat="43.7546624" lon="11.2579676"><ele>156.85714285714283</ele><time>2026-04-18T07:34:58.929Z</time></trkpt><trkpt lat="43.7545751" lon="11.2580096"><ele>157.0</ele><time>2026-04-18T07:35:32.93Z</time></trkpt><trkpt lat="43.7544616" lon="11.2580738"><ele>156.79999999999998</ele><time>2026-04-18T07:36:17.929Z</time></trkpt><trkpt lat="43.7544011" lon="11.2581124"><ele>156.6</ele><time>2026-04-18T07:36:23.93Z</time></trkpt><trkpt lat="43.7543549" lon="11.2581734"><ele>156.39999999999998</ele><time>2026-04-18T07:37:23.929Z</time></trkpt><trkpt lat="43.7543712" lon="11.2582687"><ele>156.2</ele><time>2026-04-18T07:37:44.93Z</time></trkpt><trkpt lat="43.7543635" lon="11.2585405"><ele>156.0</ele><time>2026-04-18T07:38:49.58Z</time></trkpt><trkpt lat="43.7543298" lon="11.2582762"><ele>156.0</ele><time>2026-04-18T07:39:09.933Z</time></trkpt><trkpt lat="43.754347" lon="11.2584222"><ele>156.0</ele><time>2026-04-18T07:39:12.933Z</time></trkpt><trkpt lat="43.754321" lon="11.2585397"><ele>156.0</ele><time>2026-04-18T07:39:14.933Z</time></trkpt><trkpt lat="43.7542679" lon="11.2586358"><ele>156.0</ele><time>2026-04-18T07:39:20.933Z</time></trkpt><trkpt lat="43.7542795" lon="11.2587453"><ele>156.0</ele><time>2026-04-18T07:39:34.933Z</time></trkpt><trkpt lat="43.7542576" lon="11.258871"><ele>156.0</ele><time>2026-04-18T07:39:40.933Z</time></trkpt><trkpt lat="43.7542845" lon="11.2587503"><ele>156.0</ele><time>2026-04-18T07:39:51.934Z</time></trkpt><trkpt lat="43.7542994" lon="11.2586551"><ele>156.0</ele><time>2026-04-18T07:39:53.933Z</time></trkpt><trkpt lat="43.7543257" lon="11.2587425"><ele>156.0</ele><time>2026-04-18T07:39:56.933Z</time></trkpt><trkpt lat="43.7543897" lon="11.2586855"><ele>156.0</ele><time>2026-04-18T07:40:12.934Z</time></trkpt><trkpt lat="43.7543809" lon="11.2587731"><ele>156.0</ele><time>2026-04-18T07:40:45.933Z</time></trkpt><trkpt lat="43.7544472" lon="11.2588926"><ele>156.0</ele><time>2026-04-18T07:41:58.932Z</time></trkpt><trkpt lat="43.7544628" lon="11.2590054"><ele>156.0</ele><time>2026-04-18T07:42:02.932Z</time></trkpt><trkpt lat="43.7544041" lon="11.2590427"><ele>156.0</ele><time>2026-04-18T07:42:06.932Z</time></trkpt><trkpt lat="43.7543345" lon="11.259012"><ele>156.0</ele><time>2026-04-18T07:42:09.932Z</time></trkpt><trkpt lat="43.7542565" lon="11.2589509"><ele>156.0</ele><time>2026-04-18T07:42:12.933Z</time></trkpt><trkpt lat="43.7541913" lon="11.2589191"><ele>156.0</ele><time>2026-04-18T07:42:14.932Z</time></trkpt><trkpt lat="43.7541149" lon="11.2589019"><ele>156.0</ele><time>2026-04-18T07:42:17.932Z</time></trkpt><trkpt lat="43.7540497" lon="11.2588548"><ele>156.0</ele><time>2026-04-18T07:42:20.932Z</time></trkpt><trkpt lat="43.75399" lon="11.2587742"><ele>156.0</ele><time>2026-04-18T07:42:23.932Z</time></trkpt><trkpt lat="43.753961" lon="11.2586916"><ele>156.0</ele><time>2026-04-18T07:42:26.932Z</time></trkpt><trkpt lat="43.7539226" lon="11.2586171"><ele>156.0</ele><time>2026-04-18T07:42:29.933Z</time></trkpt><trkpt lat="43.7538779" lon="11.2585344"><ele>156.0</ele><time>2026-04-18T07:42:32.933Z</time></trkpt><trkpt lat="43.7538279" lon="11.2584526"><ele>156.0</ele><time>2026-04-18T07:42:35.932Z</time></trkpt><trkpt lat="43.7537866" lon="11.2583807"><ele>156.0</ele><time>2026-04-18T07:42:38.933Z</time></trkpt><trkpt lat="43.7537533" lon="11.2582933"><ele>156.0</ele><time>2026-04-18T07:42:41.933Z</time></trkpt><trkpt lat="43.7537083" lon="11.2582133"><ele>156.0</ele><time>2026-04-18T07:42:44.932Z</time></trkpt><trkpt lat="43.7536617" lon="11.25813"><ele>156.0</ele><time>2026-04-18T07:42:47.932Z</time></trkpt><trkpt lat="43.7536117" lon="11.2580583"><ele>156.0</ele><time>2026-04-18T07:42:50.932Z</time></trkpt><trkpt lat="43.75357" lon="11.257985"><ele>156.0</ele><time>2026-04-18T07:42:53.932Z</time></trkpt><trkpt lat="43.7535283" lon="11.2579017"><ele>156.0</ele><time>2026-04-18T07:42:56.932Z</time></trkpt><trkpt lat="43.75349" lon="11.2578283"><ele>155.71428571428572</ele><time>2026-04-18T07:42:59.932Z</time></trkpt><trkpt lat="43.7534467" lon="11.257745"><ele>155.42857142857142</ele><time>2026-04-18T07:43:03.932Z</time></trkpt><trkpt lat="43.7534017" lon="11.25765"><ele>155.14285714285714</ele><time>2026-04-18T07:43:07.932Z</time></trkpt><trkpt lat="43.7533667" lon="11.2575767"><ele>154.85714285714286</ele><time>2026-04-18T07:43:10.932Z</time></trkpt><trkpt lat="43.75333" lon="11.2575033"><ele>154.57142857142856</ele><time>2026-04-18T07:43:13.932Z</time></trkpt><trkpt lat="43.753285" lon="11.25741"><ele>154.28571428571428</ele><time>2026-04-18T07:43:17.933Z</time></trkpt><trkpt lat="43.7532383" lon="11.2573283"><ele>154.0</ele><time>2026-04-18T07:43:21.933Z</time></trkpt><trkpt lat="43.7531967" lon="11.2572483"><ele>154.0</ele><time>2026-04-18T07:43:25.932Z</time></trkpt><trkpt lat="43.7531533" lon="11.2571833"><ele>154.0</ele><time>2026-04-18T07:43:28.933Z</time></trkpt><trkpt lat="43.7530883" lon="11.257125"><ele>154.0</ele><time>2026-04-18T07:43:32.932Z</time></trkpt><trkpt lat="43.753015" lon="11.2570783"><ele>154.0</ele><time>2026-04-18T07:43:36.932Z</time></trkpt><trkpt lat="43.75294" lon="11.2570533"><ele>154.0</ele><time>2026-04-18T07:43:40.933Z</time></trkpt><trkpt lat="43.752875" lon="11.2570333"><ele>154.0</ele><time>2026-04-18T07:43:43.933Z</time></trkpt><trkpt lat="43.7527967" lon="11.257015"><ele>154.0</ele><time>2026-04-18T07:43:47.933Z</time></trkpt><trkpt lat="43.7527333" lon="11.257"><ele>156.28571428571428</ele><time>2026-04-18T07:43:50.932Z</time></trkpt><trkpt lat="43.7526667" lon="11.2569917"><ele>158.57142857142856</ele><time>2026-04-18T07:43:53.932Z</time></trkpt><trkpt lat="43.7525817" lon="11.2569717"><ele>160.85714285714286</ele><time>2026-04-18T07:43:57.932Z</time></trkpt><trkpt lat="43.7525183" lon="11.2569467"><ele>163.14285714285714</ele><time>2026-04-18T07:44:00.932Z</time></trkpt><trkpt lat="43.7524467" lon="11.2569033"><ele>165.42857142857142</ele><time>2026-04-18T07:44:04.932Z</time></trkpt><trkpt lat="43.7523783" lon="11.2568567"><ele>167.71428571428572</ele><time>2026-04-18T07:44:08.932Z</time></trkpt><trkpt lat="43.7523183" lon="11.2568117"><ele>170.0</ele><time>2026-04-18T07:44:11.932Z</time></trkpt><trkpt lat="43.7522433" lon="11.25676"><ele>170.0</ele><time>2026-04-18T07:44:14.932Z</time></trkpt><trkpt lat="43.7521633" lon="11.25672"><ele>170.0</ele><time>2026-04-18T07:44:17.932Z</time></trkpt><trkpt lat="43.7520933" lon="11.25666"><ele>170.0</ele><time>2026-04-18T07:44:20.932Z</time></trkpt><trkpt lat="43.7520133" lon="11.2566017"><ele>170.0</ele><time>2026-04-18T07:44:23.932Z</time></trkpt><trkpt lat="43.7519383" lon="11.25655"><ele>170.0</ele><time>2026-04-18T07:44:26.932Z</time></trkpt><trkpt lat="43.75186" lon="11.2564917"><ele>170.0</ele><time>2026-04-18T07:44:29.933Z</time></trkpt><trkpt lat="43.75178" lon="11.256435"><ele>169.83333333333331</ele><time>2026-04-18T07:44:32.932Z</time></trkpt><trkpt lat="43.7517083" lon="11.2563717"><ele>169.66666666666666</ele><time>2026-04-18T07:44:35.932Z</time></trkpt><trkpt lat="43.751645" lon="11.2563017"><ele>169.5</ele><time>2026-04-18T07:44:38.932Z</time></trkpt><trkpt lat="43.7515817" lon="11.2562717"><ele>169.33333333333334</ele><time>2026-04-18T07:44:41.933Z</time></trkpt><trkpt lat="43.751505" lon="11.256265"><ele>169.16666666666669</ele><time>2026-04-18T07:44:45.932Z</time></trkpt><trkpt lat="43.751435" lon="11.2562467"><ele>169.0</ele><time>2026-04-18T07:44:48.932Z</time></trkpt><trkpt lat="43.75135" lon="11.256245"><ele>169.0</ele><time>2026-04-18T07:44:51.932Z</time></trkpt><trkpt lat="43.7512783" lon="11.2562367"><ele>169.0</ele><time>2026-04-18T07:44:54.932Z</time></trkpt><trkpt lat="43.751215" lon="11.2562183"><ele>169.0</ele><time>2026-04-18T07:44:58.932Z</time></trkpt><trkpt lat="43.7511333" lon="11.2561067"><ele>169.0</ele><time>2026-04-18T07:45:23.932Z</time></trkpt><trkpt lat="43.7511617" lon="11.256005"><ele>169.0</ele><time>2026-04-18T07:45:27.933Z</time></trkpt><trkpt lat="43.751215" lon="11.2559017"><ele>169.0</ele><time>2026-04-18T07:45:30.932Z</time></trkpt><trkpt lat="43.751255" lon="11.2558283"><ele>169.0</ele><time>2026-04-18T07:45:32.932Z</time></trkpt><trkpt lat="43.7512917" lon="11.2557517"><ele>169.0</ele><time>2026-04-18T07:45:35.932Z</time></trkpt><trkpt lat="43.7513283" lon="11.2556617"><ele>169.0</ele><time>2026-04-18T07:45:37.932Z</time></trkpt><trkpt lat="43.75136" lon="11.2555833"><ele>169.0</ele><time>2026-04-18T07:45:39.932Z</time></trkpt><trkpt lat="43.751385" lon="11.2554867"><ele>169.0</ele><time>2026-04-18T07:45:41.932Z</time></trkpt><trkpt lat="43.751455" lon="11.2554033"><ele>169.0</ele><time>2026-04-18T07:45:43.932Z</time></trkpt><trkpt lat="43.7515167" lon="11.255305"><ele>169.0</ele><time>2026-04-18T07:45:45.932Z</time></trkpt><trkpt lat="43.751575" lon="11.2551783"><ele>169.0</ele><time>2026-04-18T07:45:47.932Z</time></trkpt><trkpt lat="43.751635" lon="11.255045"><ele>169.0</ele><time>2026-04-18T07:45:49.932Z</time></trkpt><trkpt lat="43.7516983" lon="11.2549217"><ele>169.0</ele><time>2026-04-18T07:45:51.932Z</time></trkpt><trkpt lat="43.7517283" lon="11.254805"><ele>169.0</ele><time>2026-04-18T07:45:53.932Z</time></trkpt><trkpt lat="43.7518167" lon="11.254705"><ele>167.0</ele><time>2026-04-18T07:45:55.932Z</time></trkpt><trkpt lat="43.7519" lon="11.2546233"><ele>165.0</ele><time>2026-04-18T07:45:57.932Z</time></trkpt><trkpt lat="43.7519883" lon="11.25456"><ele>163.0</ele><time>2026-04-18T07:45:59.932Z</time></trkpt><trkpt lat="43.7520467" lon="11.25451"><ele>161.0</ele><time>2026-04-18T07:46:01.932Z</time></trkpt><trkpt lat="43.7521083" lon="11.25442"><ele>159.0</ele><time>2026-04-18T07:46:04.932Z</time></trkpt><trkpt lat="43.752155" lon="11.254335"><ele>157.0</ele><time>2026-04-18T07:46:06.933Z</time></trkpt><trkpt lat="43.752165" lon="11.2542417"><ele>157.0</ele><time>2026-04-18T07:46:08.932Z</time></trkpt><trkpt lat="43.7522017" lon="11.254145"><ele>157.0</ele><time>2026-04-18T07:46:11.932Z</time></trkpt><trkpt lat="43.75223" lon="11.2540433"><ele>157.0</ele><time>2026-04-18T07:46:14.932Z</time></trkpt><trkpt lat="43.75223" lon="11.253955"><ele>157.0</ele><time>2026-04-18T07:46:16.932Z</time></trkpt><trkpt lat="43.75222" lon="11.2538633"><ele>157.0</ele><time>2026-04-18T07:46:19.932Z</time></trkpt><trkpt lat="43.7521883" lon="11.2537683"><ele>157.0</ele><time>2026-04-18T07:46:21.932Z</time></trkpt><trkpt lat="43.7521283" lon="11.2536517"><ele>156.6</ele><time>2026-04-18T07:46:23.932Z</time></trkpt><trkpt lat="43.7520483" lon="11.2535417"><ele>156.2</ele><time>2026-04-18T07:46:25.932Z</time></trkpt><trkpt lat="43.7519483" lon="11.2534233"><ele>155.8</ele><time>2026-04-18T07:46:27.932Z</time></trkpt><trkpt lat="43.75189" lon="11.25336"><ele>155.4</ele><time>2026-04-18T07:46:28.932Z</time></trkpt><trkpt lat="43.7518233" lon="11.2532933"><ele>155.0</ele><time>2026-04-18T07:46:29.933Z</time></trkpt><trkpt lat="43.7517467" lon="11.25322"><ele>155.0</ele><time>2026-04-18T07:46:30.933Z</time></trkpt><trkpt lat="43.7516717" lon="11.2531533"><ele>155.0</ele><time>2026-04-18T07:46:31.932Z</time></trkpt><trkpt lat="43.751595" lon="11.25309"><ele>155.0</ele><time>2026-04-18T07:46:32.933Z</time></trkpt><trkpt lat="43.7515217" lon="11.2530167"><ele>155.0</ele><time>2026-04-18T07:46:33.932Z</time></trkpt><trkpt lat="43.7514567" lon="11.2529483"><ele>155.0</ele><time>2026-04-18T07:46:34.933Z</time></trkpt><trkpt lat="43.7514017" lon="11.25288"><ele>155.0</ele><time>2026-04-18T07:46:35.932Z</time></trkpt><trkpt lat="43.7513483" lon="11.2528083"><ele>152.2</ele><time>2026-04-18T07:46:36.932Z</time></trkpt><trkpt lat="43.7513033" lon="11.252745"><ele>149.4</ele><time>2026-04-18T07:46:37.932Z</time></trkpt><trkpt lat="43.751235" lon="11.2526217"><ele>146.6</ele><time>2026-04-18T07:46:39.932Z</time></trkpt><trkpt lat="43.75118" lon="11.2525"><ele>143.8</ele><time>2026-04-18T07:46:41.933Z</time></trkpt><trkpt lat="43.7511233" lon="11.2523533"><ele>141.0</ele><time>2026-04-18T07:46:43.933Z</time></trkpt><trkpt lat="43.7510517" lon="11.252225"><ele>140.2</ele><time>2026-04-18T07:46:45.932Z</time></trkpt><trkpt lat="43.7509667" lon="11.2521433"><ele>139.39999999999998</ele><time>2026-04-18T07:46:47.933Z</time></trkpt><trkpt lat="43.7508883" lon="11.2520533"><ele>138.6</ele><time>2026-04-18T07:46:49.932Z</time></trkpt><trkpt lat="43.7508233" lon="11.2519933"><ele>137.79999999999998</ele><time>2026-04-18T07:46:51.932Z</time></trkpt><trkpt lat="43.7507467" lon="11.2519267"><ele>137.0</ele><time>2026-04-18T07:46:53.932Z</time></trkpt><trkpt lat="43.7506683" lon="11.2518433"><ele>137.0</ele><time>2026-04-18T07:46:55.932Z</time></trkpt><trkpt lat="43.7505917" lon="11.2517617"><ele>137.0</ele><time>2026-04-18T07:46:57.932Z</time></trkpt><trkpt lat="43.7505" lon="11.251685"><ele>137.0</ele><time>2026-04-18T07:46:59.933Z</time></trkpt><trkpt lat="43.750405" lon="11.2516083"><ele>137.0</ele><time>2026-04-18T07:47:01.932Z</time></trkpt><trkpt lat="43.7503183" lon="11.2515383"><ele>137.0</ele><time>2026-04-18T07:47:03.932Z</time></trkpt><trkpt lat="43.7502317" lon="11.25148"><ele>136.0</ele><time>2026-04-18T07:47:05.933Z</time></trkpt><trkpt lat="43.7501633" lon="11.2514383"><ele>135.0</ele><time>2026-04-18T07:47:07.933Z</time></trkpt><trkpt lat="43.75012" lon="11.2513467"><ele>134.0</ele><time>2026-04-18T07:47:10.933Z</time></trkpt><trkpt lat="43.7501367" lon="11.2512433"><ele>133.0</ele><time>2026-04-18T07:47:12.932Z</time></trkpt><trkpt lat="43.75018" lon="11.25116"><ele>132.0</ele><time>2026-04-18T07:47:14.932Z</time></trkpt><trkpt lat="43.750215" lon="11.2510467"><ele>131.0</ele><time>2026-04-18T07:47:16.932Z</time></trkpt><trkpt lat="43.7502533" lon="11.25092"><ele>130.33333333333331</ele><time>2026-04-18T07:47:18.932Z</time></trkpt><trkpt lat="43.75027" lon="11.2508283"><ele>129.66666666666666</ele><time>2026-04-18T07:47:19.933Z</time></trkpt><trkpt lat="43.7503083" lon="11.25065"><ele>129.0</ele><time>2026-04-18T07:47:21.932Z</time></trkpt><trkpt lat="43.7503333" lon="11.25056"><ele>128.33333333333334</ele><time>2026-04-18T07:47:22.932Z</time></trkpt><trkpt lat="43.750355" lon="11.2504583"><ele>127.66666666666667</ele><time>2026-04-18T07:47:23.932Z</time></trkpt><trkpt lat="43.750375" lon="11.2503517"><ele>127.0</ele><time>2026-04-18T07:47:24.932Z</time></trkpt><trkpt lat="43.7503933" lon="11.2502533"><ele>126.14285714285714</ele><time>2026-04-18T07:47:25.932Z</time></trkpt><trkpt lat="43.7504133" lon="11.2501617"><ele>125.28571428571428</ele><time>2026-04-18T07:47:26.932Z</time></trkpt><trkpt lat="43.7504333" lon="11.2500717"><ele>124.42857142857142</ele><time>2026-04-18T07:47:27.932Z</time></trkpt><trkpt lat="43.7504517" lon="11.249985"><ele>123.57142857142857</ele><time>2026-04-18T07:47:28.933Z</time></trkpt><trkpt lat="43.7504667" lon="11.249895"><ele>122.7142857142857</ele><time>2026-04-18T07:47:29.933Z</time></trkpt><trkpt lat="43.750485" lon="11.24976"><ele>121.85714285714285</ele><time>2026-04-18T07:47:31.932Z</time></trkpt><trkpt lat="43.7504833" lon="11.24966"><ele>121.0</ele><time>2026-04-18T07:47:33.932Z</time></trkpt><trkpt lat="43.7504533" lon="11.2495583"><ele>121.16666666666667</ele><time>2026-04-18T07:47:36.933Z</time></trkpt><trkpt lat="43.7504" lon="11.2494867"><ele>121.33333333333334</ele><time>2026-04-18T07:47:39.932Z</time></trkpt><trkpt lat="43.7503517" lon="11.2494133"><ele>121.5</ele><time>2026-04-18T07:47:41.932Z</time></trkpt><trkpt lat="43.7503067" lon="11.2493417"><ele>121.66666666666666</ele><time>2026-04-18T07:47:43.933Z</time></trkpt><trkpt lat="43.7502517" lon="11.2492567"><ele>121.83333333333333</ele><time>2026-04-18T07:47:46.932Z</time></trkpt><trkpt lat="43.7501933" lon="11.2491533"><ele>122.0</ele><time>2026-04-18T07:47:49.933Z</time></trkpt><trkpt lat="43.7501367" lon="11.24906"><ele>122.16666666666666</ele><time>2026-04-18T07:47:52.933Z</time></trkpt><trkpt lat="43.7500967" lon="11.2489517"><ele>122.33333333333333</ele><time>2026-04-18T07:47:55.932Z</time></trkpt><trkpt lat="43.7500467" lon="11.2488433"><ele>122.5</ele><time>2026-04-18T07:47:58.933Z</time></trkpt><trkpt lat="43.7499983" lon="11.2487467"><ele>122.66666666666666</ele><time>2026-04-18T07:48:01.932Z</time></trkpt><trkpt lat="43.7499667" lon="11.2486283"><ele>122.83333333333333</ele><time>2026-04-18T07:48:04.932Z</time></trkpt><trkpt lat="43.74993" lon="11.2485167"><ele>123.0</ele><time>2026-04-18T07:48:07.932Z</time></trkpt><trkpt lat="43.7498867" lon="11.248405"><ele>123.00000000000001</ele><time>2026-04-18T07:48:10.933Z</time></trkpt><trkpt lat="43.7498483" lon="11.2483167"><ele>123.0</ele><time>2026-04-18T07:48:13.932Z</time></trkpt><trkpt lat="43.7498167" lon="11.24824"><ele>123.00000000000001</ele><time>2026-04-18T07:48:16.932Z</time></trkpt><trkpt lat="43.7497783" lon="11.24817"><ele>123.00000000000001</ele><time>2026-04-18T07:48:19.932Z</time></trkpt><trkpt lat="43.7497483" lon="11.248065"><ele>123.0</ele><time>2026-04-18T07:48:22.932Z</time></trkpt><trkpt lat="43.7497183" lon="11.2479817"><ele>123.00000000000001</ele><time>2026-04-18T07:48:24.932Z</time></trkpt><trkpt lat="43.7497017" lon="11.2478917"><ele>123.00000000000001</ele><time>2026-04-18T07:48:26.933Z</time></trkpt><trkpt lat="43.7496817" lon="11.2477667"><ele>122.57142857142858</ele><time>2026-04-18T07:48:29.932Z</time></trkpt><trkpt lat="43.7496633" lon="11.2476833"><ele>122.14285714285714</ele><time>2026-04-18T07:48:31.932Z</time></trkpt><trkpt lat="43.74964" lon="11.2475683"><ele>121.71428571428572</ele><time>2026-04-18T07:48:34.932Z</time></trkpt><trkpt lat="43.7496233" lon="11.24747"><ele>121.28571428571429</ele><time>2026-04-18T07:48:37.932Z</time></trkpt><trkpt lat="43.7496033" lon="11.247345"><ele>120.85714285714286</ele><time>2026-04-18T07:48:40.932Z</time></trkpt><trkpt lat="43.7495783" lon="11.24726"><ele>120.42857142857143</ele><time>2026-04-18T07:48:42.932Z</time></trkpt><trkpt lat="43.7495517" lon="11.24718"><ele>120.0</ele><time>2026-04-18T07:48:44.932Z</time></trkpt><trkpt lat="43.7495283" lon="11.2470983"><ele>119.33333333333333</ele><time>2026-04-18T07:48:46.932Z</time></trkpt><trkpt lat="43.7494917" lon="11.246995"><ele>118.66666666666666</ele><time>2026-04-18T07:48:49.932Z</time></trkpt><trkpt lat="43.749455" lon="11.2468983"><ele>118.0</ele><time>2026-04-18T07:48:52.932Z</time></trkpt><trkpt lat="43.749415" lon="11.2468033"><ele>117.33333333333333</ele><time>2026-04-18T07:48:56.932Z</time></trkpt><trkpt lat="43.7493583" lon="11.2467333"><ele>116.66666666666666</ele><time>2026-04-18T07:49:02.932Z</time></trkpt><trkpt lat="43.7493117" lon="11.24662"><ele>116.0</ele><time>2026-04-18T07:49:10.932Z</time></trkpt><trkpt lat="43.7492867" lon="11.2465117"><ele>116.99999999999999</ele><time>2026-04-18T07:49:12.932Z</time></trkpt><trkpt lat="43.7492517" lon="11.2463783"><ele>118.0</ele><time>2026-04-18T07:49:14.932Z</time></trkpt><trkpt lat="43.749225" lon="11.2462583"><ele>119.0</ele><time>2026-04-18T07:49:16.933Z</time></trkpt><trkpt lat="43.7491933" lon="11.24613"><ele>120.0</ele><time>2026-04-18T07:49:18.932Z</time></trkpt><trkpt lat="43.7492017" lon="11.2460333"><ele>120.99999999999999</ele><time>2026-04-18T07:49:22.932Z</time></trkpt><trkpt lat="43.749155" lon="11.2459417"><ele>122.0</ele><time>2026-04-18T07:49:26.932Z</time></trkpt><trkpt lat="43.7491267" lon="11.2458367"><ele>122.0</ele><time>2026-04-18T07:49:28.932Z</time></trkpt><trkpt lat="43.7491083" lon="11.245705"><ele>121.99999999999999</ele><time>2026-04-18T07:49:30.932Z</time></trkpt><trkpt lat="43.749075" lon="11.2455633"><ele>121.99999999999999</ele><time>2026-04-18T07:49:32.933Z</time></trkpt><trkpt lat="43.7490417" lon="11.24542"><ele>122.0</ele><time>2026-04-18T07:49:34.932Z</time></trkpt><trkpt lat="43.7490133" lon="11.24527"><ele>122.0</ele><time>2026-04-18T07:49:36.933Z</time></trkpt><trkpt lat="43.7489833" lon="11.24513"><ele>121.83333333333333</ele><time>2026-04-18T07:49:38.932Z</time></trkpt><trkpt lat="43.74896" lon="11.245"><ele>121.66666666666666</ele><time>2026-04-18T07:49:40.932Z</time></trkpt><trkpt lat="43.7489733" lon="11.2448933"><ele>121.5</ele><time>2026-04-18T07:49:42.932Z</time></trkpt><trkpt lat="43.7489767" lon="11.2447817"><ele>121.33333333333334</ele><time>2026-04-18T07:49:44.933Z</time></trkpt><trkpt lat="43.7489717" lon="11.2446783"><ele>121.16666666666667</ele><time>2026-04-18T07:49:46.932Z</time></trkpt><trkpt lat="43.7489683" lon="11.24457"><ele>121.0</ele><time>2026-04-18T07:49:48.932Z</time></trkpt><trkpt lat="43.74895" lon="11.244455"><ele>121.00000000000001</ele><time>2026-04-18T07:49:50.932Z</time></trkpt><trkpt lat="43.7489283" lon="11.244335"><ele>121.0</ele><time>2026-04-18T07:49:52.933Z</time></trkpt><trkpt lat="43.7488933" lon="11.244225"><ele>121.0</ele><time>2026-04-18T07:49:54.932Z</time></trkpt><trkpt lat="43.7488667" lon="11.2441133"><ele>121.0</ele><time>2026-04-18T07:49:56.932Z</time></trkpt><trkpt lat="43.7488383" lon="11.2440083"><ele>121.00000000000001</ele><time>2026-04-18T07:49:58.932Z</time></trkpt><trkpt lat="43.748795" lon="11.2439017"><ele>121.0</ele><time>2026-04-18T07:50:00.933Z</time></trkpt><trkpt lat="43.7487483" lon="11.2437933"><ele>120.50000000000001</ele><time>2026-04-18T07:50:02.933Z</time></trkpt><trkpt lat="43.7486967" lon="11.2436917"><ele>120.0</ele><time>2026-04-18T07:50:04.932Z</time></trkpt><trkpt lat="43.74865" lon="11.243585"><ele>119.5</ele><time>2026-04-18T07:50:06.933Z</time></trkpt><trkpt lat="43.7486083" lon="11.243475"><ele>119.0</ele><time>2026-04-18T07:50:08.932Z</time></trkpt><trkpt lat="43.74857" lon="11.24338"><ele>118.50000000000001</ele><time>2026-04-18T07:50:10.933Z</time></trkpt><trkpt lat="43.7485333" lon="11.2432933"><ele>118.0</ele><time>2026-04-18T07:50:12.933Z</time></trkpt><trkpt lat="43.7484883" lon="11.2432067"><ele>118.0</ele><time>2026-04-18T07:50:14.932Z</time></trkpt><trkpt lat="43.7484633" lon="11.24312"><ele>118.0</ele><time>2026-04-18T07:50:16.933Z</time></trkpt><trkpt lat="43.748435" lon="11.2430383"><ele>118.0</ele><time>2026-04-18T07:50:18.932Z</time></trkpt><trkpt lat="43.74841" lon="11.2429583"><ele>118.0</ele><time>2026-04-18T07:50:20.933Z</time></trkpt><trkpt lat="43.7483717" lon="11.2428517"><ele>118.0</ele><time>2026-04-18T07:50:23.932Z</time></trkpt><trkpt lat="43.7483433" lon="11.242755"><ele>118.0</ele><time>2026-04-18T07:50:25.932Z</time></trkpt><trkpt lat="43.7483133" lon="11.242645"><ele>118.0</ele><time>2026-04-18T07:50:27.932Z</time></trkpt><trkpt lat="43.7482833" lon="11.242555"><ele>118.00000000000001</ele><time>2026-04-18T07:50:29.932Z</time></trkpt><trkpt lat="43.748265" lon="11.2424417"><ele>118.0</ele><time>2026-04-18T07:50:31.933Z</time></trkpt><trkpt lat="43.7482567" lon="11.24234"><ele>118.0</ele><time>2026-04-18T07:50:33.932Z</time></trkpt><trkpt lat="43.74823" lon="11.2422433"><ele>118.0</ele><time>2026-04-18T07:50:35.932Z</time></trkpt><trkpt lat="43.7481817" lon="11.24214"><ele>118.00000000000001</ele><time>2026-04-18T07:50:37.933Z</time></trkpt><trkpt lat="43.74814" lon="11.2420267"><ele>118.0</ele><time>2026-04-18T07:50:39.932Z</time></trkpt><trkpt lat="43.7480983" lon="11.2419233"><ele>117.0</ele><time>2026-04-18T07:50:41.932Z</time></trkpt><trkpt lat="43.7480483" lon="11.241795"><ele>116.00000000000001</ele><time>2026-04-18T07:50:43.932Z</time></trkpt><trkpt lat="43.748005" lon="11.2416767"><ele>115.00000000000001</ele><time>2026-04-18T07:50:45.932Z</time></trkpt><trkpt lat="43.7479633" lon="11.2415617"><ele>114.0</ele><time>2026-04-18T07:50:47.932Z</time></trkpt><trkpt lat="43.7479317" lon="11.2414333"><ele>113.0</ele><time>2026-04-18T07:50:49.932Z</time></trkpt><trkpt lat="43.7478917" lon="11.241315"><ele>113.33333333333333</ele><time>2026-04-18T07:50:51.933Z</time></trkpt><trkpt lat="43.7478483" lon="11.241185"><ele>113.66666666666666</ele><time>2026-04-18T07:50:53.932Z</time></trkpt><trkpt lat="43.7478083" lon="11.2410583"><ele>114.0</ele><time>2026-04-18T07:50:55.932Z</time></trkpt><trkpt lat="43.7477667" lon="11.2409633"><ele>114.33333333333334</ele><time>2026-04-18T07:50:57.932Z</time></trkpt><trkpt lat="43.7477283" lon="11.2408817"><ele>114.66666666666667</ele><time>2026-04-18T07:50:59.932Z</time></trkpt><trkpt lat="43.7477083" lon="11.2407833"><ele>115.0</ele><time>2026-04-18T07:51:01.932Z</time></trkpt><trkpt lat="43.7476533" lon="11.240665"><ele>115.2</ele><time>2026-04-18T07:51:03.932Z</time></trkpt><trkpt lat="43.747595" lon="11.2405417"><ele>115.4</ele><time>2026-04-18T07:51:05.932Z</time></trkpt><trkpt lat="43.7475433" lon="11.24044"><ele>115.6</ele><time>2026-04-18T07:51:07.932Z</time></trkpt><trkpt lat="43.7474917" lon="11.2403483"><ele>115.8</ele><time>2026-04-18T07:51:09.932Z</time></trkpt><trkpt lat="43.7474167" lon="11.24026"><ele>116.0</ele><time>2026-04-18T07:51:11.932Z</time></trkpt><trkpt lat="43.74735" lon="11.2401917"><ele>115.99999999999999</ele><time>2026-04-18T07:51:13.932Z</time></trkpt><trkpt lat="43.7472783" lon="11.2401283"><ele>116.0</ele><time>2026-04-18T07:51:15.932Z</time></trkpt><trkpt lat="43.74721" lon="11.2400533"><ele>116.0</ele><time>2026-04-18T07:51:17.932Z</time></trkpt><trkpt lat="43.7471483" lon="11.239975"><ele>116.0</ele><time>2026-04-18T07:51:19.932Z</time></trkpt><trkpt lat="43.7470833" lon="11.2398933"><ele>115.99999999999999</ele><time>2026-04-18T07:51:21.932Z</time></trkpt><trkpt lat="43.7470117" lon="11.2398233"><ele>116.0</ele><time>2026-04-18T07:51:23.932Z</time></trkpt><trkpt lat="43.7469433" lon="11.2397617"><ele>116.99999999999999</ele><time>2026-04-18T07:51:25.932Z</time></trkpt><trkpt lat="43.7468717" lon="11.2397067"><ele>118.0</ele><time>2026-04-18T07:51:27.932Z</time></trkpt><trkpt lat="43.7468083" lon="11.2396567"><ele>119.0</ele><time>2026-04-18T07:51:29.933Z</time></trkpt><trkpt lat="43.7467417" lon="11.2396267"><ele>120.0</ele><time>2026-04-18T07:51:31.932Z</time></trkpt><trkpt lat="43.746665" lon="11.2396117"><ele>120.99999999999999</ele><time>2026-04-18T07:51:33.932Z</time></trkpt><trkpt lat="43.7465983" lon="11.2396"><ele>122.0</ele><time>2026-04-18T07:51:35.933Z</time></trkpt><trkpt lat="43.74651" lon="11.2395967"><ele>121.99999999999999</ele><time>2026-04-18T07:51:38.933Z</time></trkpt><trkpt lat="43.74643" lon="11.23962"><ele>122.0</ele><time>2026-04-18T07:51:40.932Z</time></trkpt><trkpt lat="43.746365" lon="11.23964"><ele>122.0</ele><time>2026-04-18T07:51:42.933Z</time></trkpt><trkpt lat="43.7462917" lon="11.2396617"><ele>122.0</ele><time>2026-04-18T07:51:44.932Z</time></trkpt><trkpt lat="43.7462117" lon="11.2397083"><ele>121.99999999999999</ele><time>2026-04-18T07:51:46.932Z</time></trkpt><trkpt lat="43.7461083" lon="11.23977"><ele>122.0</ele><time>2026-04-18T07:51:48.932Z</time></trkpt><trkpt lat="43.7460217" lon="11.23984"><ele>121.19999999999999</ele><time>2026-04-18T07:51:50.932Z</time></trkpt><trkpt lat="43.7459267" lon="11.23992"><ele>120.39999999999999</ele><time>2026-04-18T07:51:52.933Z</time></trkpt><trkpt lat="43.74584" lon="11.23999"><ele>119.60000000000001</ele><time>2026-04-18T07:51:54.932Z</time></trkpt><trkpt lat="43.7457483" lon="11.2400583"><ele>118.80000000000001</ele><time>2026-04-18T07:51:56.932Z</time></trkpt><trkpt lat="43.7456533" lon="11.2401283"><ele>118.0</ele><time>2026-04-18T07:51:58.932Z</time></trkpt><trkpt lat="43.7455417" lon="11.24019"><ele>118.00000000000001</ele><time>2026-04-18T07:52:00.932Z</time></trkpt><trkpt lat="43.7454133" lon="11.2402083"><ele>118.0</ele><time>2026-04-18T07:52:02.932Z</time></trkpt><trkpt lat="43.745345" lon="11.24019"><ele>118.0</ele><time>2026-04-18T07:52:03.932Z</time></trkpt><trkpt lat="43.7452733" lon="11.2401633"><ele>118.0</ele><time>2026-04-18T07:52:04.932Z</time></trkpt><trkpt lat="43.7452033" lon="11.2401367"><ele>118.00000000000001</ele><time>2026-04-18T07:52:05.933Z</time></trkpt><trkpt lat="43.74514" lon="11.240105"><ele>118.0</ele><time>2026-04-18T07:52:06.932Z</time></trkpt><trkpt lat="43.7450817" lon="11.2400633"><ele>117.42857142857142</ele><time>2026-04-18T07:52:07.933Z</time></trkpt><trkpt lat="43.7450217" lon="11.240015"><ele>116.85714285714286</ele><time>2026-04-18T07:52:08.933Z</time></trkpt><trkpt lat="43.744955" lon="11.2399733"><ele>116.28571428571428</ele><time>2026-04-18T07:52:09.932Z</time></trkpt><trkpt lat="43.7448883" lon="11.2399283"><ele>115.71428571428571</ele><time>2026-04-18T07:52:10.932Z</time></trkpt><trkpt lat="43.74482" lon="11.2398783"><ele>115.14285714285714</ele><time>2026-04-18T07:52:11.932Z</time></trkpt><trkpt lat="43.7447567" lon="11.2398367"><ele>114.57142857142857</ele><time>2026-04-18T07:52:12.933Z</time></trkpt><trkpt lat="43.7446883" lon="11.23979"><ele>114.0</ele><time>2026-04-18T07:52:13.932Z</time></trkpt><trkpt lat="43.7446183" lon="11.2397433"><ele>114.0</ele><time>2026-04-18T07:52:14.933Z</time></trkpt><trkpt lat="43.7445483" lon="11.2396933"><ele>114.0</ele><time>2026-04-18T07:52:15.932Z</time></trkpt><trkpt lat="43.74448" lon="11.2396467"><ele>114.0</ele><time>2026-04-18T07:52:16.932Z</time></trkpt><trkpt lat="43.7444083" lon="11.239605"><ele>114.0</ele><time>2026-04-18T07:52:17.932Z</time></trkpt><trkpt lat="43.7443417" lon="11.2395617"><ele>114.0</ele><time>2026-04-18T07:52:18.932Z</time></trkpt><trkpt lat="43.7442667" lon="11.2395317"><ele>114.0</ele><time>2026-04-18T07:52:19.932Z</time></trkpt><trkpt lat="43.7441917" lon="11.2395083"><ele>112.66666666666667</ele><time>2026-04-18T07:52:20.932Z</time></trkpt><trkpt lat="43.7441083" lon="11.23949"><ele>111.33333333333334</ele><time>2026-04-18T07:52:21.932Z</time></trkpt><trkpt lat="43.7440317" lon="11.2394767"><ele>110.0</ele><time>2026-04-18T07:52:22.932Z</time></trkpt><trkpt lat="43.7439517" lon="11.23948"><ele>108.66666666666667</ele><time>2026-04-18T07:52:23.932Z</time></trkpt><trkpt lat="43.7438733" lon="11.2394833"><ele>107.33333333333334</ele><time>2026-04-18T07:52:24.932Z</time></trkpt><trkpt lat="43.7438" lon="11.23949"><ele>106.0</ele><time>2026-04-18T07:52:25.933Z</time></trkpt><trkpt lat="43.743725" lon="11.2395033"><ele>106.0</ele><time>2026-04-18T07:52:26.933Z</time></trkpt><trkpt lat="43.74366" lon="11.2395133"><ele>106.0</ele><time>2026-04-18T07:52:27.932Z</time></trkpt><trkpt lat="43.7435933" lon="11.2395383"><ele>106.0</ele><time>2026-04-18T07:52:28.933Z</time></trkpt><trkpt lat="43.7435283" lon="11.239565"><ele>106.0</ele><time>2026-04-18T07:52:29.932Z</time></trkpt><trkpt lat="43.7434633" lon="11.2395867"><ele>106.0</ele><time>2026-04-18T07:52:30.932Z</time></trkpt><trkpt lat="43.743395" lon="11.23962"><ele>106.0</ele><time>2026-04-18T07:52:31.932Z</time></trkpt><trkpt lat="43.7433233" lon="11.2396633"><ele>106.0</ele><time>2026-04-18T07:52:32.933Z</time></trkpt><trkpt lat="43.7432483" lon="11.239705"><ele>105.16666666666667</ele><time>2026-04-18T07:52:33.932Z</time></trkpt><trkpt lat="43.7431767" lon="11.2397517"><ele>104.33333333333334</ele><time>2026-04-18T07:52:34.932Z</time></trkpt><trkpt lat="43.7431067" lon="11.2397883"><ele>103.5</ele><time>2026-04-18T07:52:35.932Z</time></trkpt><trkpt lat="43.74304" lon="11.239815"><ele>102.66666666666666</ele><time>2026-04-18T07:52:36.932Z</time></trkpt><trkpt lat="43.74297" lon="11.2398483"><ele>101.83333333333333</ele><time>2026-04-18T07:52:37.933Z</time></trkpt><trkpt lat="43.742895" lon="11.23989"><ele>101.0</ele><time>2026-04-18T07:52:38.932Z</time></trkpt><trkpt lat="43.742825" lon="11.2399217"><ele>101.0</ele><time>2026-04-18T07:52:39.932Z</time></trkpt><trkpt lat="43.7427583" lon="11.23994"><ele>101.0</ele><time>2026-04-18T07:52:40.933Z</time></trkpt><trkpt lat="43.7426883" lon="11.2399583"><ele>101.0</ele><time>2026-04-18T07:52:41.932Z</time></trkpt><trkpt lat="43.742625" lon="11.2399633"><ele>101.0</ele><time>2026-04-18T07:52:42.932Z</time></trkpt><trkpt lat="43.7425567" lon="11.239965"><ele>101.0</ele><time>2026-04-18T07:52:43.932Z</time></trkpt><trkpt lat="43.7424883" lon="11.2399667"><ele>101.0</ele><time>2026-04-18T07:52:44.933Z</time></trkpt><trkpt lat="43.742395" lon="11.239955"><ele>101.0</ele><time>2026-04-18T07:52:45.932Z</time></trkpt><trkpt lat="43.7422933" lon="11.2399433"><ele>99.8</ele><time>2026-04-18T07:52:46.932Z</time></trkpt><trkpt lat="43.74219" lon="11.2399367"><ele>98.6</ele><time>2026-04-18T07:52:47.933Z</time></trkpt><trkpt lat="43.7420967" lon="11.239925"><ele>97.4</ele><time>2026-04-18T07:52:48.933Z</time></trkpt><trkpt lat="43.742" lon="11.2399217"><ele>96.2</ele><time>2026-04-18T07:52:49.932Z</time></trkpt><trkpt lat="43.741915" lon="11.2399167"><ele>95.0</ele><time>2026-04-18T07:52:50.932Z</time></trkpt><trkpt lat="43.74184" lon="11.2399083"><ele>93.57142857142857</ele><time>2026-04-18T07:52:51.932Z</time></trkpt><trkpt lat="43.7417633" lon="11.2399"><ele>92.14285714285714</ele><time>2026-04-18T07:52:52.932Z</time></trkpt><trkpt lat="43.74169" lon="11.2398983"><ele>90.71428571428572</ele><time>2026-04-18T07:52:53.932Z</time></trkpt><trkpt lat="43.7416167" lon="11.239895"><ele>89.28571428571428</ele><time>2026-04-18T07:52:54.933Z</time></trkpt><trkpt lat="43.74155" lon="11.2398833"><ele>87.85714285714285</ele><time>2026-04-18T07:52:55.932Z</time></trkpt><trkpt lat="43.7414783" lon="11.2398767"><ele>86.42857142857143</ele><time>2026-04-18T07:52:56.932Z</time></trkpt><trkpt lat="43.7414033" lon="11.2398683"><ele>85.0</ele><time>2026-04-18T07:52:57.932Z</time></trkpt><trkpt lat="43.7413317" lon="11.2398567"><ele>85.0</ele><time>2026-04-18T07:52:58.932Z</time></trkpt><trkpt lat="43.7412533" lon="11.239855"><ele>85.0</ele><time>2026-04-18T07:52:59.932Z</time></trkpt><trkpt lat="43.741185" lon="11.2398417"><ele>85.0</ele><time>2026-04-18T07:53:00.932Z</time></trkpt><trkpt lat="43.7411067" lon="11.2398383"><ele>85.0</ele><time>2026-04-18T07:53:01.933Z</time></trkpt><trkpt lat="43.7410317" lon="11.2398333"><ele>85.0</ele><time>2026-04-18T07:53:02.933Z</time></trkpt><trkpt lat="43.7409517" lon="11.2398283"><ele>85.0</ele><time>2026-04-18T07:53:03.933Z</time></trkpt><trkpt lat="43.740875" lon="11.2398217"><ele>84.16666666666666</ele><time>2026-04-18T07:53:04.932Z</time></trkpt><trkpt lat="43.7407933" lon="11.2398283"><ele>83.33333333333333</ele><time>2026-04-18T07:53:05.933Z</time></trkpt><trkpt lat="43.740715" lon="11.2398283"><ele>82.5</ele><time>2026-04-18T07:53:06.932Z</time></trkpt><trkpt lat="43.7406383" lon="11.2398183"><ele>81.66666666666667</ele><time>2026-04-18T07:53:07.933Z</time></trkpt><trkpt lat="43.7405567" lon="11.239815"><ele>80.83333333333334</ele><time>2026-04-18T07:53:08.932Z</time></trkpt><trkpt lat="43.74048" lon="11.2398117"><ele>80.0</ele><time>2026-04-18T07:53:09.932Z</time></trkpt><trkpt lat="43.7404067" lon="11.2398083"><ele>79.42857142857143</ele><time>2026-04-18T07:53:10.933Z</time></trkpt><trkpt lat="43.7403367" lon="11.2397967"><ele>78.85714285714286</ele><time>2026-04-18T07:53:11.932Z</time></trkpt><trkpt lat="43.74027" lon="11.2397783"><ele>78.28571428571428</ele><time>2026-04-18T07:53:12.932Z</time></trkpt><trkpt lat="43.7402083" lon="11.2397467"><ele>77.71428571428572</ele><time>2026-04-18T07:53:13.932Z</time></trkpt><trkpt lat="43.7401433" lon="11.2396983"><ele>77.14285714285715</ele><time>2026-04-18T07:53:14.932Z</time></trkpt><trkpt lat="43.7400767" lon="11.2396433"><ele>76.57142857142857</ele><time>2026-04-18T07:53:15.932Z</time></trkpt><trkpt lat="43.7400167" lon="11.2395983"><ele>76.0</ele><time>2026-04-18T07:53:16.933Z</time></trkpt><trkpt lat="43.73991" lon="11.23952"><ele>75.39999999999999</ele><time>2026-04-18T07:53:18.932Z</time></trkpt><trkpt lat="43.7398067" lon="11.2394667"><ele>74.8</ele><time>2026-04-18T07:53:20.932Z</time></trkpt><trkpt lat="43.7397117" lon="11.239425"><ele>74.19999999999999</ele><time>2026-04-18T07:53:22.932Z</time></trkpt><trkpt lat="43.739625" lon="11.239405"><ele>73.6</ele><time>2026-04-18T07:53:26.932Z</time></trkpt><trkpt lat="43.73954" lon="11.2393433"><ele>73.0</ele><time>2026-04-18T07:53:29.932Z</time></trkpt><trkpt lat="43.7394683" lon="11.2392517"><ele>71.8</ele><time>2026-04-18T07:53:31.932Z</time></trkpt><trkpt lat="43.73938" lon="11.2391283"><ele>70.6</ele><time>2026-04-18T07:53:33.933Z</time></trkpt><trkpt lat="43.7393183" lon="11.2389783"><ele>69.4</ele><time>2026-04-18T07:53:35.933Z</time></trkpt><trkpt lat="43.739285" lon="11.23889"><ele>68.2</ele><time>2026-04-18T07:53:36.932Z</time></trkpt><trkpt lat="43.739265" lon="11.2387917"><ele>67.0</ele><time>2026-04-18T07:53:37.932Z</time></trkpt><trkpt lat="43.739245" lon="11.238695"><ele>66.83333333333333</ele><time>2026-04-18T07:53:38.933Z</time></trkpt><trkpt lat="43.7392233" lon="11.2386067"><ele>66.66666666666666</ele><time>2026-04-18T07:53:39.932Z</time></trkpt><trkpt lat="43.73918" lon="11.2384617"><ele>66.5</ele><time>2026-04-18T07:53:41.932Z</time></trkpt><trkpt lat="43.7391567" lon="11.23836"><ele>66.33333333333333</ele><time>2026-04-18T07:53:43.932Z</time></trkpt><trkpt lat="43.7391083" lon="11.2382767"><ele>66.16666666666667</ele><time>2026-04-18T07:53:46.932Z</time></trkpt><trkpt lat="43.7390267" lon="11.23827"><ele>66.0</ele><time>2026-04-18T07:53:48.933Z</time></trkpt><trkpt lat="43.7389333" lon="11.238265"><ele>66.0</ele><time>2026-04-18T07:53:50.932Z</time></trkpt><trkpt lat="43.7388383" lon="11.23824"><ele>66.0</ele><time>2026-04-18T07:53:52.933Z</time></trkpt><trkpt lat="43.7387483" lon="11.2382383"><ele>66.0</ele><time>2026-04-18T07:53:54.932Z</time></trkpt><trkpt lat="43.7386683" lon="11.2382333"><ele>66.0</ele><time>2026-04-18T07:53:56.932Z</time></trkpt><trkpt lat="43.7385867" lon="11.238225"><ele>66.0</ele><time>2026-04-18T07:53:58.932Z</time></trkpt><trkpt lat="43.7385067" lon="11.2382033"><ele>66.0</ele><time>2026-04-18T07:54:00.932Z</time></trkpt><trkpt lat="43.738415" lon="11.238185"><ele>65.39999999999999</ele><time>2026-04-18T07:54:02.932Z</time></trkpt><trkpt lat="43.738315" lon="11.238165"><ele>64.8</ele><time>2026-04-18T07:54:04.933Z</time></trkpt><trkpt lat="43.73822" lon="11.2381583"><ele>64.19999999999999</ele><time>2026-04-18T07:54:06.932Z</time></trkpt><trkpt lat="43.7381217" lon="11.2381667"><ele>63.599999999999994</ele><time>2026-04-18T07:54:08.932Z</time></trkpt><trkpt lat="43.7380283" lon="11.2382083"><ele>63.0</ele><time>2026-04-18T07:54:10.932Z</time></trkpt><trkpt lat="43.737935" lon="11.238245"><ele>63.0</ele><time>2026-04-18T07:54:12.932Z</time></trkpt><trkpt lat="43.7378467" lon="11.2382733"><ele>63.0</ele><time>2026-04-18T07:54:14.932Z</time></trkpt><trkpt lat="43.7377633" lon="11.2383167"><ele>63.0</ele><time>2026-04-18T07:54:16.933Z</time></trkpt><trkpt lat="43.737675" lon="11.2383567"><ele>63.0</ele><time>2026-04-18T07:54:18.932Z</time></trkpt><trkpt lat="43.73759" lon="11.238385"><ele>63.0</ele><time>2026-04-18T07:54:20.933Z</time></trkpt><trkpt lat="43.7375017" lon="11.23842"><ele>62.714285714285715</ele><time>2026-04-18T07:54:22.933Z</time></trkpt><trkpt lat="43.73743" lon="11.2384583"><ele>62.42857142857143</ele><time>2026-04-18T07:54:24.932Z</time></trkpt><trkpt lat="43.737365" lon="11.2384967"><ele>62.14285714285714</ele><time>2026-04-18T07:54:26.932Z</time></trkpt><trkpt lat="43.737295" lon="11.2385183"><ele>61.857142857142854</ele><time>2026-04-18T07:54:28.932Z</time></trkpt><trkpt lat="43.7372233" lon="11.238525"><ele>61.57142857142857</ele><time>2026-04-18T07:54:30.932Z</time></trkpt><trkpt lat="43.737155" lon="11.238535"><ele>61.28571428571428</ele><time>2026-04-18T07:54:32.932Z</time></trkpt><trkpt lat="43.73708" lon="11.2385467"><ele>60.99999999999999</ele><time>2026-04-18T07:54:34.933Z</time></trkpt><trkpt lat="43.7370133" lon="11.2385617"><ele>60.99999999999999</ele><time>2026-04-18T07:54:36.932Z</time></trkpt><trkpt lat="43.7369267" lon="11.238585"><ele>61.0</ele><time>2026-04-18T07:54:39.932Z</time></trkpt><trkpt lat="43.73686" lon="11.23861"><ele>60.99999999999999</ele><time>2026-04-18T07:54:41.932Z</time></trkpt><trkpt lat="43.7367917" lon="11.23863"><ele>60.99999999999999</ele><time>2026-04-18T07:54:44.933Z</time></trkpt><trkpt lat="43.7367183" lon="11.2386533"><ele>61.0</ele><time>2026-04-18T07:54:48.932Z</time></trkpt><trkpt lat="43.736655" lon="11.2386667"><ele>60.99999999999999</ele><time>2026-04-18T07:54:51.932Z</time></trkpt><trkpt lat="43.7365833" lon="11.2386683"><ele>60.99999999999999</ele><time>2026-04-18T07:54:55.932Z</time></trkpt><trkpt lat="43.7365067" lon="11.2386483"><ele>61.599999999999994</ele><time>2026-04-18T07:54:59.933Z</time></trkpt><trkpt lat="43.7364317" lon="11.2386533"><ele>62.199999999999996</ele><time>2026-04-18T07:55:03.932Z</time></trkpt><trkpt lat="43.73636" lon="11.2386317"><ele>62.800000000000004</ele><time>2026-04-18T07:55:07.932Z</time></trkpt><trkpt lat="43.7362467" lon="11.2386183"><ele>63.400000000000006</ele><time>2026-04-18T07:55:15.932Z</time></trkpt><trkpt lat="43.7361233" lon="11.238635"><ele>64.0</ele><time>2026-04-18T07:55:24.933Z</time></trkpt><trkpt lat="43.7360117" lon="11.23863"><ele>65.66666666666666</ele><time>2026-04-18T07:55:31.932Z</time></trkpt><trkpt lat="43.73592" lon="11.2386383"><ele>67.33333333333333</ele><time>2026-04-18T07:55:38.932Z</time></trkpt><trkpt lat="43.735855" lon="11.2386517"><ele>69.0</ele><time>2026-04-18T07:55:42.932Z</time></trkpt><trkpt lat="43.7357783" lon="11.2386867"><ele>70.66666666666667</ele><time>2026-04-18T07:55:49.933Z</time></trkpt><trkpt lat="43.7357167" lon="11.2387267"><ele>72.33333333333334</ele><time>2026-04-18T07:55:55.932Z</time></trkpt><trkpt lat="43.7356117" lon="11.2387817"><ele>74.0</ele><time>2026-04-18T07:56:09.932Z</time></trkpt><trkpt lat="43.7354867" lon="11.2388783"><ele>75.0</ele><time>2026-04-18T07:56:22.933Z</time></trkpt><trkpt lat="43.7354733" lon="11.2390533"><ele>76.0</ele><time>2026-04-18T07:56:33.932Z</time></trkpt><trkpt lat="43.735525" lon="11.2392"><ele>77.0</ele><time>2026-04-18T07:56:45.932Z</time></trkpt><trkpt lat="43.73556" lon="11.2392733"><ele>78.0</ele><time>2026-04-18T07:56:49.932Z</time></trkpt><trkpt lat="43.7356017" lon="11.2393567"><ele>79.0</ele><time>2026-04-18T07:56:55.933Z</time></trkpt><trkpt lat="43.7356283" lon="11.2395483"><ele>79.0</ele><time>2026-04-18T07:57:11.933Z</time></trkpt><trkpt lat="43.7356367" lon="11.2396683"><ele>79.0</ele><time>2026-04-18T07:57:18.932Z</time></trkpt><trkpt lat="43.7356233" lon="11.239755"><ele>79.0</ele><time>2026-04-18T07:57:22.932Z</time></trkpt><trkpt lat="43.7356183" lon="11.239845"><ele>79.0</ele><time>2026-04-18T07:57:26.933Z</time></trkpt><trkpt lat="43.7356583" lon="11.2399167"><ele>79.0</ele><time>2026-04-18T07:57:31.932Z</time></trkpt><trkpt lat="43.735625" lon="11.2400183"><ele>79.0</ele><time>2026-04-18T07:57:37.932Z</time></trkpt><trkpt lat="43.735625" lon="11.2402633"><ele>80.2</ele><time>2026-04-18T07:57:51.933Z</time></trkpt><trkpt lat="43.735615" lon="11.24037"><ele>81.4</ele><time>2026-04-18T07:57:57.932Z</time></trkpt><trkpt lat="43.735625" lon="11.24046"><ele>82.6</ele><time>2026-04-18T07:58:02.933Z</time></trkpt><trkpt lat="43.7355967" lon="11.2405517"><ele>83.8</ele><time>2026-04-18T07:58:09.932Z</time></trkpt><trkpt lat="43.7355633" lon="11.2406983"><ele>85.0</ele><time>2026-04-18T07:58:19.932Z</time></trkpt><trkpt lat="43.7355333" lon="11.2408717"><ele>85.0</ele><time>2026-04-18T07:58:30.933Z</time></trkpt><trkpt lat="43.7355033" lon="11.240955"><ele>85.0</ele><time>2026-04-18T07:58:36.933Z</time></trkpt><trkpt lat="43.73549" lon="11.2411233"><ele>85.0</ele><time>2026-04-18T07:58:50.932Z</time></trkpt><trkpt lat="43.73545" lon="11.2412117"><ele>85.0</ele><time>2026-04-18T07:58:56.932Z</time></trkpt><trkpt lat="43.7353667" lon="11.2414383"><ele>85.0</ele><time>2026-04-18T07:59:11.932Z</time></trkpt><trkpt lat="43.7353467" lon="11.24161"><ele>85.0</ele><time>2026-04-18T07:59:23.931Z</time></trkpt><trkpt lat="43.7352683" lon="11.2417483"><ele>85.0</ele><time>2026-04-18T07:59:35.932Z</time></trkpt><trkpt lat="43.7352417" lon="11.241835"><ele>85.0</ele><time>2026-04-18T07:59:40.931Z</time></trkpt><trkpt lat="43.7351683" lon="11.241995"><ele>85.0</ele><time>2026-04-18T07:59:51.932Z</time></trkpt><trkpt lat="43.7351533" lon="11.242105"><ele>85.0</ele><time>2026-04-18T07:59:57.932Z</time></trkpt><trkpt lat="43.7351017" lon="11.2422117"><ele>89.5</ele><time>2026-04-18T08:00:05.931Z</time></trkpt><trkpt lat="43.7350483" lon="11.2423467"><ele>94.0</ele><time>2026-04-18T08:00:17.931Z</time></trkpt><trkpt lat="43.7349917" lon="11.2425033"><ele>98.5</ele><time>2026-04-18T08:00:27.932Z</time></trkpt><trkpt lat="43.7349433" lon="11.2425717"><ele>103.0</ele><time>2026-04-18T08:00:32.931Z</time></trkpt><trkpt lat="43.7349117" lon="11.24265"><ele>107.50000000000001</ele><time>2026-04-18T08:00:38.931Z</time></trkpt><trkpt lat="43.7349017" lon="11.24274"><ele>112.0</ele><time>2026-04-18T08:00:43.931Z</time></trkpt><trkpt lat="43.7348617" lon="11.242835"><ele>112.0</ele><time>2026-04-18T08:00:50.931Z</time></trkpt><trkpt lat="43.7348133" lon="11.2429033"><ele>112.0</ele><time>2026-04-18T08:00:55.931Z</time></trkpt><trkpt lat="43.73476" lon="11.24296"><ele>112.0</ele><time>2026-04-18T08:01:00.931Z</time></trkpt><trkpt lat="43.7346933" lon="11.24297"><ele>112.0</ele><time>2026-04-18T08:01:06.932Z</time></trkpt><trkpt lat="43.7346383" lon="11.243015"><ele>112.0</ele><time>2026-04-18T08:01:10.931Z</time></trkpt><trkpt lat="43.7345767" lon="11.2430533"><ele>112.0</ele><time>2026-04-18T08:01:14.931Z</time></trkpt><trkpt lat="43.7344867" lon="11.2430617"><ele>112.0</ele><time>2026-04-18T08:01:21.932Z</time></trkpt><trkpt lat="43.734405" lon="11.2430733"><ele>115.00000000000001</ele><time>2026-04-18T08:01:27.931Z</time></trkpt><trkpt lat="43.734305" lon="11.243085"><ele>118.0</ele><time>2026-04-18T08:01:34.931Z</time></trkpt><trkpt lat="43.7342317" lon="11.243095"><ele>121.0</ele><time>2026-04-18T08:01:38.931Z</time></trkpt><trkpt lat="43.7341633" lon="11.2431033"><ele>124.0</ele><time>2026-04-18T08:01:42.932Z</time></trkpt><trkpt lat="43.734085" lon="11.2431133"><ele>127.00000000000001</ele><time>2026-04-18T08:01:47.931Z</time></trkpt><trkpt lat="43.734015" lon="11.24312"><ele>130.0</ele><time>2026-04-18T08:01:52.931Z</time></trkpt><trkpt lat="43.7339433" lon="11.243115"><ele>130.00000000000003</ele><time>2026-04-18T08:01:57.932Z</time></trkpt><trkpt lat="43.7338733" lon="11.2430917"><ele>130.0</ele><time>2026-04-18T08:02:01.932Z</time></trkpt><trkpt lat="43.7337983" lon="11.243065"><ele>130.0</ele><time>2026-04-18T08:02:06.932Z</time></trkpt><trkpt lat="43.73372" lon="11.2430433"><ele>130.0</ele><time>2026-04-18T08:02:11.931Z</time></trkpt><trkpt lat="43.73365" lon="11.2430317"><ele>130.0</ele><time>2026-04-18T08:02:15.932Z</time></trkpt><trkpt lat="43.73359" lon="11.2430017"><ele>130.00000000000003</ele><time>2026-04-18T08:02:19.931Z</time></trkpt><trkpt lat="43.7335183" lon="11.2429683"><ele>130.0</ele><time>2026-04-18T08:02:23.932Z</time></trkpt><trkpt lat="43.7334617" lon="11.2429167"><ele>130.66666666666669</ele><time>2026-04-18T08:02:27.932Z</time></trkpt><trkpt lat="43.7334117" lon="11.2428533"><ele>131.33333333333334</ele><time>2026-04-18T08:02:31.931Z</time></trkpt><trkpt lat="43.733365" lon="11.2427867"><ele>132.0</ele><time>2026-04-18T08:02:36.931Z</time></trkpt><trkpt lat="43.7332183" lon="11.242665"><ele>132.66666666666666</ele><time>2026-04-18T08:02:50.931Z</time></trkpt><trkpt lat="43.733155" lon="11.2426317"><ele>133.33333333333331</ele><time>2026-04-18T08:02:54.931Z</time></trkpt><trkpt lat="43.7330983" lon="11.2425717"><ele>134.0</ele><time>2026-04-18T08:02:59.932Z</time></trkpt><trkpt lat="43.73303" lon="11.2425767"><ele>134.0</ele><time>2026-04-18T08:03:05.931Z</time></trkpt><trkpt lat="43.7329233" lon="11.2425917"><ele>134.0</ele><time>2026-04-18T08:03:14.931Z</time></trkpt><trkpt lat="43.7328517" lon="11.24262"><ele>134.0</ele><time>2026-04-18T08:03:16.931Z</time></trkpt><trkpt lat="43.732755" lon="11.242645"><ele>134.0</ele><time>2026-04-18T08:03:18.931Z</time></trkpt><trkpt lat="43.732645" lon="11.2426833"><ele>134.0</ele><time>2026-04-18T08:03:20.932Z</time></trkpt><trkpt lat="43.7325267" lon="11.2427033"><ele>134.0</ele><time>2026-04-18T08:03:22.931Z</time></trkpt><trkpt lat="43.7324083" lon="11.2427367"><ele>134.0</ele><time>2026-04-18T08:03:24.931Z</time></trkpt><trkpt lat="43.7322867" lon="11.2427817"><ele>134.0</ele><time>2026-04-18T08:03:26.931Z</time></trkpt><trkpt lat="43.7322267" lon="11.2428117"><ele>134.0</ele><time>2026-04-18T08:03:27.932Z</time></trkpt><trkpt lat="43.7321667" lon="11.2428517"><ele>134.0</ele><time>2026-04-18T08:03:28.931Z</time></trkpt><trkpt lat="43.7321033" lon="11.2428817"><ele>134.0</ele><time>2026-04-18T08:03:29.931Z</time></trkpt><trkpt lat="43.7320367" lon="11.24291"><ele>134.0</ele><time>2026-04-18T08:03:30.931Z</time></trkpt><trkpt lat="43.7319683" lon="11.2429317"><ele>134.0</ele><time>2026-04-18T08:03:31.932Z</time></trkpt><trkpt lat="43.7319067" lon="11.2429533"><ele>134.0</ele><time>2026-04-18T08:03:32.932Z</time></trkpt><trkpt lat="43.7318417" lon="11.2429633"><ele>134.0</ele><time>2026-04-18T08:03:33.932Z</time></trkpt><trkpt lat="43.7317733" lon="11.2429717"><ele>134.0</ele><time>2026-04-18T08:03:34.931Z</time></trkpt><trkpt lat="43.731705" lon="11.2429967"><ele>134.0</ele><time>2026-04-18T08:03:35.931Z</time></trkpt><trkpt lat="43.7316417" lon="11.24301"><ele>134.0</ele><time>2026-04-18T08:03:36.931Z</time></trkpt><trkpt lat="43.7315433" lon="11.243035"><ele>134.42857142857144</ele><time>2026-04-18T08:03:38.931Z</time></trkpt><trkpt lat="43.7314667" lon="11.2430617"><ele>134.85714285714286</ele><time>2026-04-18T08:03:40.931Z</time></trkpt><trkpt lat="43.7314033" lon="11.2430917"><ele>135.28571428571428</ele><time>2026-04-18T08:03:44.932Z</time></trkpt><trkpt lat="43.73134" lon="11.2431317"><ele>135.71428571428572</ele><time>2026-04-18T08:03:49.932Z</time></trkpt><trkpt lat="43.7312833" lon="11.2431733"><ele>136.14285714285714</ele><time>2026-04-18T08:03:53.931Z</time></trkpt><trkpt lat="43.7312183" lon="11.2432267"><ele>136.57142857142858</ele><time>2026-04-18T08:03:57.931Z</time></trkpt><trkpt lat="43.7311567" lon="11.2432933"><ele>137.0</ele><time>2026-04-18T08:04:01.932Z</time></trkpt><trkpt lat="43.7310867" lon="11.2433417"><ele>136.5</ele><time>2026-04-18T08:04:05.931Z</time></trkpt><trkpt lat="43.730995" lon="11.243405"><ele>136.0</ele><time>2026-04-18T08:04:11.931Z</time></trkpt><trkpt lat="43.73092" lon="11.2434417"><ele>135.5</ele><time>2026-04-18T08:04:15.931Z</time></trkpt><trkpt lat="43.730845" lon="11.2434517"><ele>135.0</ele><time>2026-04-18T08:04:18.931Z</time></trkpt><trkpt lat="43.7307767" lon="11.2434533"><ele>134.5</ele><time>2026-04-18T08:04:21.931Z</time></trkpt><trkpt lat="43.7307133" lon="11.24345"><ele>134.0</ele><time>2026-04-18T08:04:24.931Z</time></trkpt><trkpt lat="43.7306217" lon="11.2434483"><ele>134.0</ele><time>2026-04-18T08:04:27.931Z</time></trkpt><trkpt lat="43.7305467" lon="11.2434333"><ele>134.0</ele><time>2026-04-18T08:04:29.932Z</time></trkpt><trkpt lat="43.7304567" lon="11.2434233"><ele>134.0</ele><time>2026-04-18T08:04:31.932Z</time></trkpt><trkpt lat="43.7303483" lon="11.2434067"><ele>134.0</ele><time>2026-04-18T08:04:33.931Z</time></trkpt><trkpt lat="43.7302383" lon="11.243395"><ele>134.0</ele><time>2026-04-18T08:04:35.931Z</time></trkpt><trkpt lat="43.7301283" lon="11.2433867"><ele>133.6</ele><time>2026-04-18T08:04:37.932Z</time></trkpt><trkpt lat="43.7300233" lon="11.2433633"><ele>133.2</ele><time>2026-04-18T08:04:39.931Z</time></trkpt><trkpt lat="43.729925" lon="11.2433467"><ele>132.79999999999998</ele><time>2026-04-18T08:04:41.931Z</time></trkpt><trkpt lat="43.729825" lon="11.2433267"><ele>132.4</ele><time>2026-04-18T08:04:43.932Z</time></trkpt><trkpt lat="43.729725" lon="11.2433067"><ele>132.0</ele><time>2026-04-18T08:04:45.931Z</time></trkpt><trkpt lat="43.729625" lon="11.2432967"><ele>132.0</ele><time>2026-04-18T08:04:47.932Z</time></trkpt><trkpt lat="43.729515" lon="11.24329"><ele>132.0</ele><time>2026-04-18T08:04:49.931Z</time></trkpt><trkpt lat="43.7294033" lon="11.2432767"><ele>132.0</ele><time>2026-04-18T08:04:51.932Z</time></trkpt><trkpt lat="43.7292983" lon="11.243255"><ele>132.0</ele><time>2026-04-18T08:04:53.932Z</time></trkpt><trkpt lat="43.7292017" lon="11.24325"><ele>132.0</ele><time>2026-04-18T08:04:55.932Z</time></trkpt><trkpt lat="43.7290917" lon="11.243255"><ele>132.33333333333334</ele><time>2026-04-18T08:04:57.931Z</time></trkpt><trkpt lat="43.7289733" lon="11.24321"><ele>132.66666666666666</ele><time>2026-04-18T08:04:59.931Z</time></trkpt><trkpt lat="43.7289017" lon="11.2431767"><ele>133.0</ele><time>2026-04-18T08:05:00.932Z</time></trkpt><trkpt lat="43.7288317" lon="11.243145"><ele>133.33333333333331</ele><time>2026-04-18T08:05:01.931Z</time></trkpt><trkpt lat="43.7287567" lon="11.243115"><ele>133.66666666666666</ele><time>2026-04-18T08:05:02.932Z</time></trkpt><trkpt lat="43.7286883" lon="11.2430567"><ele>134.0</ele><time>2026-04-18T08:05:03.931Z</time></trkpt><trkpt lat="43.7286083" lon="11.2430317"><ele>132.0</ele><time>2026-04-18T08:05:04.931Z</time></trkpt><trkpt lat="43.7285017" lon="11.2430017"><ele>130.0</ele><time>2026-04-18T08:05:05.932Z</time></trkpt><trkpt lat="43.728405" lon="11.24296"><ele>128.0</ele><time>2026-04-18T08:05:06.931Z</time></trkpt><trkpt lat="43.72833" lon="11.2428983"><ele>126.0</ele><time>2026-04-18T08:05:07.932Z</time></trkpt><trkpt lat="43.728245" lon="11.2428717"><ele>124.0</ele><time>2026-04-18T08:05:08.932Z</time></trkpt><trkpt lat="43.728165" lon="11.2428717"><ele>124.00000000000001</ele><time>2026-04-18T08:05:09.931Z</time></trkpt><trkpt lat="43.7280933" lon="11.2428867"><ele>124.0</ele><time>2026-04-18T08:05:10.931Z</time></trkpt><trkpt lat="43.72803" lon="11.2429083"><ele>124.0</ele><time>2026-04-18T08:05:11.931Z</time></trkpt><trkpt lat="43.7279317" lon="11.2429467"><ele>124.0</ele><time>2026-04-18T08:05:13.931Z</time></trkpt><trkpt lat="43.7278467" lon="11.2429867"><ele>124.00000000000001</ele><time>2026-04-18T08:05:15.932Z</time></trkpt><trkpt lat="43.7277833" lon="11.2430117"><ele>124.0</ele><time>2026-04-18T08:05:17.931Z</time></trkpt><trkpt lat="43.7277133" lon="11.2430417"><ele>124.28571428571429</ele><time>2026-04-18T08:05:20.931Z</time></trkpt><trkpt lat="43.7276483" lon="11.2430883"><ele>124.57142857142858</ele><time>2026-04-18T08:05:24.932Z</time></trkpt><trkpt lat="43.7275767" lon="11.243135"><ele>124.85714285714286</ele><time>2026-04-18T08:05:28.931Z</time></trkpt><trkpt lat="43.7275317" lon="11.2432183"><ele>125.14285714285714</ele><time>2026-04-18T08:05:31.932Z</time></trkpt><trkpt lat="43.7274833" lon="11.243295"><ele>125.42857142857143</ele><time>2026-04-18T08:05:35.932Z</time></trkpt><trkpt lat="43.72741" lon="11.2433283"><ele>125.71428571428572</ele><time>2026-04-18T08:05:40.931Z</time></trkpt><trkpt lat="43.7273633" lon="11.24339"><ele>126.0</ele><time>2026-04-18T08:05:44.931Z</time></trkpt><trkpt lat="43.7272967" lon="11.2434283"><ele>126.0</ele><time>2026-04-18T08:05:49.931Z</time></trkpt><trkpt lat="43.7272333" lon="11.2434867"><ele>126.0</ele><time>2026-04-18T08:05:54.932Z</time></trkpt><trkpt lat="43.72717" lon="11.24355"><ele>126.0</ele><time>2026-04-18T08:05:59.931Z</time></trkpt><trkpt lat="43.7270983" lon="11.24358"><ele>126.0</ele><time>2026-04-18T08:06:05.931Z</time></trkpt><trkpt lat="43.727035" lon="11.2436067"><ele>126.0</ele><time>2026-04-18T08:06:09.932Z</time></trkpt><trkpt lat="43.72687" lon="11.2435933"><ele>127.75</ele><time>2026-04-18T08:06:24.931Z</time></trkpt><trkpt lat="43.7267483" lon="11.2435917"><ele>129.5</ele><time>2026-04-18T08:06:35.931Z</time></trkpt><trkpt lat="43.7266083" lon="11.2436417"><ele>131.25</ele><time>2026-04-18T08:06:45.931Z</time></trkpt><trkpt lat="43.7264783" lon="11.2436583"><ele>133.0</ele><time>2026-04-18T08:06:54.931Z</time></trkpt><trkpt lat="43.7263517" lon="11.2436667"><ele>133.0</ele><time>2026-04-18T08:07:03.931Z</time></trkpt><trkpt lat="43.7262767" lon="11.243685"><ele>133.0</ele><time>2026-04-18T08:07:06.931Z</time></trkpt><trkpt lat="43.72612" lon="11.243705"><ele>133.0</ele><time>2026-04-18T08:07:12.931Z</time></trkpt><trkpt lat="43.72603" lon="11.2437433"><ele>133.0</ele><time>2026-04-18T08:07:15.931Z</time></trkpt><trkpt lat="43.7259517" lon="11.2437683"><ele>133.0</ele><time>2026-04-18T08:07:18.932Z</time></trkpt><trkpt lat="43.7258883" lon="11.243785"><ele>133.33333333333334</ele><time>2026-04-18T08:07:20.932Z</time></trkpt><trkpt lat="43.725805" lon="11.2437933"><ele>133.66666666666669</ele><time>2026-04-18T08:07:23.931Z</time></trkpt><trkpt lat="43.72572" lon="11.24383"><ele>134.0</ele><time>2026-04-18T08:07:26.931Z</time></trkpt><trkpt lat="43.7256467" lon="11.2438567"><ele>134.33333333333334</ele><time>2026-04-18T08:07:29.931Z</time></trkpt><trkpt lat="43.7255667" lon="11.243875"><ele>134.66666666666666</ele><time>2026-04-18T08:07:32.931Z</time></trkpt><trkpt lat="43.7254883" lon="11.2438917"><ele>135.0</ele><time>2026-04-18T08:07:35.931Z</time></trkpt><trkpt lat="43.7253983" lon="11.2439067"><ele>135.0</ele><time>2026-04-18T08:07:38.931Z</time></trkpt><trkpt lat="43.72531" lon="11.243935"><ele>135.0</ele><time>2026-04-18T08:07:41.931Z</time></trkpt><trkpt lat="43.725245" lon="11.2439533"><ele>135.0</ele><time>2026-04-18T08:07:43.932Z</time></trkpt><trkpt lat="43.7251533" lon="11.243985"><ele>135.0</ele><time>2026-04-18T08:07:46.931Z</time></trkpt><trkpt lat="43.72507" lon="11.2440083"><ele>135.0</ele><time>2026-04-18T08:07:49.932Z</time></trkpt><trkpt lat="43.724995" lon="11.2440333"><ele>135.0</ele><time>2026-04-18T08:07:52.932Z</time></trkpt><trkpt lat="43.7249117" lon="11.244065"><ele>135.33333333333334</ele><time>2026-04-18T08:07:55.932Z</time></trkpt><trkpt lat="43.7248217" lon="11.2440833"><ele>135.66666666666666</ele><time>2026-04-18T08:07:58.932Z</time></trkpt><trkpt lat="43.72473" lon="11.24411"><ele>136.0</ele><time>2026-04-18T08:08:01.931Z</time></trkpt><trkpt lat="43.7246467" lon="11.2441233"><ele>136.33333333333331</ele><time>2026-04-18T08:08:04.931Z</time></trkpt><trkpt lat="43.7245767" lon="11.24416"><ele>136.66666666666666</ele><time>2026-04-18T08:08:07.931Z</time></trkpt><trkpt lat="43.7245117" lon="11.2441717"><ele>137.0</ele><time>2026-04-18T08:08:10.931Z</time></trkpt><trkpt lat="43.72445" lon="11.24421"><ele>137.0</ele><time>2026-04-18T08:08:13.931Z</time></trkpt><trkpt lat="43.7244117" lon="11.24429"><ele>137.0</ele><time>2026-04-18T08:08:17.931Z</time></trkpt><trkpt lat="43.72442" lon="11.2444433"><ele>137.0</ele><time>2026-04-18T08:08:24.932Z</time></trkpt><trkpt lat="43.7244333" lon="11.2445317"><ele>137.0</ele><time>2026-04-18T08:08:27.931Z</time></trkpt><trkpt lat="43.7243917" lon="11.24461"><ele>137.0</ele><time>2026-04-18T08:08:30.931Z</time></trkpt><trkpt lat="43.72433" lon="11.2446283"><ele>137.0</ele><time>2026-04-18T08:08:32.931Z</time></trkpt><trkpt lat="43.7242483" lon="11.244665"><ele>137.0</ele><time>2026-04-18T08:08:35.931Z</time></trkpt><trkpt lat="43.7241633" lon="11.24472"><ele>137.0</ele><time>2026-04-18T08:08:38.931Z</time></trkpt><trkpt lat="43.7240883" lon="11.2447883"><ele>137.0</ele><time>2026-04-18T08:08:40.931Z</time></trkpt><trkpt lat="43.7240117" lon="11.2448567"><ele>137.0</ele><time>2026-04-18T08:08:42.931Z</time></trkpt><trkpt lat="43.72393" lon="11.2449283"><ele>137.0</ele><time>2026-04-18T08:08:44.932Z</time></trkpt><trkpt lat="43.723845" lon="11.245015"><ele>137.0</ele><time>2026-04-18T08:08:46.931Z</time></trkpt><trkpt lat="43.7237667" lon="11.24512"><ele>137.0</ele><time>2026-04-18T08:08:48.931Z</time></trkpt><trkpt lat="43.7236933" lon="11.2452333"><ele>137.0</ele><time>2026-04-18T08:08:50.932Z</time></trkpt><trkpt lat="43.7236183" lon="11.2453333"><ele>137.0</ele><time>2026-04-18T08:08:52.931Z</time></trkpt><trkpt lat="43.7235417" lon="11.2454033"><ele>137.0</ele><time>2026-04-18T08:08:54.931Z</time></trkpt><trkpt lat="43.72345" lon="11.2454983"><ele>136.0</ele><time>2026-04-18T08:08:56.931Z</time></trkpt><trkpt lat="43.7233683" lon="11.2455867"><ele>135.0</ele><time>2026-04-18T08:08:58.931Z</time></trkpt><trkpt lat="43.723295" lon="11.245665"><ele>134.0</ele><time>2026-04-18T08:09:00.932Z</time></trkpt><trkpt lat="43.72323" lon="11.24573"><ele>133.0</ele><time>2026-04-18T08:09:02.931Z</time></trkpt><trkpt lat="43.7231667" lon="11.2457833"><ele>132.0</ele><time>2026-04-18T08:09:04.931Z</time></trkpt><trkpt lat="43.7231067" lon="11.24582"><ele>131.0</ele><time>2026-04-18T08:09:06.932Z</time></trkpt><trkpt lat="43.7230483" lon="11.2458617"><ele>131.0</ele><time>2026-04-18T08:09:08.931Z</time></trkpt><trkpt lat="43.7229783" lon="11.2459217"><ele>131.0</ele><time>2026-04-18T08:09:11.931Z</time></trkpt><trkpt lat="43.7228267" lon="11.2459767"><ele>131.0</ele><time>2026-04-18T08:09:45.931Z</time></trkpt></trkseg><trkseg><trkpt lat="43.7228783" lon="11.2459581"><ele>131.0</ele><time>2026-04-18T08:59:47.928Z</time></trkpt><trkpt lat="43.7229655" lon="11.245848"><ele>131.0</ele><time>2026-04-18T09:00:08.928Z</time></trkpt><trkpt lat="43.7230341" lon="11.2458268"><ele>131.0</ele><time>2026-04-18T09:00:11.928Z</time></trkpt><trkpt lat="43.7230942" lon="11.2457805"><ele>131.0</ele><time>2026-04-18T09:00:14.928Z</time></trkpt><trkpt lat="43.7231556" lon="11.2457253"><ele>131.0</ele><time>2026-04-18T09:00:17.929Z</time></trkpt><trkpt lat="43.723235" lon="11.24565"><ele>131.0</ele><time>2026-04-18T09:00:20.928Z</time></trkpt><trkpt lat="43.7233017" lon="11.245595"><ele>130.5</ele><time>2026-04-18T09:00:22.929Z</time></trkpt><trkpt lat="43.7233633" lon="11.2455167"><ele>130.0</ele><time>2026-04-18T09:00:24.928Z</time></trkpt><trkpt lat="43.7234317" lon="11.2454383"><ele>129.5</ele><time>2026-04-18T09:00:26.928Z</time></trkpt><trkpt lat="43.7235" lon="11.245365"><ele>129.0</ele><time>2026-04-18T09:00:28.928Z</time></trkpt><trkpt lat="43.7235633" lon="11.2453033"><ele>128.5</ele><time>2026-04-18T09:00:30.928Z</time></trkpt><trkpt lat="43.72363" lon="11.245245"><ele>128.0</ele><time>2026-04-18T09:00:32.928Z</time></trkpt><trkpt lat="43.72368" lon="11.24519"><ele>129.5</ele><time>2026-04-18T09:00:34.929Z</time></trkpt><trkpt lat="43.7237417" lon="11.2451217"><ele>131.0</ele><time>2026-04-18T09:00:37.929Z</time></trkpt><trkpt lat="43.7238033" lon="11.2450383"><ele>132.5</ele><time>2026-04-18T09:00:40.928Z</time></trkpt><trkpt lat="43.7238767" lon="11.2449767"><ele>134.0</ele><time>2026-04-18T09:00:43.929Z</time></trkpt><trkpt lat="43.7239417" lon="11.2449117"><ele>135.5</ele><time>2026-04-18T09:00:46.928Z</time></trkpt><trkpt lat="43.72401" lon="11.2448383"><ele>137.0</ele><time>2026-04-18T09:00:49.929Z</time></trkpt><trkpt lat="43.7240733" lon="11.2447683"><ele>137.0</ele><time>2026-04-18T09:00:52.928Z</time></trkpt><trkpt lat="43.72414" lon="11.24471"><ele>137.0</ele><time>2026-04-18T09:00:56.928Z</time></trkpt><trkpt lat="43.7242133" lon="11.24466"><ele>137.0</ele><time>2026-04-18T09:01:00.928Z</time></trkpt><trkpt lat="43.724285" lon="11.2446133"><ele>137.0</ele><time>2026-04-18T09:01:03.927Z</time></trkpt><trkpt lat="43.7243533" lon="11.24457"><ele>137.0</ele><time>2026-04-18T09:01:06.927Z</time></trkpt><trkpt lat="43.7244117" lon="11.244505"><ele>137.0</ele><time>2026-04-18T09:01:09.928Z</time></trkpt><trkpt lat="43.7244167" lon="11.2444033"><ele>137.0</ele><time>2026-04-18T09:01:13.927Z</time></trkpt><trkpt lat="43.7244017" lon="11.2443083"><ele>137.0</ele><time>2026-04-18T09:01:17.927Z</time></trkpt><trkpt lat="43.7244267" lon="11.2442283"><ele>137.0</ele><time>2026-04-18T09:01:20.928Z</time></trkpt><trkpt lat="43.7245117" lon="11.244165"><ele>137.0</ele><time>2026-04-18T09:01:23.927Z</time></trkpt><trkpt lat="43.7245933" lon="11.2441317"><ele>137.0</ele><time>2026-04-18T09:01:25.927Z</time></trkpt><trkpt lat="43.72468" lon="11.244105"><ele>137.0</ele><time>2026-04-18T09:01:27.927Z</time></trkpt><trkpt lat="43.7247767" lon="11.2440783"><ele>137.0</ele><time>2026-04-18T09:01:29.927Z</time></trkpt><trkpt lat="43.7248617" lon="11.2440483"><ele>137.0</ele><time>2026-04-18T09:01:31.927Z</time></trkpt><trkpt lat="43.72496" lon="11.24402"><ele>137.0</ele><time>2026-04-18T09:01:33.927Z</time></trkpt><trkpt lat="43.725055" lon="11.244"><ele>137.0</ele><time>2026-04-18T09:01:35.928Z</time></trkpt><trkpt lat="43.7251467" lon="11.2439733"><ele>137.0</ele><time>2026-04-18T09:01:37.928Z</time></trkpt><trkpt lat="43.72525" lon="11.2439517"><ele>136.6</ele><time>2026-04-18T09:01:39.927Z</time></trkpt><trkpt lat="43.7253467" lon="11.24392"><ele>136.2</ele><time>2026-04-18T09:01:41.928Z</time></trkpt><trkpt lat="43.7254517" lon="11.2439017"><ele>135.8</ele><time>2026-04-18T09:01:43.928Z</time></trkpt><trkpt lat="43.7255533" lon="11.24388"><ele>135.4</ele><time>2026-04-18T09:01:45.928Z</time></trkpt><trkpt lat="43.7256517" lon="11.2438483"><ele>135.0</ele><time>2026-04-18T09:01:47.927Z</time></trkpt><trkpt lat="43.7257367" lon="11.2438217"><ele>135.0</ele><time>2026-04-18T09:01:49.927Z</time></trkpt><trkpt lat="43.7258467" lon="11.2437833"><ele>135.0</ele><time>2026-04-18T09:01:51.927Z</time></trkpt><trkpt lat="43.7259417" lon="11.2437533"><ele>135.0</ele><time>2026-04-18T09:01:53.928Z</time></trkpt><trkpt lat="43.7260133" lon="11.2437283"><ele>135.0</ele><time>2026-04-18T09:01:55.927Z</time></trkpt><trkpt lat="43.7260733" lon="11.2436317"><ele>135.0</ele><time>2026-04-18T09:01:58.927Z</time></trkpt><trkpt lat="43.7260883" lon="11.2435417"><ele>135.0</ele><time>2026-04-18T09:02:00.927Z</time></trkpt><trkpt lat="43.7261133" lon="11.24344"><ele>135.16666666666666</ele><time>2026-04-18T09:02:02.928Z</time></trkpt><trkpt lat="43.7261267" lon="11.2433317"><ele>135.33333333333334</ele><time>2026-04-18T09:02:04.928Z</time></trkpt><trkpt lat="43.7261467" lon="11.2432367"><ele>135.5</ele><time>2026-04-18T09:02:06.927Z</time></trkpt><trkpt lat="43.726175" lon="11.243135"><ele>135.66666666666669</ele><time>2026-04-18T09:02:08.928Z</time></trkpt><trkpt lat="43.7261983" lon="11.2430433"><ele>135.83333333333334</ele><time>2026-04-18T09:02:10.927Z</time></trkpt><trkpt lat="43.72623" lon="11.24294"><ele>136.0</ele><time>2026-04-18T09:02:12.928Z</time></trkpt><trkpt lat="43.72624" lon="11.2428383"><ele>136.0</ele><time>2026-04-18T09:02:14.927Z</time></trkpt><trkpt lat="43.72625" lon="11.2427383"><ele>136.0</ele><time>2026-04-18T09:02:16.927Z</time></trkpt><trkpt lat="43.72627" lon="11.242645"><ele>136.0</ele><time>2026-04-18T09:02:18.927Z</time></trkpt><trkpt lat="43.7262783" lon="11.2425517"><ele>136.0</ele><time>2026-04-18T09:02:20.928Z</time></trkpt><trkpt lat="43.7263" lon="11.2424483"><ele>136.0</ele><time>2026-04-18T09:02:23.927Z</time></trkpt><trkpt lat="43.7263" lon="11.24233"><ele>136.0</ele><time>2026-04-18T09:02:25.927Z</time></trkpt><trkpt lat="43.7263017" lon="11.2422217"><ele>136.66666666666669</ele><time>2026-04-18T09:02:27.928Z</time></trkpt><trkpt lat="43.7262917" lon="11.2421183"><ele>137.33333333333334</ele><time>2026-04-18T09:02:29.928Z</time></trkpt><trkpt lat="43.72628" lon="11.24202"><ele>138.0</ele><time>2026-04-18T09:02:31.928Z</time></trkpt><trkpt lat="43.7262583" lon="11.241935"><ele>138.66666666666666</ele><time>2026-04-18T09:02:33.927Z</time></trkpt><trkpt lat="43.7262233" lon="11.2418233"><ele>139.33333333333331</ele><time>2026-04-18T09:02:36.928Z</time></trkpt><trkpt lat="43.7262067" lon="11.24172"><ele>140.0</ele><time>2026-04-18T09:02:39.927Z</time></trkpt><trkpt lat="43.726195" lon="11.24162"><ele>140.0</ele><time>2026-04-18T09:02:42.927Z</time></trkpt><trkpt lat="43.726215" lon="11.2414967"><ele>140.0</ele><time>2026-04-18T09:02:45.927Z</time></trkpt><trkpt lat="43.72626" lon="11.241395"><ele>140.0</ele><time>2026-04-18T09:02:48.927Z</time></trkpt><trkpt lat="43.72632" lon="11.2412833"><ele>140.0</ele><time>2026-04-18T09:02:51.928Z</time></trkpt><trkpt lat="43.7263633" lon="11.2411817"><ele>140.0</ele><time>2026-04-18T09:02:54.927Z</time></trkpt><trkpt lat="43.7264233" lon="11.2410867"><ele>140.57142857142858</ele><time>2026-04-18T09:02:57.927Z</time></trkpt><trkpt lat="43.7264633" lon="11.2410183"><ele>141.14285714285714</ele><time>2026-04-18T09:02:59.927Z</time></trkpt><trkpt lat="43.72651" lon="11.2409333"><ele>141.71428571428572</ele><time>2026-04-18T09:03:02.927Z</time></trkpt><trkpt lat="43.7265483" lon="11.2408567"><ele>142.28571428571428</ele><time>2026-04-18T09:03:05.927Z</time></trkpt><trkpt lat="43.726585" lon="11.2407783"><ele>142.85714285714286</ele><time>2026-04-18T09:03:08.928Z</time></trkpt><trkpt lat="43.7265583" lon="11.24068"><ele>143.42857142857144</ele><time>2026-04-18T09:03:13.927Z</time></trkpt><trkpt lat="43.72654" lon="11.2405867"><ele>144.0</ele><time>2026-04-18T09:03:18.928Z</time></trkpt><trkpt lat="43.7264967" lon="11.240505"><ele>144.71428571428572</ele><time>2026-04-18T09:03:21.927Z</time></trkpt><trkpt lat="43.7264383" lon="11.2404283"><ele>145.42857142857144</ele><time>2026-04-18T09:03:25.927Z</time></trkpt><trkpt lat="43.7263767" lon="11.2403833"><ele>146.14285714285714</ele><time>2026-04-18T09:03:28.927Z</time></trkpt><trkpt lat="43.7263283" lon="11.2402933"><ele>146.85714285714286</ele><time>2026-04-18T09:03:32.927Z</time></trkpt><trkpt lat="43.7263467" lon="11.2402083"><ele>147.57142857142856</ele><time>2026-04-18T09:03:35.927Z</time></trkpt><trkpt lat="43.726365" lon="11.2401217"><ele>148.28571428571428</ele><time>2026-04-18T09:03:38.927Z</time></trkpt><trkpt lat="43.726365" lon="11.2400217"><ele>149.0</ele><time>2026-04-18T09:03:41.927Z</time></trkpt><trkpt lat="43.7263567" lon="11.2399283"><ele>149.0</ele><time>2026-04-18T09:03:44.927Z</time></trkpt><trkpt lat="43.7262933" lon="11.2398183"><ele>149.0</ele><time>2026-04-18T09:03:51.928Z</time></trkpt><trkpt lat="43.726215" lon="11.2397433"><ele>149.0</ele><time>2026-04-18T09:03:54.927Z</time></trkpt><trkpt lat="43.726155" lon="11.239695"><ele>149.0</ele><time>2026-04-18T09:03:56.927Z</time></trkpt><trkpt lat="43.7260767" lon="11.2396433"><ele>149.0</ele><time>2026-04-18T09:03:58.927Z</time></trkpt><trkpt lat="43.726005" lon="11.2396033"><ele>149.0</ele><time>2026-04-18T09:04:00.927Z</time></trkpt><trkpt lat="43.725935" lon="11.2395567"><ele>148.5</ele><time>2026-04-18T09:04:02.927Z</time></trkpt><trkpt lat="43.72586" lon="11.2394883"><ele>148.0</ele><time>2026-04-18T09:04:05.928Z</time></trkpt><trkpt lat="43.7257933" lon="11.23944"><ele>147.5</ele><time>2026-04-18T09:04:07.927Z</time></trkpt><trkpt lat="43.72572" lon="11.23942"><ele>147.0</ele><time>2026-04-18T09:04:09.927Z</time></trkpt><trkpt lat="43.72564" lon="11.2394133"><ele>146.5</ele><time>2026-04-18T09:04:11.927Z</time></trkpt><trkpt lat="43.725565" lon="11.2394017"><ele>146.0</ele><time>2026-04-18T09:04:13.927Z</time></trkpt><trkpt lat="43.7254867" lon="11.2393733"><ele>146.0</ele><time>2026-04-18T09:04:15.927Z</time></trkpt><trkpt lat="43.7254267" lon="11.2393233"><ele>146.0</ele><time>2026-04-18T09:04:17.927Z</time></trkpt><trkpt lat="43.7253783" lon="11.23926"><ele>146.0</ele><time>2026-04-18T09:04:19.927Z</time></trkpt><trkpt lat="43.7253217" lon="11.2391633"><ele>146.0</ele><time>2026-04-18T09:04:22.927Z</time></trkpt><trkpt lat="43.7252633" lon="11.2390767"><ele>146.0</ele><time>2026-04-18T09:04:25.928Z</time></trkpt><trkpt lat="43.72521" lon="11.2390067"><ele>146.0</ele><time>2026-04-18T09:04:28.928Z</time></trkpt><trkpt lat="43.7251417" lon="11.2389483"><ele>145.5</ele><time>2026-04-18T09:04:31.927Z</time></trkpt><trkpt lat="43.72504" lon="11.2388917"><ele>145.0</ele><time>2026-04-18T09:04:41.927Z</time></trkpt><trkpt lat="43.724985" lon="11.2388183"><ele>144.5</ele><time>2026-04-18T09:04:44.928Z</time></trkpt><trkpt lat="43.72497" lon="11.2387283"><ele>144.0</ele><time>2026-04-18T09:04:48.927Z</time></trkpt><trkpt lat="43.7250017" lon="11.238625"><ele>143.5</ele><time>2026-04-18T09:04:52.928Z</time></trkpt><trkpt lat="43.7250467" lon="11.2385383"><ele>143.0</ele><time>2026-04-18T09:04:55.927Z</time></trkpt><trkpt lat="43.72509" lon="11.23845"><ele>143.0</ele><time>2026-04-18T09:04:58.928Z</time></trkpt><trkpt lat="43.7251367" lon="11.2383733"><ele>143.0</ele><time>2026-04-18T09:05:01.927Z</time></trkpt><trkpt lat="43.7251817" lon="11.2383083"><ele>143.0</ele><time>2026-04-18T09:05:05.928Z</time></trkpt><trkpt lat="43.7252483" lon="11.2382983"><ele>143.0</ele><time>2026-04-18T09:05:09.928Z</time></trkpt><trkpt lat="43.72537" lon="11.2383017"><ele>143.0</ele><time>2026-04-18T09:05:17.927Z</time></trkpt><trkpt lat="43.7255317" lon="11.2383533"><ele>143.0</ele><time>2026-04-18T09:05:31.927Z</time></trkpt><trkpt lat="43.7256117" lon="11.2383733"><ele>143.0</ele><time>2026-04-18T09:05:36.928Z</time></trkpt><trkpt lat="43.7256767" lon="11.2383933"><ele>143.0</ele><time>2026-04-18T09:05:40.928Z</time></trkpt><trkpt lat="43.72578" lon="11.2383633"><ele>143.0</ele><time>2026-04-18T09:06:11.927Z</time></trkpt><trkpt lat="43.7257967" lon="11.2382767"><ele>143.0</ele><time>2026-04-18T09:06:14.927Z</time></trkpt><trkpt lat="43.72582" lon="11.238195"><ele>143.0</ele><time>2026-04-18T09:06:16.927Z</time></trkpt><trkpt lat="43.72586" lon="11.2381017"><ele>142.33333333333331</ele><time>2026-04-18T09:06:19.927Z</time></trkpt><trkpt lat="43.725895" lon="11.2379967"><ele>141.66666666666666</ele><time>2026-04-18T09:06:22.927Z</time></trkpt><trkpt lat="43.72594" lon="11.2379067"><ele>141.0</ele><time>2026-04-18T09:06:25.927Z</time></trkpt><trkpt lat="43.725995" lon="11.237795"><ele>140.33333333333334</ele><time>2026-04-18T09:06:27.927Z</time></trkpt><trkpt lat="43.7260517" lon="11.237665"><ele>139.66666666666669</ele><time>2026-04-18T09:06:29.928Z</time></trkpt><trkpt lat="43.726085" lon="11.2375783"><ele>139.0</ele><time>2026-04-18T09:06:32.928Z</time></trkpt><trkpt lat="43.7261267" lon="11.2375067"><ele>139.0</ele><time>2026-04-18T09:06:40.928Z</time></trkpt><trkpt lat="43.7261683" lon="11.2374017"><ele>139.0</ele><time>2026-04-18T09:06:43.928Z</time></trkpt><trkpt lat="43.7262117" lon="11.2372867"><ele>139.0</ele><time>2026-04-18T09:06:46.928Z</time></trkpt><trkpt lat="43.726245" lon="11.23721"><ele>139.0</ele><time>2026-04-18T09:06:48.927Z</time></trkpt><trkpt lat="43.726275" lon="11.2371083"><ele>139.0</ele><time>2026-04-18T09:06:51.927Z</time></trkpt><trkpt lat="43.7263133" lon="11.237005"><ele>139.0</ele><time>2026-04-18T09:06:55.928Z</time></trkpt><trkpt lat="43.7263467" lon="11.2369233"><ele>140.5</ele><time>2026-04-18T09:07:03.927Z</time></trkpt><trkpt lat="43.7264367" lon="11.23687"><ele>142.0</ele><time>2026-04-18T09:07:30.927Z</time></trkpt><trkpt lat="43.72655" lon="11.2368567"><ele>143.5</ele><time>2026-04-18T09:07:45.927Z</time></trkpt><trkpt lat="43.7266767" lon="11.236805"><ele>145.0</ele><time>2026-04-18T09:07:59.928Z</time></trkpt><trkpt lat="43.726785" lon="11.236805"><ele>145.0</ele><time>2026-04-18T09:08:14.927Z</time></trkpt><trkpt lat="43.7268917" lon="11.2368733"><ele>145.0</ele><time>2026-04-18T09:08:24.927Z</time></trkpt><trkpt lat="43.726985" lon="11.236985"><ele>145.0</ele><time>2026-04-18T09:08:37.927Z</time></trkpt><trkpt lat="43.7270433" lon="11.2370267"><ele>145.0</ele><time>2026-04-18T09:11:18.927Z</time></trkpt><trkpt lat="43.72713" lon="11.2370317"><ele>145.0</ele><time>2026-04-18T09:11:27.928Z</time></trkpt><trkpt lat="43.727205" lon="11.2370483"><ele>146.83333333333334</ele><time>2026-04-18T09:13:11.928Z</time></trkpt><trkpt lat="43.727315" lon="11.2371017"><ele>148.66666666666669</ele><time>2026-04-18T09:13:55.927Z</time></trkpt><trkpt lat="43.7273783" lon="11.2371283"><ele>150.5</ele><time>2026-04-18T09:14:04.927Z</time></trkpt><trkpt lat="43.7274467" lon="11.2371467"><ele>152.33333333333334</ele><time>2026-04-18T09:14:08.927Z</time></trkpt><trkpt lat="43.7275267" lon="11.2371733"><ele>154.16666666666666</ele><time>2026-04-18T09:14:18.926Z</time></trkpt><trkpt lat="43.72759" lon="11.2372017"><ele>156.0</ele><time>2026-04-18T09:14:21.926Z</time></trkpt><trkpt lat="43.7276617" lon="11.2372117"><ele>156.5</ele><time>2026-04-18T09:14:24.926Z</time></trkpt><trkpt lat="43.72774" lon="11.2372417"><ele>157.0</ele><time>2026-04-18T09:14:28.926Z</time></trkpt><trkpt lat="43.7278183" lon="11.2372783"><ele>157.5</ele><time>2026-04-18T09:14:33.926Z</time></trkpt><trkpt lat="43.72789" lon="11.237315"><ele>158.0</ele><time>2026-04-18T09:14:37.926Z</time></trkpt><trkpt lat="43.7279583" lon="11.2373467"><ele>158.5</ele><time>2026-04-18T09:14:41.926Z</time></trkpt><trkpt lat="43.72802" lon="11.237375"><ele>159.0</ele><time>2026-04-18T09:14:45.926Z</time></trkpt><trkpt lat="43.7280917" lon="11.2374017"><ele>159.0</ele><time>2026-04-18T09:14:50.926Z</time></trkpt><trkpt lat="43.7281633" lon="11.2374317"><ele>159.0</ele><time>2026-04-18T09:14:54.926Z</time></trkpt><trkpt lat="43.7282267" lon="11.237455"><ele>159.0</ele><time>2026-04-18T09:14:58.926Z</time></trkpt><trkpt lat="43.7282933" lon="11.237435"><ele>159.0</ele><time>2026-04-18T09:15:02.927Z</time></trkpt><trkpt lat="43.7283" lon="11.23733"><ele>159.0</ele><time>2026-04-18T09:15:06.927Z</time></trkpt><trkpt lat="43.7283233" lon="11.237225"><ele>159.0</ele><time>2026-04-18T09:15:11.927Z</time></trkpt><trkpt lat="43.7283367" lon="11.2371333"><ele>159.0</ele><time>2026-04-18T09:15:15.927Z</time></trkpt><trkpt lat="43.7283467" lon="11.2370233"><ele>159.0</ele><time>2026-04-18T09:15:20.927Z</time></trkpt><trkpt lat="43.7283617" lon="11.2369183"><ele>159.0</ele><time>2026-04-18T09:15:24.926Z</time></trkpt><trkpt lat="43.7283783" lon="11.23681"><ele>159.0</ele><time>2026-04-18T09:15:28.926Z</time></trkpt><trkpt lat="43.7283883" lon="11.236715"><ele>159.0</ele><time>2026-04-18T09:15:32.926Z</time></trkpt><trkpt lat="43.7284067" lon="11.2366217"><ele>159.0</ele><time>2026-04-18T09:15:36.927Z</time></trkpt><trkpt lat="43.7284233" lon="11.236535"><ele>159.0</ele><time>2026-04-18T09:15:39.926Z</time></trkpt><trkpt lat="43.7284417" lon="11.2364467"><ele>159.0</ele><time>2026-04-18T09:15:42.926Z</time></trkpt><trkpt lat="43.7284617" lon="11.2363467"><ele>159.0</ele><time>2026-04-18T09:15:45.927Z</time></trkpt><trkpt lat="43.7284933" lon="11.2362267"><ele>159.0</ele><time>2026-04-18T09:15:48.926Z</time></trkpt><trkpt lat="43.7285217" lon="11.2361317"><ele>159.0</ele><time>2026-04-18T09:15:51.926Z</time></trkpt><trkpt lat="43.7285217" lon="11.2360283"><ele>159.0</ele><time>2026-04-18T09:15:54.926Z</time></trkpt><trkpt lat="43.7285233" lon="11.23594"><ele>159.0</ele><time>2026-04-18T09:15:56.926Z</time></trkpt><trkpt lat="43.7285333" lon="11.2358517"><ele>159.0</ele><time>2026-04-18T09:15:58.926Z</time></trkpt><trkpt lat="43.7285483" lon="11.2357567"><ele>159.0</ele><time>2026-04-18T09:16:01.926Z</time></trkpt><trkpt lat="43.72861" lon="11.2356567"><ele>156.83333333333334</ele><time>2026-04-18T09:16:04.926Z</time></trkpt><trkpt lat="43.7286867" lon="11.235595"><ele>154.66666666666666</ele><time>2026-04-18T09:16:06.926Z</time></trkpt><trkpt lat="43.7287633" lon="11.2355467"><ele>152.5</ele><time>2026-04-18T09:16:08.926Z</time></trkpt><trkpt lat="43.7288483" lon="11.2355067"><ele>150.33333333333331</ele><time>2026-04-18T09:16:10.926Z</time></trkpt><trkpt lat="43.7289317" lon="11.2354817"><ele>148.16666666666666</ele><time>2026-04-18T09:16:12.927Z</time></trkpt><trkpt lat="43.7290083" lon="11.2354733"><ele>146.0</ele><time>2026-04-18T09:16:14.926Z</time></trkpt><trkpt lat="43.7290883" lon="11.2354317"><ele>146.0</ele><time>2026-04-18T09:16:16.926Z</time></trkpt><trkpt lat="43.7291633" lon="11.235385"><ele>146.0</ele><time>2026-04-18T09:16:18.927Z</time></trkpt><trkpt lat="43.72923" lon="11.2352867"><ele>146.0</ele><time>2026-04-18T09:16:21.926Z</time></trkpt><trkpt lat="43.72927" lon="11.2351967"><ele>146.0</ele><time>2026-04-18T09:16:23.927Z</time></trkpt><trkpt lat="43.7293267" lon="11.2350783"><ele>146.0</ele><time>2026-04-18T09:16:25.926Z</time></trkpt><trkpt lat="43.7293767" lon="11.235005"><ele>146.0</ele><time>2026-04-18T09:16:26.926Z</time></trkpt><trkpt lat="43.7294383" lon="11.2349217"><ele>146.5</ele><time>2026-04-18T09:16:27.927Z</time></trkpt><trkpt lat="43.72949" lon="11.234845"><ele>147.0</ele><time>2026-04-18T09:16:28.926Z</time></trkpt><trkpt lat="43.72954" lon="11.2347683"><ele>147.5</ele><time>2026-04-18T09:16:29.926Z</time></trkpt><trkpt lat="43.72959" lon="11.2346917"><ele>148.0</ele><time>2026-04-18T09:16:30.926Z</time></trkpt><trkpt lat="43.7296417" lon="11.2346033"><ele>148.5</ele><time>2026-04-18T09:16:31.926Z</time></trkpt><trkpt lat="43.729695" lon="11.2345167"><ele>149.0</ele><time>2026-04-18T09:16:32.926Z</time></trkpt><trkpt lat="43.7297617" lon="11.2344117"><ele>145.6</ele><time>2026-04-18T09:16:33.926Z</time></trkpt><trkpt lat="43.7298267" lon="11.2343217"><ele>142.2</ele><time>2026-04-18T09:16:34.926Z</time></trkpt><trkpt lat="43.7298983" lon="11.2342467"><ele>138.79999999999998</ele><time>2026-04-18T09:16:35.926Z</time></trkpt><trkpt lat="43.72998" lon="11.2341833"><ele>135.4</ele><time>2026-04-18T09:16:36.926Z</time></trkpt><trkpt lat="43.73006" lon="11.23412"><ele>132.0</ele><time>2026-04-18T09:16:37.926Z</time></trkpt><trkpt lat="43.730135" lon="11.23404"><ele>132.0</ele><time>2026-04-18T09:16:38.926Z</time></trkpt><trkpt lat="43.7302117" lon="11.2339633"><ele>132.0</ele><time>2026-04-18T09:16:39.926Z</time></trkpt><trkpt lat="43.7302767" lon="11.23388"><ele>132.0</ele><time>2026-04-18T09:16:40.927Z</time></trkpt><trkpt lat="43.730345" lon="11.233785"><ele>132.0</ele><time>2026-04-18T09:16:41.926Z</time></trkpt><trkpt lat="43.7303983" lon="11.2336633"><ele>132.0</ele><time>2026-04-18T09:16:42.926Z</time></trkpt><trkpt lat="43.7304233" lon="11.2335417"><ele>132.0</ele><time>2026-04-18T09:16:43.927Z</time></trkpt><trkpt lat="43.730445" lon="11.2333983"><ele>132.0</ele><time>2026-04-18T09:16:44.926Z</time></trkpt><trkpt lat="43.73045" lon="11.233275"><ele>132.0</ele><time>2026-04-18T09:16:45.927Z</time></trkpt><trkpt lat="43.7304417" lon="11.23317"><ele>132.0</ele><time>2026-04-18T09:16:46.926Z</time></trkpt><trkpt lat="43.73043" lon="11.233005"><ele>132.0</ele><time>2026-04-18T09:16:48.926Z</time></trkpt><trkpt lat="43.7304183" lon="11.2328917"><ele>133.0</ele><time>2026-04-18T09:16:50.926Z</time></trkpt><trkpt lat="43.7304017" lon="11.2327967"><ele>134.0</ele><time>2026-04-18T09:16:53.926Z</time></trkpt><trkpt lat="43.7303767" lon="11.2326833"><ele>135.0</ele><time>2026-04-18T09:16:57.926Z</time></trkpt><trkpt lat="43.7303433" lon="11.23258"><ele>136.0</ele><time>2026-04-18T09:17:01.926Z</time></trkpt><trkpt lat="43.7303267" lon="11.2324833"><ele>137.0</ele><time>2026-04-18T09:17:06.927Z</time></trkpt><trkpt lat="43.7303083" lon="11.23238"><ele>138.0</ele><time>2026-04-18T09:17:11.926Z</time></trkpt><trkpt lat="43.7303067" lon="11.2322883"><ele>138.0</ele><time>2026-04-18T09:17:16.926Z</time></trkpt><trkpt lat="43.730285" lon="11.2321933"><ele>138.0</ele><time>2026-04-18T09:17:21.926Z</time></trkpt><trkpt lat="43.730285" lon="11.2320983"><ele>138.0</ele><time>2026-04-18T09:17:27.926Z</time></trkpt><trkpt lat="43.7302833" lon="11.231995"><ele>138.0</ele><time>2026-04-18T09:17:32.927Z</time></trkpt><trkpt lat="43.7302733" lon="11.2319033"><ele>138.0</ele><time>2026-04-18T09:17:38.926Z</time></trkpt><trkpt lat="43.7302883" lon="11.2317733"><ele>138.0</ele><time>2026-04-18T09:17:45.926Z</time></trkpt><trkpt lat="43.730305" lon="11.2316567"><ele>138.0</ele><time>2026-04-18T09:17:51.927Z</time></trkpt><trkpt lat="43.730315" lon="11.2315567"><ele>138.0</ele><time>2026-04-18T09:17:56.926Z</time></trkpt><trkpt lat="43.7303383" lon="11.231465"><ele>138.0</ele><time>2026-04-18T09:18:03.926Z</time></trkpt><trkpt lat="43.730335" lon="11.2313633"><ele>138.0</ele><time>2026-04-18T09:18:09.926Z</time></trkpt><trkpt lat="43.7303167" lon="11.2312583"><ele>138.0</ele><time>2026-04-18T09:18:16.926Z</time></trkpt><trkpt lat="43.7303167" lon="11.2311633"><ele>138.0</ele><time>2026-04-18T09:18:23.926Z</time></trkpt><trkpt lat="43.7302883" lon="11.2310383"><ele>137.0</ele><time>2026-04-18T09:19:01.926Z</time></trkpt><trkpt lat="43.7302383" lon="11.23094"><ele>136.0</ele><time>2026-04-18T09:19:07.926Z</time></trkpt><trkpt lat="43.73024" lon="11.2308483"><ele>135.0</ele><time>2026-04-18T09:19:10.926Z</time></trkpt><trkpt lat="43.7302433" lon="11.230745"><ele>134.0</ele><time>2026-04-18T09:19:13.927Z</time></trkpt><trkpt lat="43.7302183" lon="11.230615"><ele>133.0</ele><time>2026-04-18T09:19:16.927Z</time></trkpt><trkpt lat="43.730195" lon="11.2304933"><ele>132.0</ele><time>2026-04-18T09:19:19.927Z</time></trkpt><trkpt lat="43.73017" lon="11.2303983"><ele>132.0</ele><time>2026-04-18T09:19:21.926Z</time></trkpt><trkpt lat="43.7301433" lon="11.2303117"><ele>132.0</ele><time>2026-04-18T09:19:23.926Z</time></trkpt><trkpt lat="43.730115" lon="11.2302183"><ele>132.0</ele><time>2026-04-18T09:19:25.926Z</time></trkpt><trkpt lat="43.73009" lon="11.230115"><ele>132.0</ele><time>2026-04-18T09:19:27.926Z</time></trkpt><trkpt lat="43.730065" lon="11.230015"><ele>132.0</ele><time>2026-04-18T09:19:29.926Z</time></trkpt><trkpt lat="43.73005" lon="11.2299033"><ele>132.0</ele><time>2026-04-18T09:19:31.926Z</time></trkpt><trkpt lat="43.7300317" lon="11.2297883"><ele>132.0</ele><time>2026-04-18T09:19:33.926Z</time></trkpt><trkpt lat="43.7300167" lon="11.2296783"><ele>132.0</ele><time>2026-04-18T09:19:35.926Z</time></trkpt><trkpt lat="43.7299967" lon="11.22956"><ele>132.0</ele><time>2026-04-18T09:19:37.927Z</time></trkpt><trkpt lat="43.72997" lon="11.2294333"><ele>132.0</ele><time>2026-04-18T09:19:39.926Z</time></trkpt><trkpt lat="43.7299483" lon="11.2293017"><ele>132.0</ele><time>2026-04-18T09:19:41.926Z</time></trkpt><trkpt lat="43.7299267" lon="11.2291583"><ele>132.0</ele><time>2026-04-18T09:19:43.927Z</time></trkpt><trkpt lat="43.7299083" lon="11.229015"><ele>132.0</ele><time>2026-04-18T09:19:45.926Z</time></trkpt><trkpt lat="43.7298917" lon="11.2288783"><ele>132.0</ele><time>2026-04-18T09:19:47.926Z</time></trkpt><trkpt lat="43.7298833" lon="11.2287267"><ele>132.0</ele><time>2026-04-18T09:19:49.927Z</time></trkpt><trkpt lat="43.7299283" lon="11.2285983"><ele>132.0</ele><time>2026-04-18T09:19:51.927Z</time></trkpt><trkpt lat="43.7299667" lon="11.2285233"><ele>132.0</ele><time>2026-04-18T09:19:52.927Z</time></trkpt><trkpt lat="43.73001" lon="11.2284383"><ele>132.0</ele><time>2026-04-18T09:19:53.926Z</time></trkpt><trkpt lat="43.7300583" lon="11.22836"><ele>132.0</ele><time>2026-04-18T09:19:54.926Z</time></trkpt><trkpt lat="43.7301017" lon="11.228295"><ele>132.0</ele><time>2026-04-18T09:19:55.926Z</time></trkpt><trkpt lat="43.7301383" lon="11.2282167"><ele>132.0</ele><time>2026-04-18T09:19:56.926Z</time></trkpt><trkpt lat="43.7301717" lon="11.2281267"><ele>132.0</ele><time>2026-04-18T09:19:57.926Z</time></trkpt><trkpt lat="43.7301983" lon="11.2280333"><ele>132.0</ele><time>2026-04-18T09:19:58.926Z</time></trkpt><trkpt lat="43.7302383" lon="11.2279117"><ele>129.0</ele><time>2026-04-18T09:19:59.926Z</time></trkpt><trkpt lat="43.7302667" lon="11.2277817"><ele>125.99999999999999</ele><time>2026-04-18T09:20:00.926Z</time></trkpt><trkpt lat="43.73032" lon="11.227635"><ele>122.99999999999999</ele><time>2026-04-18T09:20:01.926Z</time></trkpt><trkpt lat="43.730365" lon="11.2275017"><ele>120.0</ele><time>2026-04-18T09:20:02.926Z</time></trkpt><trkpt lat="43.73042" lon="11.2273517"><ele>117.0</ele><time>2026-04-18T09:20:03.926Z</time></trkpt><trkpt lat="43.7304633" lon="11.227205"><ele>116.0</ele><time>2026-04-18T09:20:04.926Z</time></trkpt><trkpt lat="43.7305083" lon="11.22707"><ele>114.99999999999999</ele><time>2026-04-18T09:20:05.927Z</time></trkpt><trkpt lat="43.7305617" lon="11.2269317"><ele>113.99999999999999</ele><time>2026-04-18T09:20:06.926Z</time></trkpt><trkpt lat="43.7306067" lon="11.226795"><ele>113.0</ele><time>2026-04-18T09:20:07.926Z</time></trkpt><trkpt lat="43.73063" lon="11.2266583"><ele>112.0</ele><time>2026-04-18T09:20:08.926Z</time></trkpt><trkpt lat="43.73063" lon="11.226525"><ele>110.25</ele><time>2026-04-18T09:20:09.926Z</time></trkpt><trkpt lat="43.73063" lon="11.2263717"><ele>108.5</ele><time>2026-04-18T09:20:10.926Z</time></trkpt><trkpt lat="43.73063" lon="11.2262017"><ele>106.75</ele><time>2026-04-18T09:20:11.926Z</time></trkpt><trkpt lat="43.730635" lon="11.2260133"><ele>105.0</ele><time>2026-04-18T09:20:12.926Z</time></trkpt><trkpt lat="43.7306367" lon="11.225835"><ele>105.0</ele><time>2026-04-18T09:20:13.926Z</time></trkpt><trkpt lat="43.7306383" lon="11.2256633"><ele>105.0</ele><time>2026-04-18T09:20:14.926Z</time></trkpt><trkpt lat="43.7306383" lon="11.2255"><ele>105.0</ele><time>2026-04-18T09:20:15.926Z</time></trkpt><trkpt lat="43.7306467" lon="11.22535"><ele>105.0</ele><time>2026-04-18T09:20:16.926Z</time></trkpt><trkpt lat="43.7306433" lon="11.2252183"><ele>105.0</ele><time>2026-04-18T09:20:17.927Z</time></trkpt><trkpt lat="43.7306417" lon="11.2250867"><ele>103.6</ele><time>2026-04-18T09:20:18.926Z</time></trkpt><trkpt lat="43.7306267" lon="11.22495"><ele>102.2</ele><time>2026-04-18T09:20:19.927Z</time></trkpt><trkpt lat="43.7305983" lon="11.224795"><ele>100.80000000000001</ele><time>2026-04-18T09:20:20.926Z</time></trkpt><trkpt lat="43.7305683" lon="11.2246583"><ele>99.4</ele><time>2026-04-18T09:20:21.926Z</time></trkpt><trkpt lat="43.7305267" lon="11.224515"><ele>98.0</ele><time>2026-04-18T09:20:22.926Z</time></trkpt><trkpt lat="43.7304783" lon="11.224375"><ele>95.99999999999999</ele><time>2026-04-18T09:20:23.926Z</time></trkpt><trkpt lat="43.730435" lon="11.2242533"><ele>94.0</ele><time>2026-04-18T09:20:24.926Z</time></trkpt><trkpt lat="43.730395" lon="11.22415"><ele>92.0</ele><time>2026-04-18T09:20:25.926Z</time></trkpt><trkpt lat="43.730365" lon="11.224055"><ele>90.0</ele><time>2026-04-18T09:20:26.926Z</time></trkpt><trkpt lat="43.7303383" lon="11.2239283"><ele>88.0</ele><time>2026-04-18T09:20:27.927Z</time></trkpt><trkpt lat="43.7303183" lon="11.22382"><ele>86.0</ele><time>2026-04-18T09:20:28.926Z</time></trkpt><trkpt lat="43.7302983" lon="11.2237083"><ele>85.16666666666667</ele><time>2026-04-18T09:20:29.926Z</time></trkpt><trkpt lat="43.73029" lon="11.223595"><ele>84.33333333333334</ele><time>2026-04-18T09:20:30.926Z</time></trkpt><trkpt lat="43.7303" lon="11.2235033"><ele>83.5</ele><time>2026-04-18T09:20:31.926Z</time></trkpt><trkpt lat="43.7303933" lon="11.2234767"><ele>82.66666666666667</ele><time>2026-04-18T09:20:33.927Z</time></trkpt><trkpt lat="43.7304667" lon="11.223505"><ele>81.83333333333333</ele><time>2026-04-18T09:20:34.926Z</time></trkpt><trkpt lat="43.730535" lon="11.2235267"><ele>81.0</ele><time>2026-04-18T09:20:35.926Z</time></trkpt><trkpt lat="43.7306033" lon="11.2235383"><ele>81.0</ele><time>2026-04-18T09:20:36.926Z</time></trkpt><trkpt lat="43.7307267" lon="11.223515"><ele>81.0</ele><time>2026-04-18T09:20:38.926Z</time></trkpt><trkpt lat="43.7308433" lon="11.2235"><ele>81.0</ele><time>2026-04-18T09:20:40.926Z</time></trkpt><trkpt lat="43.7309683" lon="11.2234967"><ele>81.0</ele><time>2026-04-18T09:20:42.926Z</time></trkpt><trkpt lat="43.7310333" lon="11.223495"><ele>81.0</ele><time>2026-04-18T09:20:43.926Z</time></trkpt><trkpt lat="43.7311033" lon="11.2235133"><ele>80.16666666666667</ele><time>2026-04-18T09:20:44.926Z</time></trkpt><trkpt lat="43.7311717" lon="11.2235417"><ele>79.33333333333333</ele><time>2026-04-18T09:20:45.926Z</time></trkpt><trkpt lat="43.731235" lon="11.2235683"><ele>78.5</ele><time>2026-04-18T09:20:46.926Z</time></trkpt><trkpt lat="43.731295" lon="11.2236"><ele>77.66666666666666</ele><time>2026-04-18T09:20:47.927Z</time></trkpt><trkpt lat="43.7314217" lon="11.22367"><ele>76.83333333333333</ele><time>2026-04-18T09:20:49.927Z</time></trkpt><trkpt lat="43.731485" lon="11.2237233"><ele>76.0</ele><time>2026-04-18T09:20:50.926Z</time></trkpt><trkpt lat="43.73159" lon="11.22383"><ele>76.0</ele><time>2026-04-18T09:20:52.927Z</time></trkpt><trkpt lat="43.731655" lon="11.2238867"><ele>76.0</ele><time>2026-04-18T09:20:53.926Z</time></trkpt><trkpt lat="43.7317317" lon="11.22395"><ele>76.0</ele><time>2026-04-18T09:20:54.927Z</time></trkpt><trkpt lat="43.731795" lon="11.2240183"><ele>76.0</ele><time>2026-04-18T09:20:55.926Z</time></trkpt><trkpt lat="43.7318567" lon="11.22408"><ele>76.0</ele><time>2026-04-18T09:20:56.926Z</time></trkpt><trkpt lat="43.7319083" lon="11.224145"><ele>76.0</ele><time>2026-04-18T09:20:57.926Z</time></trkpt><trkpt lat="43.7319567" lon="11.2242017"><ele>74.57142857142857</ele><time>2026-04-18T09:20:58.927Z</time></trkpt><trkpt lat="43.732005" lon="11.2242667"><ele>73.14285714285715</ele><time>2026-04-18T09:20:59.926Z</time></trkpt><trkpt lat="43.73205" lon="11.224335"><ele>71.71428571428572</ele><time>2026-04-18T09:21:00.926Z</time></trkpt><trkpt lat="43.7321067" lon="11.2244033"><ele>70.28571428571428</ele><time>2026-04-18T09:21:01.926Z</time></trkpt><trkpt lat="43.7321667" lon="11.22447"><ele>68.85714285714286</ele><time>2026-04-18T09:21:02.926Z</time></trkpt><trkpt lat="43.732225" lon="11.22453"><ele>67.42857142857143</ele><time>2026-04-18T09:21:03.926Z</time></trkpt><trkpt lat="43.7322867" lon="11.22459"><ele>66.0</ele><time>2026-04-18T09:21:04.926Z</time></trkpt><trkpt lat="43.732345" lon="11.2246533"><ele>66.0</ele><time>2026-04-18T09:21:05.926Z</time></trkpt><trkpt lat="43.7324" lon="11.224715"><ele>66.0</ele><time>2026-04-18T09:21:06.926Z</time></trkpt><trkpt lat="43.7324533" lon="11.2247783"><ele>66.0</ele><time>2026-04-18T09:21:07.926Z</time></trkpt><trkpt lat="43.7325067" lon="11.2248417"><ele>66.0</ele><time>2026-04-18T09:21:08.926Z</time></trkpt><trkpt lat="43.7325583" lon="11.224905"><ele>66.0</ele><time>2026-04-18T09:21:09.927Z</time></trkpt><trkpt lat="43.7326833" lon="11.22501"><ele>66.0</ele><time>2026-04-18T09:21:11.926Z</time></trkpt><trkpt lat="43.7327583" lon="11.22506"><ele>65.0</ele><time>2026-04-18T09:21:12.927Z</time></trkpt><trkpt lat="43.732835" lon="11.2250933"><ele>64.0</ele><time>2026-04-18T09:21:13.926Z</time></trkpt><trkpt lat="43.7329" lon="11.2251217"><ele>63.0</ele><time>2026-04-18T09:21:14.926Z</time></trkpt><trkpt lat="43.7329717" lon="11.2251417"><ele>62.0</ele><time>2026-04-18T09:21:15.926Z</time></trkpt><trkpt lat="43.73305" lon="11.2251517"><ele>61.0</ele><time>2026-04-18T09:21:16.926Z</time></trkpt><trkpt lat="43.7331333" lon="11.2251567"><ele>60.0</ele><time>2026-04-18T09:21:17.926Z</time></trkpt><trkpt lat="43.7332067" lon="11.2251467"><ele>60.0</ele><time>2026-04-18T09:21:18.926Z</time></trkpt><trkpt lat="43.73329" lon="11.2251433"><ele>60.0</ele><time>2026-04-18T09:21:19.927Z</time></trkpt><trkpt lat="43.7333667" lon="11.2251267"><ele>60.0</ele><time>2026-04-18T09:21:20.926Z</time></trkpt><trkpt lat="43.7334367" lon="11.2251"><ele>60.0</ele><time>2026-04-18T09:21:21.926Z</time></trkpt><trkpt lat="43.7335183" lon="11.22507"><ele>60.0</ele><time>2026-04-18T09:21:22.926Z</time></trkpt><trkpt lat="43.733605" lon="11.2250517"><ele>60.0</ele><time>2026-04-18T09:21:23.926Z</time></trkpt><trkpt lat="43.7336967" lon="11.2250333"><ele>59.833333333333336</ele><time>2026-04-18T09:21:24.927Z</time></trkpt><trkpt lat="43.7337833" lon="11.2250133"><ele>59.66666666666667</ele><time>2026-04-18T09:21:25.927Z</time></trkpt><trkpt lat="43.733865" lon="11.224965"><ele>59.5</ele><time>2026-04-18T09:21:26.926Z</time></trkpt><trkpt lat="43.7339433" lon="11.224925"><ele>59.333333333333336</ele><time>2026-04-18T09:21:27.926Z</time></trkpt><trkpt lat="43.7340233" lon="11.224885"><ele>59.16666666666667</ele><time>2026-04-18T09:21:28.926Z</time></trkpt><trkpt lat="43.7341067" lon="11.2248433"><ele>59.0</ele><time>2026-04-18T09:21:29.927Z</time></trkpt><trkpt lat="43.73419" lon="11.2248033"><ele>58.833333333333336</ele><time>2026-04-18T09:21:30.926Z</time></trkpt><trkpt lat="43.7342833" lon="11.224785"><ele>58.66666666666667</ele><time>2026-04-18T09:21:31.926Z</time></trkpt><trkpt lat="43.7343617" lon="11.22476"><ele>58.5</ele><time>2026-04-18T09:21:32.926Z</time></trkpt><trkpt lat="43.734425" lon="11.2247467"><ele>58.33333333333333</ele><time>2026-04-18T09:21:33.926Z</time></trkpt><trkpt lat="43.734505" lon="11.22473"><ele>58.166666666666664</ele><time>2026-04-18T09:21:34.926Z</time></trkpt><trkpt lat="43.7345817" lon="11.224715"><ele>58.0</ele><time>2026-04-18T09:21:35.926Z</time></trkpt><trkpt lat="43.7346533" lon="11.2247"><ele>57.99999999999999</ele><time>2026-04-18T09:21:36.927Z</time></trkpt><trkpt lat="43.7347333" lon="11.2247"><ele>58.0</ele><time>2026-04-18T09:21:37.926Z</time></trkpt><trkpt lat="43.7348067" lon="11.2246967"><ele>58.0</ele><time>2026-04-18T09:21:38.927Z</time></trkpt><trkpt lat="43.7348733" lon="11.2246967"><ele>58.0</ele><time>2026-04-18T09:21:39.926Z</time></trkpt><trkpt lat="43.7349367" lon="11.2247033"><ele>57.99999999999999</ele><time>2026-04-18T09:21:40.927Z</time></trkpt><trkpt lat="43.735055" lon="11.2247083"><ele>58.0</ele><time>2026-04-18T09:21:42.926Z</time></trkpt><trkpt lat="43.7351567" lon="11.2246917"><ele>58.4</ele><time>2026-04-18T09:21:44.927Z</time></trkpt><trkpt lat="43.73526" lon="11.22468"><ele>58.8</ele><time>2026-04-18T09:21:46.926Z</time></trkpt><trkpt lat="43.73536" lon="11.2246767"><ele>59.2</ele><time>2026-04-18T09:21:48.926Z</time></trkpt><trkpt lat="43.73547" lon="11.2246767"><ele>59.6</ele><time>2026-04-18T09:21:50.926Z</time></trkpt><trkpt lat="43.735575" lon="11.2246883"><ele>60.0</ele><time>2026-04-18T09:21:52.927Z</time></trkpt><trkpt lat="43.7356817" lon="11.2246967"><ele>60.0</ele><time>2026-04-18T09:21:54.926Z</time></trkpt><trkpt lat="43.7357783" lon="11.2246933"><ele>60.0</ele><time>2026-04-18T09:21:56.926Z</time></trkpt><trkpt lat="43.7358733" lon="11.224685"><ele>60.0</ele><time>2026-04-18T09:21:58.927Z</time></trkpt><trkpt lat="43.7359617" lon="11.2246883"><ele>60.0</ele><time>2026-04-18T09:22:00.926Z</time></trkpt><trkpt lat="43.7360467" lon="11.224685"><ele>60.0</ele><time>2026-04-18T09:22:02.926Z</time></trkpt><trkpt lat="43.736125" lon="11.2246867"><ele>60.0</ele><time>2026-04-18T09:22:04.926Z</time></trkpt><trkpt lat="43.7361917" lon="11.224695"><ele>60.333333333333336</ele><time>2026-04-18T09:22:06.926Z</time></trkpt><trkpt lat="43.7362583" lon="11.2246883"><ele>60.66666666666667</ele><time>2026-04-18T09:22:08.927Z</time></trkpt><trkpt lat="43.7363533" lon="11.2246933"><ele>61.0</ele><time>2026-04-18T09:22:11.926Z</time></trkpt><trkpt lat="43.73642" lon="11.22465"><ele>61.333333333333336</ele><time>2026-04-18T09:22:13.926Z</time></trkpt><trkpt lat="43.736475" lon="11.2246017"><ele>61.66666666666667</ele><time>2026-04-18T09:22:15.927Z</time></trkpt><trkpt lat="43.736465" lon="11.2244717"><ele>62.0</ele><time>2026-04-18T09:22:18.927Z</time></trkpt><trkpt lat="43.736445" lon="11.2243417"><ele>62.00000000000001</ele><time>2026-04-18T09:22:21.926Z</time></trkpt><trkpt lat="43.7364433" lon="11.2242233"><ele>62.0</ele><time>2026-04-18T09:22:24.926Z</time></trkpt><trkpt lat="43.7364633" lon="11.2240967"><ele>62.0</ele><time>2026-04-18T09:22:27.926Z</time></trkpt><trkpt lat="43.7364667" lon="11.224"><ele>62.0</ele><time>2026-04-18T09:22:29.926Z</time></trkpt><trkpt lat="43.7364617" lon="11.223905"><ele>62.00000000000001</ele><time>2026-04-18T09:22:31.926Z</time></trkpt><trkpt lat="43.73646" lon="11.223815"><ele>62.0</ele><time>2026-04-18T09:22:33.926Z</time></trkpt><trkpt lat="43.73651" lon="11.2237433"><ele>62.16666666666667</ele><time>2026-04-18T09:22:37.926Z</time></trkpt><trkpt lat="43.7365483" lon="11.2236467"><ele>62.333333333333336</ele><time>2026-04-18T09:22:42.926Z</time></trkpt><trkpt lat="43.736605" lon="11.2235583"><ele>62.5</ele><time>2026-04-18T09:22:46.926Z</time></trkpt><trkpt lat="43.7366417" lon="11.2234767"><ele>62.66666666666667</ele><time>2026-04-18T09:22:50.926Z</time></trkpt><trkpt lat="43.736675" lon="11.2233967"><ele>62.833333333333336</ele><time>2026-04-18T09:22:55.927Z</time></trkpt><trkpt lat="43.73669" lon="11.2232967"><ele>63.0</ele><time>2026-04-18T09:23:02.926Z</time></trkpt><trkpt lat="43.736715" lon="11.223195"><ele>63.42857142857143</ele><time>2026-04-18T09:23:06.926Z</time></trkpt><trkpt lat="43.73677" lon="11.2231233"><ele>63.85714285714286</ele><time>2026-04-18T09:23:10.926Z</time></trkpt><trkpt lat="43.7368167" lon="11.2230533"><ele>64.28571428571428</ele><time>2026-04-18T09:23:14.927Z</time></trkpt><trkpt lat="43.7368367" lon="11.2229533"><ele>64.71428571428572</ele><time>2026-04-18T09:23:18.927Z</time></trkpt><trkpt lat="43.7368733" lon="11.22287"><ele>65.14285714285714</ele><time>2026-04-18T09:23:22.926Z</time></trkpt><trkpt lat="43.7369167" lon="11.2228067"><ele>65.57142857142857</ele><time>2026-04-18T09:23:26.926Z</time></trkpt><trkpt lat="43.736955" lon="11.222725"><ele>66.0</ele><time>2026-04-18T09:23:30.927Z</time></trkpt><trkpt lat="43.7369667" lon="11.2226267"><ele>66.83333333333333</ele><time>2026-04-18T09:23:35.927Z</time></trkpt><trkpt lat="43.7370167" lon="11.2224983"><ele>67.66666666666667</ele><time>2026-04-18T09:23:42.926Z</time></trkpt><trkpt lat="43.7370133" lon="11.222405"><ele>68.5</ele><time>2026-04-18T09:23:47.927Z</time></trkpt><trkpt lat="43.7370617" lon="11.222325"><ele>69.33333333333334</ele><time>2026-04-18T09:23:52.927Z</time></trkpt><trkpt lat="43.7371017" lon="11.2222417"><ele>70.16666666666667</ele><time>2026-04-18T09:23:57.927Z</time></trkpt><trkpt lat="43.73709" lon="11.2221417"><ele>71.0</ele><time>2026-04-18T09:24:02.926Z</time></trkpt><trkpt lat="43.7371083" lon="11.2220567"><ele>71.71428571428571</ele><time>2026-04-18T09:24:06.926Z</time></trkpt><trkpt lat="43.7371267" lon="11.2219567"><ele>72.42857142857142</ele><time>2026-04-18T09:24:11.927Z</time></trkpt><trkpt lat="43.7371517" lon="11.2218667"><ele>73.14285714285714</ele><time>2026-04-18T09:24:16.927Z</time></trkpt><trkpt lat="43.7371633" lon="11.221775"><ele>73.85714285714286</ele><time>2026-04-18T09:24:20.926Z</time></trkpt><trkpt lat="43.7371667" lon="11.22168"><ele>74.57142857142858</ele><time>2026-04-18T09:24:25.926Z</time></trkpt><trkpt lat="43.7371917" lon="11.221595"><ele>75.28571428571428</ele><time>2026-04-18T09:24:30.927Z</time></trkpt><trkpt lat="43.737255" lon="11.221535"><ele>76.0</ele><time>2026-04-18T09:24:35.927Z</time></trkpt><trkpt lat="43.7372717" lon="11.2214433"><ele>76.57142857142857</ele><time>2026-04-18T09:24:40.926Z</time></trkpt><trkpt lat="43.737295" lon="11.2213517"><ele>77.14285714285715</ele><time>2026-04-18T09:24:45.927Z</time></trkpt><trkpt lat="43.7373117" lon="11.2212517"><ele>77.71428571428572</ele><time>2026-04-18T09:24:51.926Z</time></trkpt><trkpt lat="43.73733" lon="11.2211533"><ele>78.28571428571428</ele><time>2026-04-18T09:24:56.926Z</time></trkpt><trkpt lat="43.73736" lon="11.2210733"><ele>78.85714285714286</ele><time>2026-04-18T09:25:00.926Z</time></trkpt><trkpt lat="43.73739" lon="11.22098"><ele>79.42857142857143</ele><time>2026-04-18T09:25:05.926Z</time></trkpt><trkpt lat="43.7374367" lon="11.2209167"><ele>80.0</ele><time>2026-04-18T09:25:09.925Z</time></trkpt><trkpt lat="43.737495" lon="11.2208767"><ele>80.0</ele><time>2026-04-18T09:25:13.926Z</time></trkpt><trkpt lat="43.7375683" lon="11.22084"><ele>80.0</ele><time>2026-04-18T09:25:18.925Z</time></trkpt><trkpt lat="43.7376317" lon="11.22081"><ele>80.0</ele><time>2026-04-18T09:25:22.925Z</time></trkpt><trkpt lat="43.7377017" lon="11.220775"><ele>80.0</ele><time>2026-04-18T09:25:27.926Z</time></trkpt><trkpt lat="43.7377683" lon="11.22076"><ele>80.0</ele><time>2026-04-18T09:25:32.925Z</time></trkpt><trkpt lat="43.7378533" lon="11.2207733"><ele>80.0</ele><time>2026-04-18T09:25:38.925Z</time></trkpt><trkpt lat="43.7379883" lon="11.2207767"><ele>80.85714285714286</ele><time>2026-04-18T09:25:47.925Z</time></trkpt><trkpt lat="43.738055" lon="11.22079"><ele>81.71428571428572</ele><time>2026-04-18T09:25:50.926Z</time></trkpt><trkpt lat="43.738135" lon="11.2207967"><ele>82.57142857142858</ele><time>2026-04-18T09:25:54.925Z</time></trkpt><trkpt lat="43.7382017" lon="11.2207967"><ele>83.42857142857143</ele><time>2026-04-18T09:25:58.925Z</time></trkpt><trkpt lat="43.7382717" lon="11.2207933"><ele>84.28571428571429</ele><time>2026-04-18T09:26:02.925Z</time></trkpt><trkpt lat="43.7383367" lon="11.2207783"><ele>85.14285714285715</ele><time>2026-04-18T09:26:05.925Z</time></trkpt><trkpt lat="43.7384017" lon="11.2207733"><ele>86.0</ele><time>2026-04-18T09:26:08.925Z</time></trkpt><trkpt lat="43.7384667" lon="11.22077"><ele>86.00000000000001</ele><time>2026-04-18T09:26:11.925Z</time></trkpt><trkpt lat="43.7385383" lon="11.2207567"><ele>86.0</ele><time>2026-04-18T09:26:14.925Z</time></trkpt><trkpt lat="43.7386083" lon="11.2207383"><ele>86.0</ele><time>2026-04-18T09:26:17.926Z</time></trkpt><trkpt lat="43.738685" lon="11.2207117"><ele>86.0</ele><time>2026-04-18T09:26:21.925Z</time></trkpt><trkpt lat="43.7387517" lon="11.2206883"><ele>86.0</ele><time>2026-04-18T09:26:24.925Z</time></trkpt><trkpt lat="43.73882" lon="11.2206733"><ele>86.00000000000001</ele><time>2026-04-18T09:26:27.925Z</time></trkpt><trkpt lat="43.7388867" lon="11.2206633"><ele>86.0</ele><time>2026-04-18T09:26:30.925Z</time></trkpt><trkpt lat="43.7389633" lon="11.220645"><ele>88.5</ele><time>2026-04-18T09:26:34.926Z</time></trkpt><trkpt lat="43.739035" lon="11.22064"><ele>91.0</ele><time>2026-04-18T09:26:38.925Z</time></trkpt><trkpt lat="43.7390983" lon="11.2206317"><ele>93.5</ele><time>2026-04-18T09:26:41.925Z</time></trkpt><trkpt lat="43.7391733" lon="11.2206183"><ele>96.0</ele><time>2026-04-18T09:26:45.925Z</time></trkpt><trkpt lat="43.7392367" lon="11.22061"><ele>98.49999999999999</ele><time>2026-04-18T09:26:49.925Z</time></trkpt><trkpt lat="43.7393167" lon="11.2205933"><ele>101.0</ele><time>2026-04-18T09:26:53.925Z</time></trkpt><trkpt lat="43.7394433" lon="11.2205817"><ele>101.16666666666666</ele><time>2026-04-18T09:27:01.926Z</time></trkpt><trkpt lat="43.7395083" lon="11.22056"><ele>101.33333333333333</ele><time>2026-04-18T09:27:04.925Z</time></trkpt><trkpt lat="43.739565" lon="11.2205217"><ele>101.5</ele><time>2026-04-18T09:27:07.925Z</time></trkpt><trkpt lat="43.73965" lon="11.220515"><ele>101.66666666666666</ele><time>2026-04-18T09:27:11.925Z</time></trkpt><trkpt lat="43.7397233" lon="11.2204883"><ele>101.83333333333333</ele><time>2026-04-18T09:27:14.925Z</time></trkpt><trkpt lat="43.7398017" lon="11.2204633"><ele>102.0</ele><time>2026-04-18T09:27:17.926Z</time></trkpt><trkpt lat="43.7398783" lon="11.2204383"><ele>102.0</ele><time>2026-04-18T09:27:20.925Z</time></trkpt><trkpt lat="43.7399633" lon="11.2204"><ele>102.0</ele><time>2026-04-18T09:27:24.925Z</time></trkpt><trkpt lat="43.7400383" lon="11.2203767"><ele>102.0</ele><time>2026-04-18T09:27:27.926Z</time></trkpt><trkpt lat="43.740125" lon="11.2203517"><ele>102.0</ele><time>2026-04-18T09:27:30.925Z</time></trkpt><trkpt lat="43.7402117" lon="11.2203317"><ele>102.0</ele><time>2026-04-18T09:27:33.925Z</time></trkpt><trkpt lat="43.740275" lon="11.2203233"><ele>102.0</ele><time>2026-04-18T09:27:35.925Z</time></trkpt><trkpt lat="43.74035" lon="11.2203183"><ele>101.66666666666667</ele><time>2026-04-18T09:27:38.925Z</time></trkpt><trkpt lat="43.7404333" lon="11.2203033"><ele>101.33333333333334</ele><time>2026-04-18T09:27:42.926Z</time></trkpt><trkpt lat="43.7405033" lon="11.2202867"><ele>101.0</ele><time>2026-04-18T09:27:45.925Z</time></trkpt><trkpt lat="43.7405783" lon="11.22027"><ele>100.66666666666667</ele><time>2026-04-18T09:27:48.925Z</time></trkpt><trkpt lat="43.7406667" lon="11.22026"><ele>100.33333333333334</ele><time>2026-04-18T09:27:51.925Z</time></trkpt><trkpt lat="43.7407417" lon="11.2202633"><ele>100.0</ele><time>2026-04-18T09:27:53.925Z</time></trkpt><trkpt lat="43.7408333" lon="11.2202717"><ele>100.0</ele><time>2026-04-18T09:27:55.925Z</time></trkpt><trkpt lat="43.7409333" lon="11.2203017"><ele>100.0</ele><time>2026-04-18T09:27:57.926Z</time></trkpt><trkpt lat="43.7410367" lon="11.220335"><ele>100.0</ele><time>2026-04-18T09:27:59.926Z</time></trkpt><trkpt lat="43.74112" lon="11.2203917"><ele>100.0</ele><time>2026-04-18T09:28:01.926Z</time></trkpt><trkpt lat="43.741205" lon="11.2204583"><ele>100.0</ele><time>2026-04-18T09:28:03.925Z</time></trkpt><trkpt lat="43.741285" lon="11.220515"><ele>99.16666666666667</ele><time>2026-04-18T09:28:05.925Z</time></trkpt><trkpt lat="43.7413617" lon="11.2205883"><ele>98.33333333333334</ele><time>2026-04-18T09:28:07.925Z</time></trkpt><trkpt lat="43.7414233" lon="11.2206167"><ele>97.5</ele><time>2026-04-18T09:28:09.925Z</time></trkpt><trkpt lat="43.7415033" lon="11.2206733"><ele>96.66666666666667</ele><time>2026-04-18T09:28:12.925Z</time></trkpt><trkpt lat="43.7415683" lon="11.22072"><ele>95.83333333333334</ele><time>2026-04-18T09:28:14.925Z</time></trkpt><trkpt lat="43.7416367" lon="11.2207733"><ele>95.0</ele><time>2026-04-18T09:28:16.926Z</time></trkpt><trkpt lat="43.7416767" lon="11.2208617"><ele>94.0</ele><time>2026-04-18T09:28:18.925Z</time></trkpt><trkpt lat="43.7417117" lon="11.220955"><ele>93.0</ele><time>2026-04-18T09:28:20.925Z</time></trkpt><trkpt lat="43.74176" lon="11.2210583"><ele>92.0</ele><time>2026-04-18T09:28:23.926Z</time></trkpt><trkpt lat="43.7418033" lon="11.2211517"><ele>91.0</ele><time>2026-04-18T09:28:26.925Z</time></trkpt><trkpt lat="43.7418717" lon="11.2212067"><ele>90.0</ele><time>2026-04-18T09:28:29.925Z</time></trkpt><trkpt lat="43.7419283" lon="11.2212617"><ele>89.0</ele><time>2026-04-18T09:28:32.925Z</time></trkpt><trkpt lat="43.7419883" lon="11.2213217"><ele>88.85714285714285</ele><time>2026-04-18T09:28:35.926Z</time></trkpt><trkpt lat="43.7420483" lon="11.2213883"><ele>88.71428571428571</ele><time>2026-04-18T09:28:39.925Z</time></trkpt><trkpt lat="43.7420983" lon="11.2214733"><ele>88.57142857142857</ele><time>2026-04-18T09:28:44.925Z</time></trkpt><trkpt lat="43.742135" lon="11.221565"><ele>88.42857142857142</ele><time>2026-04-18T09:28:49.925Z</time></trkpt><trkpt lat="43.7421717" lon="11.221655"><ele>88.28571428571428</ele><time>2026-04-18T09:28:53.926Z</time></trkpt><trkpt lat="43.74219" lon="11.22174"><ele>88.14285714285714</ele><time>2026-04-18T09:28:57.925Z</time></trkpt><trkpt lat="43.7422383" lon="11.2218117"><ele>88.0</ele><time>2026-04-18T09:29:01.925Z</time></trkpt><trkpt lat="43.7423033" lon="11.2218833"><ele>88.0</ele><time>2026-04-18T09:29:05.925Z</time></trkpt><trkpt lat="43.7423467" lon="11.2219467"><ele>88.0</ele><time>2026-04-18T09:29:08.925Z</time></trkpt><trkpt lat="43.7424017" lon="11.2220167"><ele>88.0</ele><time>2026-04-18T09:29:12.925Z</time></trkpt><trkpt lat="43.7424517" lon="11.2221017"><ele>88.0</ele><time>2026-04-18T09:29:16.925Z</time></trkpt><trkpt lat="43.7424967" lon="11.222165"><ele>88.0</ele><time>2026-04-18T09:29:19.925Z</time></trkpt><trkpt lat="43.7425517" lon="11.2222267"><ele>88.0</ele><time>2026-04-18T09:29:22.925Z</time></trkpt><trkpt lat="43.7426033" lon="11.2223167"><ele>88.0</ele><time>2026-04-18T09:29:26.925Z</time></trkpt><trkpt lat="43.7426617" lon="11.2223883"><ele>89.0</ele><time>2026-04-18T09:29:30.925Z</time></trkpt><trkpt lat="43.742715" lon="11.22246"><ele>90.0</ele><time>2026-04-18T09:29:34.926Z</time></trkpt><trkpt lat="43.7427733" lon="11.222515"><ele>91.0</ele><time>2026-04-18T09:29:38.925Z</time></trkpt><trkpt lat="43.74283" lon="11.2225817"><ele>92.0</ele><time>2026-04-18T09:29:43.925Z</time></trkpt><trkpt lat="43.74288" lon="11.2226483"><ele>93.0</ele><time>2026-04-18T09:29:46.926Z</time></trkpt><trkpt lat="43.7429417" lon="11.22272"><ele>94.0</ele><time>2026-04-18T09:29:50.925Z</time></trkpt><trkpt lat="43.74301" lon="11.22278"><ele>94.0</ele><time>2026-04-18T09:29:54.925Z</time></trkpt><trkpt lat="43.7430667" lon="11.22282"><ele>94.0</ele><time>2026-04-18T09:29:58.925Z</time></trkpt><trkpt lat="43.74311" lon="11.2229"><ele>94.0</ele><time>2026-04-18T09:30:03.925Z</time></trkpt><trkpt lat="43.7431867" lon="11.2229933"><ele>94.0</ele><time>2026-04-18T09:30:10.925Z</time></trkpt><trkpt lat="43.74328" lon="11.223105"><ele>94.0</ele><time>2026-04-18T09:30:18.926Z</time></trkpt><trkpt lat="43.7433183" lon="11.2231817"><ele>94.0</ele><time>2026-04-18T09:30:22.925Z</time></trkpt><trkpt lat="43.7433533" lon="11.223255"><ele>95.28571428571428</ele><time>2026-04-18T09:30:25.925Z</time></trkpt><trkpt lat="43.7433933" lon="11.22334"><ele>96.57142857142857</ele><time>2026-04-18T09:30:29.925Z</time></trkpt><trkpt lat="43.7434217" lon="11.2234217"><ele>97.85714285714286</ele><time>2026-04-18T09:30:33.925Z</time></trkpt><trkpt lat="43.7434467" lon="11.2235183"><ele>99.14285714285714</ele><time>2026-04-18T09:30:38.925Z</time></trkpt><trkpt lat="43.7434933" lon="11.2236367"><ele>100.42857142857143</ele><time>2026-04-18T09:30:45.925Z</time></trkpt><trkpt lat="43.7435133" lon="11.2237267"><ele>101.71428571428571</ele><time>2026-04-18T09:30:50.926Z</time></trkpt><trkpt lat="43.7435533" lon="11.2237983"><ele>103.0</ele><time>2026-04-18T09:30:55.925Z</time></trkpt><trkpt lat="43.7435967" lon="11.223875"><ele>103.33333333333334</ele><time>2026-04-18T09:30:59.925Z</time></trkpt><trkpt lat="43.7436467" lon="11.223955"><ele>103.66666666666667</ele><time>2026-04-18T09:31:04.926Z</time></trkpt><trkpt lat="43.7437033" lon="11.2240317"><ele>104.0</ele><time>2026-04-18T09:31:10.926Z</time></trkpt><trkpt lat="43.7437767" lon="11.2241117"><ele>104.33333333333334</ele><time>2026-04-18T09:32:02.926Z</time></trkpt><trkpt lat="43.7438367" lon="11.2241667"><ele>104.66666666666667</ele><time>2026-04-18T09:32:07.926Z</time></trkpt><trkpt lat="43.7439083" lon="11.2242"><ele>105.0</ele><time>2026-04-18T09:32:12.925Z</time></trkpt><trkpt lat="43.7439733" lon="11.2242117"><ele>105.28571428571429</ele><time>2026-04-18T09:32:17.925Z</time></trkpt><trkpt lat="43.74404" lon="11.2242117"><ele>105.57142857142857</ele><time>2026-04-18T09:32:24.925Z</time></trkpt><trkpt lat="43.744105" lon="11.224215"><ele>105.85714285714286</ele><time>2026-04-18T09:32:29.926Z</time></trkpt><trkpt lat="43.7441733" lon="11.2242467"><ele>106.14285714285714</ele><time>2026-04-18T09:32:33.925Z</time></trkpt><trkpt lat="43.74425" lon="11.22426"><ele>106.42857142857143</ele><time>2026-04-18T09:32:37.925Z</time></trkpt><trkpt lat="43.7443233" lon="11.2242917"><ele>106.71428571428572</ele><time>2026-04-18T09:32:41.926Z</time></trkpt><trkpt lat="43.7443917" lon="11.2243033"><ele>107.0</ele><time>2026-04-18T09:32:44.925Z</time></trkpt><trkpt lat="43.7444683" lon="11.2243083"><ele>107.00000000000001</ele><time>2026-04-18T09:32:47.925Z</time></trkpt><trkpt lat="43.74454" lon="11.224305"><ele>107.0</ele><time>2026-04-18T09:32:50.925Z</time></trkpt><trkpt lat="43.7446083" lon="11.22433"><ele>107.0</ele><time>2026-04-18T09:32:53.925Z</time></trkpt><trkpt lat="43.7446767" lon="11.2243667"><ele>107.0</ele><time>2026-04-18T09:32:56.925Z</time></trkpt><trkpt lat="43.7447483" lon="11.2244017"><ele>107.0</ele><time>2026-04-18T09:32:59.925Z</time></trkpt><trkpt lat="43.7448083" lon="11.2244467"><ele>107.00000000000001</ele><time>2026-04-18T09:33:02.925Z</time></trkpt><trkpt lat="43.744875" lon="11.224505"><ele>107.0</ele><time>2026-04-18T09:33:05.925Z</time></trkpt><trkpt lat="43.74494" lon="11.22456"><ele>106.99999999999999</ele><time>2026-04-18T09:33:08.925Z</time></trkpt><trkpt lat="43.74499" lon="11.2246217"><ele>107.0</ele><time>2026-04-18T09:33:11.925Z</time></trkpt><trkpt lat="43.74507" lon="11.2246967"><ele>107.0</ele><time>2026-04-18T09:33:14.926Z</time></trkpt><trkpt lat="43.74513" lon="11.22475"><ele>107.0</ele><time>2026-04-18T09:33:16.926Z</time></trkpt><trkpt lat="43.7451867" lon="11.224815"><ele>106.99999999999999</ele><time>2026-04-18T09:33:18.925Z</time></trkpt><trkpt lat="43.7452517" lon="11.2248983"><ele>107.0</ele><time>2026-04-18T09:33:21.926Z</time></trkpt><trkpt lat="43.745325" lon="11.2249717"><ele>107.0</ele><time>2026-04-18T09:33:24.925Z</time></trkpt><trkpt lat="43.7454017" lon="11.2250217"><ele>106.99999999999999</ele><time>2026-04-18T09:33:27.926Z</time></trkpt><trkpt lat="43.7454633" lon="11.22504"><ele>106.99999999999999</ele><time>2026-04-18T09:33:29.925Z</time></trkpt><trkpt lat="43.7455517" lon="11.2250633"><ele>107.0</ele><time>2026-04-18T09:33:31.925Z</time></trkpt><trkpt lat="43.745665" lon="11.2250917"><ele>107.0</ele><time>2026-04-18T09:33:33.926Z</time></trkpt><trkpt lat="43.7457783" lon="11.225125"><ele>106.99999999999999</ele><time>2026-04-18T09:33:35.925Z</time></trkpt><trkpt lat="43.7458417" lon="11.2251367"><ele>107.0</ele><time>2026-04-18T09:33:36.925Z</time></trkpt><trkpt lat="43.745945" lon="11.2251683"><ele>107.0</ele><time>2026-04-18T09:33:38.925Z</time></trkpt><trkpt lat="43.746025" lon="11.2251967"><ele>107.0</ele><time>2026-04-18T09:33:40.926Z</time></trkpt><trkpt lat="43.7461067" lon="11.2251933"><ele>106.99999999999999</ele><time>2026-04-18T09:33:42.925Z</time></trkpt><trkpt lat="43.74617" lon="11.2252017"><ele>107.0</ele><time>2026-04-18T09:33:44.926Z</time></trkpt><trkpt lat="43.7462517" lon="11.2252317"><ele>105.83333333333333</ele><time>2026-04-18T09:33:46.925Z</time></trkpt><trkpt lat="43.7463283" lon="11.225255"><ele>104.66666666666666</ele><time>2026-04-18T09:33:48.925Z</time></trkpt><trkpt lat="43.7464417" lon="11.2253167"><ele>103.5</ele><time>2026-04-18T09:33:50.925Z</time></trkpt><trkpt lat="43.746515" lon="11.2253417"><ele>102.33333333333334</ele><time>2026-04-18T09:33:51.925Z</time></trkpt><trkpt lat="43.7465833" lon="11.2253583"><ele>101.16666666666667</ele><time>2026-04-18T09:33:52.925Z</time></trkpt><trkpt lat="43.746655" lon="11.22539"><ele>100.0</ele><time>2026-04-18T09:33:53.926Z</time></trkpt><trkpt lat="43.746735" lon="11.22541"><ele>100.0</ele><time>2026-04-18T09:33:54.926Z</time></trkpt><trkpt lat="43.7468367" lon="11.2254267"><ele>100.0</ele><time>2026-04-18T09:33:55.925Z</time></trkpt><trkpt lat="43.746945" lon="11.2254383"><ele>100.0</ele><time>2026-04-18T09:33:56.926Z</time></trkpt><trkpt lat="43.7470417" lon="11.2254633"><ele>100.0</ele><time>2026-04-18T09:33:57.926Z</time></trkpt><trkpt lat="43.7471317" lon="11.2254733"><ele>100.0</ele><time>2026-04-18T09:33:58.926Z</time></trkpt><trkpt lat="43.7472317" lon="11.2254817"><ele>99.28571428571429</ele><time>2026-04-18T09:33:59.925Z</time></trkpt><trkpt lat="43.7473067" lon="11.22547"><ele>98.57142857142857</ele><time>2026-04-18T09:34:00.925Z</time></trkpt><trkpt lat="43.7473717" lon="11.22546"><ele>97.85714285714286</ele><time>2026-04-18T09:34:01.925Z</time></trkpt><trkpt lat="43.7474483" lon="11.22544"><ele>97.14285714285714</ele><time>2026-04-18T09:34:02.925Z</time></trkpt><trkpt lat="43.747525" lon="11.2254217"><ele>96.42857142857143</ele><time>2026-04-18T09:34:03.926Z</time></trkpt><trkpt lat="43.7475933" lon="11.225415"><ele>95.71428571428572</ele><time>2026-04-18T09:34:04.925Z</time></trkpt><trkpt lat="43.7476583" lon="11.2254117"><ele>95.0</ele><time>2026-04-18T09:34:05.925Z</time></trkpt><trkpt lat="43.7477333" lon="11.2254017"><ele>94.83333333333334</ele><time>2026-04-18T09:34:06.925Z</time></trkpt><trkpt lat="43.7477983" lon="11.2253967"><ele>94.66666666666667</ele><time>2026-04-18T09:34:07.926Z</time></trkpt><trkpt lat="43.7479117" lon="11.2253883"><ele>94.5</ele><time>2026-04-18T09:34:09.926Z</time></trkpt><trkpt lat="43.74801" lon="11.225395"><ele>94.33333333333333</ele><time>2026-04-18T09:34:11.925Z</time></trkpt><trkpt lat="43.7481" lon="11.2253883"><ele>94.16666666666666</ele><time>2026-04-18T09:34:13.925Z</time></trkpt><trkpt lat="43.748175" lon="11.2253933"><ele>94.0</ele><time>2026-04-18T09:34:15.925Z</time></trkpt><trkpt lat="43.7482567" lon="11.2254017"><ele>94.0</ele><time>2026-04-18T09:34:17.925Z</time></trkpt><trkpt lat="43.74833" lon="11.2254217"><ele>94.0</ele><time>2026-04-18T09:34:19.924Z</time></trkpt><trkpt lat="43.7484083" lon="11.2254683"><ele>94.0</ele><time>2026-04-18T09:34:21.924Z</time></trkpt><trkpt lat="43.7484867" lon="11.2255017"><ele>94.0</ele><time>2026-04-18T09:34:23.924Z</time></trkpt><trkpt lat="43.7485617" lon="11.2255633"><ele>94.0</ele><time>2026-04-18T09:34:25.924Z</time></trkpt><trkpt lat="43.748635" lon="11.2256117"><ele>94.0</ele><time>2026-04-18T09:34:27.924Z</time></trkpt><trkpt lat="43.748725" lon="11.2256433"><ele>94.5</ele><time>2026-04-18T09:34:29.924Z</time></trkpt><trkpt lat="43.7488067" lon="11.2256633"><ele>95.0</ele><time>2026-04-18T09:34:31.924Z</time></trkpt><trkpt lat="43.748885" lon="11.2256833"><ele>95.5</ele><time>2026-04-18T09:34:33.924Z</time></trkpt><trkpt lat="43.7489683" lon="11.2257133"><ele>96.0</ele><time>2026-04-18T09:34:35.924Z</time></trkpt><trkpt lat="43.749065" lon="11.2257367"><ele>96.50000000000001</ele><time>2026-04-18T09:34:37.924Z</time></trkpt><trkpt lat="43.7491483" lon="11.225765"><ele>97.0</ele><time>2026-04-18T09:34:39.925Z</time></trkpt><trkpt lat="43.7492433" lon="11.2257967"><ele>97.00000000000001</ele><time>2026-04-18T09:34:41.925Z</time></trkpt><trkpt lat="43.74933" lon="11.2258283"><ele>97.0</ele><time>2026-04-18T09:34:43.924Z</time></trkpt><trkpt lat="43.7494067" lon="11.2258667"><ele>97.0</ele><time>2026-04-18T09:34:45.924Z</time></trkpt><trkpt lat="43.7494883" lon="11.2259083"><ele>97.0</ele><time>2026-04-18T09:34:47.925Z</time></trkpt><trkpt lat="43.7495667" lon="11.22595"><ele>97.00000000000001</ele><time>2026-04-18T09:34:49.924Z</time></trkpt><trkpt lat="43.7496433" lon="11.2259867"><ele>97.0</ele><time>2026-04-18T09:34:51.924Z</time></trkpt><trkpt lat="43.74973" lon="11.22602"><ele>97.00000000000001</ele><time>2026-04-18T09:34:53.925Z</time></trkpt><trkpt lat="43.7497983" lon="11.2260583"><ele>97.0</ele><time>2026-04-18T09:34:55.924Z</time></trkpt><trkpt lat="43.7498767" lon="11.2260967"><ele>97.0</ele><time>2026-04-18T09:34:57.924Z</time></trkpt><trkpt lat="43.7499517" lon="11.2261433"><ele>97.0</ele><time>2026-04-18T09:34:59.924Z</time></trkpt><trkpt lat="43.750015" lon="11.2261933"><ele>97.00000000000001</ele><time>2026-04-18T09:35:01.924Z</time></trkpt><trkpt lat="43.7500717" lon="11.2262733"><ele>97.0</ele><time>2026-04-18T09:35:03.924Z</time></trkpt><trkpt lat="43.7501267" lon="11.2263517"><ele>97.00000000000001</ele><time>2026-04-18T09:35:05.924Z</time></trkpt><trkpt lat="43.75018" lon="11.2264283"><ele>97.0</ele><time>2026-04-18T09:35:07.924Z</time></trkpt><trkpt lat="43.7502283" lon="11.22654"><ele>97.0</ele><time>2026-04-18T09:35:10.924Z</time></trkpt><trkpt lat="43.7502767" lon="11.2266433"><ele>97.0</ele><time>2026-04-18T09:35:13.924Z</time></trkpt><trkpt lat="43.7503433" lon="11.2267333"><ele>97.00000000000001</ele><time>2026-04-18T09:35:16.924Z</time></trkpt><trkpt lat="43.7503983" lon="11.2268017"><ele>97.0</ele><time>2026-04-18T09:35:18.924Z</time></trkpt><trkpt lat="43.7504517" lon="11.226875"><ele>96.83333333333334</ele><time>2026-04-18T09:35:20.924Z</time></trkpt><trkpt lat="43.7505083" lon="11.226955"><ele>96.66666666666667</ele><time>2026-04-18T09:35:22.924Z</time></trkpt><trkpt lat="43.7505633" lon="11.2270333"><ele>96.5</ele><time>2026-04-18T09:35:24.924Z</time></trkpt><trkpt lat="43.750635" lon="11.2271017"><ele>96.33333333333334</ele><time>2026-04-18T09:35:26.924Z</time></trkpt><trkpt lat="43.750715" lon="11.22717"><ele>96.16666666666667</ele><time>2026-04-18T09:35:28.925Z</time></trkpt><trkpt lat="43.7507917" lon="11.2272433"><ele>96.0</ele><time>2026-04-18T09:35:30.924Z</time></trkpt><trkpt lat="43.75087" lon="11.2273133"><ele>96.28571428571428</ele><time>2026-04-18T09:35:32.924Z</time></trkpt><trkpt lat="43.75093" lon="11.2273667"><ele>96.57142857142857</ele><time>2026-04-18T09:35:34.924Z</time></trkpt><trkpt lat="43.7509883" lon="11.227435"><ele>96.85714285714286</ele><time>2026-04-18T09:35:36.924Z</time></trkpt><trkpt lat="43.7510267" lon="11.227505"><ele>97.14285714285714</ele><time>2026-04-18T09:35:38.924Z</time></trkpt><trkpt lat="43.75106" lon="11.2276083"><ele>97.42857142857143</ele><time>2026-04-18T09:35:41.924Z</time></trkpt><trkpt lat="43.7510867" lon="11.227695"><ele>97.71428571428571</ele><time>2026-04-18T09:35:44.924Z</time></trkpt><trkpt lat="43.751115" lon="11.2277917"><ele>98.0</ele><time>2026-04-18T09:35:48.924Z</time></trkpt><trkpt lat="43.7511433" lon="11.2278833"><ele>98.0</ele><time>2026-04-18T09:35:51.925Z</time></trkpt><trkpt lat="43.7511717" lon="11.2279683"><ele>98.0</ele><time>2026-04-18T09:35:54.925Z</time></trkpt><trkpt lat="43.7512017" lon="11.228065"><ele>98.0</ele><time>2026-04-18T09:35:57.924Z</time></trkpt><trkpt lat="43.75123" lon="11.2281517"><ele>98.0</ele><time>2026-04-18T09:36:00.924Z</time></trkpt><trkpt lat="43.7512517" lon="11.2282517"><ele>98.0</ele><time>2026-04-18T09:36:03.924Z</time></trkpt><trkpt lat="43.75127" lon="11.2283517"><ele>98.0</ele><time>2026-04-18T09:36:06.924Z</time></trkpt><trkpt lat="43.7512983" lon="11.2284483"><ele>98.0</ele><time>2026-04-18T09:36:09.924Z</time></trkpt><trkpt lat="43.7513217" lon="11.2285433"><ele>98.57142857142857</ele><time>2026-04-18T09:36:12.925Z</time></trkpt><trkpt lat="43.7513383" lon="11.2286483"><ele>99.14285714285714</ele><time>2026-04-18T09:36:15.924Z</time></trkpt><trkpt lat="43.751365" lon="11.2287483"><ele>99.71428571428572</ele><time>2026-04-18T09:36:18.924Z</time></trkpt><trkpt lat="43.751395" lon="11.22884"><ele>100.28571428571428</ele><time>2026-04-18T09:36:21.924Z</time></trkpt><trkpt lat="43.751425" lon="11.228935"><ele>100.85714285714286</ele><time>2026-04-18T09:36:24.924Z</time></trkpt><trkpt lat="43.7514367" lon="11.229025"><ele>101.42857142857143</ele><time>2026-04-18T09:36:27.924Z</time></trkpt><trkpt lat="43.75146" lon="11.2291117"><ele>102.0</ele><time>2026-04-18T09:36:30.924Z</time></trkpt><trkpt lat="43.7514783" lon="11.2292133"><ele>102.85714285714286</ele><time>2026-04-18T09:36:34.924Z</time></trkpt><trkpt lat="43.751535" lon="11.229285"><ele>103.71428571428572</ele><time>2026-04-18T09:36:38.924Z</time></trkpt><trkpt lat="43.7515733" lon="11.22938"><ele>104.57142857142857</ele><time>2026-04-18T09:36:42.924Z</time></trkpt><trkpt lat="43.7516283" lon="11.2294417"><ele>105.42857142857143</ele><time>2026-04-18T09:36:45.924Z</time></trkpt><trkpt lat="43.7516833" lon="11.2295133"><ele>106.28571428571428</ele><time>2026-04-18T09:36:48.924Z</time></trkpt><trkpt lat="43.75174" lon="11.22958"><ele>107.14285714285714</ele><time>2026-04-18T09:36:52.925Z</time></trkpt><trkpt lat="43.7518" lon="11.2296283"><ele>108.0</ele><time>2026-04-18T09:36:55.924Z</time></trkpt><trkpt lat="43.75185" lon="11.229695"><ele>108.16666666666667</ele><time>2026-04-18T09:36:58.924Z</time></trkpt><trkpt lat="43.7519067" lon="11.22976"><ele>108.33333333333334</ele><time>2026-04-18T09:37:01.925Z</time></trkpt><trkpt lat="43.751965" lon="11.22983"><ele>108.5</ele><time>2026-04-18T09:37:04.924Z</time></trkpt><trkpt lat="43.7520033" lon="11.2299483"><ele>108.66666666666667</ele><time>2026-04-18T09:37:07.924Z</time></trkpt><trkpt lat="43.7520383" lon="11.2300367"><ele>108.83333333333334</ele><time>2026-04-18T09:37:09.924Z</time></trkpt><trkpt lat="43.7520833" lon="11.2301117"><ele>109.0</ele><time>2026-04-18T09:37:11.924Z</time></trkpt><trkpt lat="43.752155" lon="11.230205"><ele>109.0</ele><time>2026-04-18T09:37:14.924Z</time></trkpt><trkpt lat="43.7522017" lon="11.2302833"><ele>109.0</ele><time>2026-04-18T09:37:16.924Z</time></trkpt><trkpt lat="43.7522467" lon="11.2303683"><ele>109.0</ele><time>2026-04-18T09:37:18.924Z</time></trkpt><trkpt lat="43.7522983" lon="11.2304483"><ele>109.0</ele><time>2026-04-18T09:37:20.924Z</time></trkpt><trkpt lat="43.7523367" lon="11.2305333"><ele>109.0</ele><time>2026-04-18T09:37:22.924Z</time></trkpt><trkpt lat="43.7523783" lon="11.2306183"><ele>109.0</ele><time>2026-04-18T09:37:24.924Z</time></trkpt><trkpt lat="43.7524117" lon="11.2306983"><ele>109.0</ele><time>2026-04-18T09:37:26.924Z</time></trkpt><trkpt lat="43.7524617" lon="11.2307967"><ele>109.57142857142857</ele><time>2026-04-18T09:37:29.924Z</time></trkpt><trkpt lat="43.752485" lon="11.2308783"><ele>110.14285714285714</ele><time>2026-04-18T09:37:31.924Z</time></trkpt><trkpt lat="43.752525" lon="11.2309817"><ele>110.71428571428572</ele><time>2026-04-18T09:37:34.924Z</time></trkpt><trkpt lat="43.7525783" lon="11.2310533"><ele>111.28571428571428</ele><time>2026-04-18T09:37:36.924Z</time></trkpt><trkpt lat="43.7526167" lon="11.2311367"><ele>111.85714285714285</ele><time>2026-04-18T09:37:38.924Z</time></trkpt><trkpt lat="43.7526517" lon="11.23123"><ele>112.42857142857143</ele><time>2026-04-18T09:37:40.924Z</time></trkpt><trkpt lat="43.75269" lon="11.2313167"><ele>113.0</ele><time>2026-04-18T09:37:42.924Z</time></trkpt><trkpt lat="43.752745" lon="11.231385"><ele>113.0</ele><time>2026-04-18T09:37:44.924Z</time></trkpt><trkpt lat="43.75281" lon="11.2314617"><ele>113.0</ele><time>2026-04-18T09:37:46.925Z</time></trkpt><trkpt lat="43.7528633" lon="11.2315183"><ele>113.0</ele><time>2026-04-18T09:37:48.925Z</time></trkpt><trkpt lat="43.752915" lon="11.231575"><ele>113.0</ele><time>2026-04-18T09:37:50.925Z</time></trkpt><trkpt lat="43.7529683" lon="11.2316367"><ele>113.0</ele><time>2026-04-18T09:37:52.924Z</time></trkpt><trkpt lat="43.75302" lon="11.2316933"><ele>113.0</ele><time>2026-04-18T09:37:54.924Z</time></trkpt><trkpt lat="43.75307" lon="11.231755"><ele>113.0</ele><time>2026-04-18T09:37:56.924Z</time></trkpt><trkpt lat="43.7531317" lon="11.23181"><ele>113.49999999999999</ele><time>2026-04-18T09:37:58.924Z</time></trkpt><trkpt lat="43.7531883" lon="11.23187"><ele>114.0</ele><time>2026-04-18T09:38:00.924Z</time></trkpt><trkpt lat="43.7532467" lon="11.2319217"><ele>114.5</ele><time>2026-04-18T09:38:02.924Z</time></trkpt><trkpt lat="43.753315" lon="11.23197"><ele>115.0</ele><time>2026-04-18T09:38:05.924Z</time></trkpt><trkpt lat="43.7534" lon="11.2320183"><ele>115.49999999999999</ele><time>2026-04-18T09:38:08.925Z</time></trkpt><trkpt lat="43.7534533" lon="11.2320717"><ele>116.0</ele><time>2026-04-18T09:38:10.924Z</time></trkpt><trkpt lat="43.7535167" lon="11.2321367"><ele>116.2857142857143</ele><time>2026-04-18T09:38:12.924Z</time></trkpt><trkpt lat="43.7535867" lon="11.232195"><ele>116.57142857142858</ele><time>2026-04-18T09:38:14.924Z</time></trkpt><trkpt lat="43.7536517" lon="11.232265"><ele>116.85714285714286</ele><time>2026-04-18T09:38:16.924Z</time></trkpt><trkpt lat="43.7537067" lon="11.2323183"><ele>117.14285714285715</ele><time>2026-04-18T09:38:18.924Z</time></trkpt><trkpt lat="43.75376" lon="11.2323717"><ele>117.42857142857144</ele><time>2026-04-18T09:38:20.924Z</time></trkpt><trkpt lat="43.753825" lon="11.2324267"><ele>117.71428571428571</ele><time>2026-04-18T09:38:22.924Z</time></trkpt><trkpt lat="43.75389" lon="11.23248"><ele>118.0</ele><time>2026-04-18T09:38:24.925Z</time></trkpt><trkpt lat="43.753955" lon="11.2325267"><ele>118.16666666666667</ele><time>2026-04-18T09:38:26.924Z</time></trkpt><trkpt lat="43.7540283" lon="11.2325717"><ele>118.33333333333334</ele><time>2026-04-18T09:38:28.924Z</time></trkpt><trkpt lat="43.7541033" lon="11.232615"><ele>118.5</ele><time>2026-04-18T09:38:30.924Z</time></trkpt><trkpt lat="43.7541817" lon="11.2326483"><ele>118.66666666666666</ele><time>2026-04-18T09:38:32.925Z</time></trkpt><trkpt lat="43.75426" lon="11.2326983"><ele>118.83333333333333</ele><time>2026-04-18T09:38:35.925Z</time></trkpt><trkpt lat="43.754325" lon="11.232725"><ele>119.0</ele><time>2026-04-18T09:38:37.925Z</time></trkpt><trkpt lat="43.7544" lon="11.23275"><ele>117.99999999999999</ele><time>2026-04-18T09:38:39.925Z</time></trkpt><trkpt lat="43.7544767" lon="11.2328"><ele>117.0</ele><time>2026-04-18T09:38:41.925Z</time></trkpt><trkpt lat="43.7545717" lon="11.2328533"><ele>116.0</ele><time>2026-04-18T09:38:43.924Z</time></trkpt><trkpt lat="43.75463" lon="11.2328867"><ele>115.0</ele><time>2026-04-18T09:38:44.924Z</time></trkpt><trkpt lat="43.7546867" lon="11.2329267"><ele>113.99999999999999</ele><time>2026-04-18T09:38:45.925Z</time></trkpt><trkpt lat="43.7547433" lon="11.232975"><ele>113.0</ele><time>2026-04-18T09:38:46.924Z</time></trkpt><trkpt lat="43.7548083" lon="11.23302"><ele>112.99999999999999</ele><time>2026-04-18T09:38:47.925Z</time></trkpt><trkpt lat="43.754875" lon="11.2330717"><ele>113.0</ele><time>2026-04-18T09:38:48.924Z</time></trkpt><trkpt lat="43.754945" lon="11.23312"><ele>113.0</ele><time>2026-04-18T09:38:49.925Z</time></trkpt><trkpt lat="43.7550133" lon="11.2331717"><ele>113.0</ele><time>2026-04-18T09:38:50.925Z</time></trkpt><trkpt lat="43.7550833" lon="11.23322"><ele>112.99999999999999</ele><time>2026-04-18T09:38:51.924Z</time></trkpt><trkpt lat="43.7551617" lon="11.2332683"><ele>113.0</ele><time>2026-04-18T09:38:52.925Z</time></trkpt><trkpt lat="43.75523" lon="11.233325"><ele>112.66666666666666</ele><time>2026-04-18T09:38:53.924Z</time></trkpt><trkpt lat="43.7552917" lon="11.2333817"><ele>112.33333333333333</ele><time>2026-04-18T09:38:54.924Z</time></trkpt><trkpt lat="43.7553633" lon="11.2334317"><ele>112.0</ele><time>2026-04-18T09:38:55.925Z</time></trkpt><trkpt lat="43.7554317" lon="11.2334817"><ele>111.66666666666666</ele><time>2026-04-18T09:38:56.924Z</time></trkpt><trkpt lat="43.755505" lon="11.23352"><ele>111.33333333333333</ele><time>2026-04-18T09:38:57.924Z</time></trkpt><trkpt lat="43.7555683" lon="11.2335567"><ele>111.0</ele><time>2026-04-18T09:38:58.925Z</time></trkpt><trkpt lat="43.7556383" lon="11.2335917"><ele>111.0</ele><time>2026-04-18T09:38:59.924Z</time></trkpt><trkpt lat="43.755705" lon="11.2336233"><ele>111.0</ele><time>2026-04-18T09:39:00.924Z</time></trkpt><trkpt lat="43.7557683" lon="11.2336533"><ele>111.0</ele><time>2026-04-18T09:39:01.924Z</time></trkpt><trkpt lat="43.75588" lon="11.2337017"><ele>111.0</ele><time>2026-04-18T09:39:03.924Z</time></trkpt><trkpt lat="43.7560017" lon="11.233745"><ele>111.0</ele><time>2026-04-18T09:39:05.924Z</time></trkpt><trkpt lat="43.756115" lon="11.2337783"><ele>110.8</ele><time>2026-04-18T09:39:07.924Z</time></trkpt><trkpt lat="43.7562167" lon="11.2338283"><ele>110.6</ele><time>2026-04-18T09:39:09.924Z</time></trkpt><trkpt lat="43.75631" lon="11.233885"><ele>110.4</ele><time>2026-04-18T09:39:11.924Z</time></trkpt><trkpt lat="43.7564017" lon="11.2339183"><ele>110.2</ele><time>2026-04-18T09:39:13.924Z</time></trkpt><trkpt lat="43.7564783" lon="11.2339717"><ele>110.0</ele><time>2026-04-18T09:39:15.924Z</time></trkpt><trkpt lat="43.75654" lon="11.23406"><ele>110.83333333333333</ele><time>2026-04-18T09:39:17.925Z</time></trkpt><trkpt lat="43.7566117" lon="11.2341167"><ele>111.66666666666666</ele><time>2026-04-18T09:39:19.924Z</time></trkpt><trkpt lat="43.75669" lon="11.2341567"><ele>112.5</ele><time>2026-04-18T09:39:21.924Z</time></trkpt><trkpt lat="43.75678" lon="11.2341683"><ele>113.33333333333334</ele><time>2026-04-18T09:39:23.924Z</time></trkpt><trkpt lat="43.7568517" lon="11.2341633"><ele>114.16666666666667</ele><time>2026-04-18T09:39:25.925Z</time></trkpt><trkpt lat="43.7569233" lon="11.234165"><ele>115.0</ele><time>2026-04-18T09:39:27.924Z</time></trkpt><trkpt lat="43.757005" lon="11.2341833"><ele>115.00000000000001</ele><time>2026-04-18T09:39:29.925Z</time></trkpt><trkpt lat="43.7570883" lon="11.23419"><ele>115.0</ele><time>2026-04-18T09:39:31.924Z</time></trkpt><trkpt lat="43.7571533" lon="11.2342233"><ele>115.0</ele><time>2026-04-18T09:39:33.925Z</time></trkpt><trkpt lat="43.75723" lon="11.234265"><ele>115.0</ele><time>2026-04-18T09:39:35.924Z</time></trkpt><trkpt lat="43.7573083" lon="11.2343017"><ele>115.00000000000001</ele><time>2026-04-18T09:39:37.924Z</time></trkpt><trkpt lat="43.7573933" lon="11.2343383"><ele>115.0</ele><time>2026-04-18T09:39:39.924Z</time></trkpt><trkpt lat="43.757465" lon="11.234375"><ele>115.00000000000001</ele><time>2026-04-18T09:39:41.925Z</time></trkpt><trkpt lat="43.7575217" lon="11.2344283"><ele>115.0</ele><time>2026-04-18T09:39:43.924Z</time></trkpt><trkpt lat="43.75756" lon="11.2345267"><ele>115.0</ele><time>2026-04-18T09:39:45.924Z</time></trkpt><trkpt lat="43.757595" lon="11.234605"><ele>115.0</ele><time>2026-04-18T09:39:47.925Z</time></trkpt><trkpt lat="43.757645" lon="11.2346683"><ele>115.00000000000001</ele><time>2026-04-18T09:39:49.924Z</time></trkpt><trkpt lat="43.757715" lon="11.2347467"><ele>115.0</ele><time>2026-04-18T09:39:51.924Z</time></trkpt><trkpt lat="43.7577767" lon="11.2348183"><ele>115.50000000000001</ele><time>2026-04-18T09:39:53.925Z</time></trkpt><trkpt lat="43.7578367" lon="11.2348867"><ele>116.0</ele><time>2026-04-18T09:39:55.924Z</time></trkpt><trkpt lat="43.7578733" lon="11.234975"><ele>116.5</ele><time>2026-04-18T09:39:57.925Z</time></trkpt><trkpt lat="43.7579117" lon="11.2350633"><ele>117.0</ele><time>2026-04-18T09:39:59.924Z</time></trkpt><trkpt lat="43.7579367" lon="11.2351883"><ele>117.50000000000001</ele><time>2026-04-18T09:40:01.924Z</time></trkpt><trkpt lat="43.75795" lon="11.2352983"><ele>118.0</ele><time>2026-04-18T09:40:03.925Z</time></trkpt><trkpt lat="43.7579517" lon="11.2354417"><ele>118.00000000000001</ele><time>2026-04-18T09:40:05.924Z</time></trkpt><trkpt lat="43.7579517" lon="11.2355317"><ele>118.0</ele><time>2026-04-18T09:40:06.924Z</time></trkpt><trkpt lat="43.7579367" lon="11.2356683"><ele>118.0</ele><time>2026-04-18T09:40:08.924Z</time></trkpt><trkpt lat="43.7579117" lon="11.2358"><ele>118.0</ele><time>2026-04-18T09:40:10.924Z</time></trkpt><trkpt lat="43.7579083" lon="11.2359117"><ele>118.00000000000001</ele><time>2026-04-18T09:40:13.924Z</time></trkpt><trkpt lat="43.757895" lon="11.2360383"><ele>118.0</ele><time>2026-04-18T09:40:15.925Z</time></trkpt><trkpt lat="43.7578967" lon="11.2361733"><ele>117.0</ele><time>2026-04-18T09:40:17.924Z</time></trkpt><trkpt lat="43.7579167" lon="11.2363317"><ele>116.00000000000001</ele><time>2026-04-18T09:40:19.924Z</time></trkpt><trkpt lat="43.75796" lon="11.2364783"><ele>115.00000000000001</ele><time>2026-04-18T09:40:21.925Z</time></trkpt><trkpt lat="43.758" lon="11.2366133"><ele>114.0</ele><time>2026-04-18T09:40:23.924Z</time></trkpt><trkpt lat="43.7580383" lon="11.2367567"><ele>113.0</ele><time>2026-04-18T09:40:25.924Z</time></trkpt><trkpt lat="43.7580667" lon="11.2368817"><ele>111.4</ele><time>2026-04-18T09:40:27.924Z</time></trkpt><trkpt lat="43.7580967" lon="11.2370067"><ele>109.80000000000001</ele><time>2026-04-18T09:40:29.924Z</time></trkpt><trkpt lat="43.758125" lon="11.2371333"><ele>108.2</ele><time>2026-04-18T09:40:31.924Z</time></trkpt><trkpt lat="43.7581683" lon="11.2372417"><ele>106.6</ele><time>2026-04-18T09:40:33.924Z</time></trkpt><trkpt lat="43.7582383" lon="11.2373417"><ele>105.0</ele><time>2026-04-18T09:40:35.924Z</time></trkpt><trkpt lat="43.7583267" lon="11.23741"><ele>103.4</ele><time>2026-04-18T09:40:37.924Z</time></trkpt><trkpt lat="43.7583967" lon="11.2374317"><ele>101.8</ele><time>2026-04-18T09:40:39.925Z</time></trkpt><trkpt lat="43.75847" lon="11.2375333"><ele>100.19999999999999</ele><time>2026-04-18T09:40:41.924Z</time></trkpt><trkpt lat="43.7585317" lon="11.237685"><ele>98.6</ele><time>2026-04-18T09:40:43.924Z</time></trkpt><trkpt lat="43.7585617" lon="11.2377617"><ele>97.0</ele><time>2026-04-18T09:40:44.924Z</time></trkpt><trkpt lat="43.7586167" lon="11.2378717"><ele>96.0</ele><time>2026-04-18T09:40:46.925Z</time></trkpt><trkpt lat="43.75867" lon="11.2379567"><ele>95.0</ele><time>2026-04-18T09:40:48.924Z</time></trkpt><trkpt lat="43.7587267" lon="11.238045"><ele>94.0</ele><time>2026-04-18T09:40:50.924Z</time></trkpt><trkpt lat="43.758775" lon="11.23813"><ele>93.0</ele><time>2026-04-18T09:40:52.924Z</time></trkpt><trkpt lat="43.7588083" lon="11.238275"><ele>92.0</ele><time>2026-04-18T09:40:54.924Z</time></trkpt><trkpt lat="43.7588333" lon="11.2384067"><ele>90.83333333333334</ele><time>2026-04-18T09:40:56.924Z</time></trkpt><trkpt lat="43.758845" lon="11.2385033"><ele>89.66666666666667</ele><time>2026-04-18T09:40:58.924Z</time></trkpt><trkpt lat="43.7588567" lon="11.23859"><ele>88.5</ele><time>2026-04-18T09:41:00.924Z</time></trkpt><trkpt lat="43.75886" lon="11.2386983"><ele>87.33333333333333</ele><time>2026-04-18T09:41:02.925Z</time></trkpt><trkpt lat="43.758855" lon="11.2388217"><ele>86.16666666666666</ele><time>2026-04-18T09:41:04.925Z</time></trkpt><trkpt lat="43.7588633" lon="11.2389483"><ele>85.0</ele><time>2026-04-18T09:41:06.924Z</time></trkpt><trkpt lat="43.75887" lon="11.239075"><ele>84.0</ele><time>2026-04-18T09:41:08.924Z</time></trkpt><trkpt lat="43.7588767" lon="11.2392033"><ele>83.0</ele><time>2026-04-18T09:41:10.924Z</time></trkpt><trkpt lat="43.7588833" lon="11.23932"><ele>82.0</ele><time>2026-04-18T09:41:12.924Z</time></trkpt><trkpt lat="43.7588933" lon="11.239435"><ele>81.0</ele><time>2026-04-18T09:41:14.925Z</time></trkpt><trkpt lat="43.7588867" lon="11.2395433"><ele>80.0</ele><time>2026-04-18T09:41:16.924Z</time></trkpt><trkpt lat="43.7589017" lon="11.2396333"><ele>79.0</ele><time>2026-04-18T09:41:18.924Z</time></trkpt><trkpt lat="43.758975" lon="11.2396717"><ele>79.0</ele><time>2026-04-18T09:41:21.925Z</time></trkpt><trkpt lat="43.7590517" lon="11.2396283"><ele>79.0</ele><time>2026-04-18T09:41:23.924Z</time></trkpt><trkpt lat="43.7591367" lon="11.2395983"><ele>79.0</ele><time>2026-04-18T09:41:26.925Z</time></trkpt><trkpt lat="43.75923" lon="11.239565"><ele>79.0</ele><time>2026-04-18T09:41:29.924Z</time></trkpt><trkpt lat="43.759305" lon="11.2395367"><ele>79.0</ele><time>2026-04-18T09:41:31.924Z</time></trkpt><trkpt lat="43.7593867" lon="11.2395067"><ele>79.0</ele><time>2026-04-18T09:41:33.925Z</time></trkpt><trkpt lat="43.7594683" lon="11.239475"><ele>78.28571428571429</ele><time>2026-04-18T09:41:35.924Z</time></trkpt><trkpt lat="43.7595333" lon="11.2394417"><ele>77.57142857142857</ele><time>2026-04-18T09:41:37.925Z</time></trkpt><trkpt lat="43.7595967" lon="11.2393933"><ele>76.85714285714286</ele><time>2026-04-18T09:41:39.924Z</time></trkpt><trkpt lat="43.7596533" lon="11.2393217"><ele>76.14285714285714</ele><time>2026-04-18T09:41:41.924Z</time></trkpt><trkpt lat="43.7597217" lon="11.239255"><ele>75.42857142857143</ele><time>2026-04-18T09:41:43.925Z</time></trkpt><trkpt lat="43.75978" lon="11.2391883"><ele>74.71428571428572</ele><time>2026-04-18T09:41:45.924Z</time></trkpt><trkpt lat="43.7598317" lon="11.23912"><ele>74.0</ele><time>2026-04-18T09:41:47.924Z</time></trkpt><trkpt lat="43.7599183" lon="11.2389833"><ele>74.66666666666667</ele><time>2026-04-18T09:42:16.923Z</time></trkpt><trkpt lat="43.7599733" lon="11.2389233"><ele>75.33333333333334</ele><time>2026-04-18T09:42:21.923Z</time></trkpt><trkpt lat="43.7600333" lon="11.23885"><ele>76.0</ele><time>2026-04-18T09:42:24.924Z</time></trkpt><trkpt lat="43.76008" lon="11.2387583"><ele>76.66666666666667</ele><time>2026-04-18T09:42:27.923Z</time></trkpt><trkpt lat="43.7601267" lon="11.2386933"><ele>77.33333333333333</ele><time>2026-04-18T09:42:29.923Z</time></trkpt><trkpt lat="43.760185" lon="11.238605"><ele>78.0</ele><time>2026-04-18T09:42:32.924Z</time></trkpt><trkpt lat="43.76024" lon="11.238515"><ele>78.33333333333333</ele><time>2026-04-18T09:42:35.923Z</time></trkpt><trkpt lat="43.7603033" lon="11.2384233"><ele>78.66666666666667</ele><time>2026-04-18T09:42:38.923Z</time></trkpt><trkpt lat="43.7603633" lon="11.23836"><ele>79.0</ele><time>2026-04-18T09:42:41.924Z</time></trkpt><trkpt lat="43.760435" lon="11.238335"><ele>79.33333333333334</ele><time>2026-04-18T09:42:44.923Z</time></trkpt><trkpt lat="43.7605083" lon="11.2383633"><ele>79.66666666666667</ele><time>2026-04-18T09:42:46.923Z</time></trkpt><trkpt lat="43.760585" lon="11.2384483"><ele>80.0</ele><time>2026-04-18T09:42:48.923Z</time></trkpt><trkpt lat="43.760665" lon="11.238535"><ele>80.0</ele><time>2026-04-18T09:42:50.923Z</time></trkpt><trkpt lat="43.7607183" lon="11.238655"><ele>80.0</ele><time>2026-04-18T09:42:52.923Z</time></trkpt><trkpt lat="43.7607417" lon="11.23878"><ele>80.0</ele><time>2026-04-18T09:42:54.923Z</time></trkpt><trkpt lat="43.7607717" lon="11.23894"><ele>80.0</ele><time>2026-04-18T09:42:56.923Z</time></trkpt><trkpt lat="43.760785" lon="11.2390267"><ele>80.0</ele><time>2026-04-18T09:42:57.923Z</time></trkpt><trkpt lat="43.7607917" lon="11.239185"><ele>78.4</ele><time>2026-04-18T09:42:59.923Z</time></trkpt><trkpt lat="43.76075" lon="11.2393183"><ele>76.8</ele><time>2026-04-18T09:43:01.923Z</time></trkpt><trkpt lat="43.7606617" lon="11.2394183"><ele>75.2</ele><time>2026-04-18T09:43:03.923Z</time></trkpt><trkpt lat="43.76055" lon="11.2394617"><ele>73.6</ele><time>2026-04-18T09:43:05.923Z</time></trkpt><trkpt lat="43.7604867" lon="11.23948"><ele>72.0</ele><time>2026-04-18T09:43:06.923Z</time></trkpt><trkpt lat="43.7604233" lon="11.2395133"><ele>72.0</ele><time>2026-04-18T09:43:07.924Z</time></trkpt><trkpt lat="43.760365" lon="11.2395717"><ele>72.0</ele><time>2026-04-18T09:43:08.923Z</time></trkpt><trkpt lat="43.7603083" lon="11.239645"><ele>72.0</ele><time>2026-04-18T09:43:09.924Z</time></trkpt><trkpt lat="43.76025" lon="11.2397033"><ele>72.0</ele><time>2026-04-18T09:43:10.923Z</time></trkpt><trkpt lat="43.7601833" lon="11.23977"><ele>72.0</ele><time>2026-04-18T09:43:11.923Z</time></trkpt><trkpt lat="43.760115" lon="11.2398383"><ele>72.0</ele><time>2026-04-18T09:43:12.923Z</time></trkpt><trkpt lat="43.760045" lon="11.2399117"><ele>71.16666666666667</ele><time>2026-04-18T09:43:13.923Z</time></trkpt><trkpt lat="43.7599717" lon="11.23999"><ele>70.33333333333333</ele><time>2026-04-18T09:43:14.923Z</time></trkpt><trkpt lat="43.7599067" lon="11.240075"><ele>69.5</ele><time>2026-04-18T09:43:15.924Z</time></trkpt><trkpt lat="43.75985" lon="11.2401617"><ele>68.66666666666666</ele><time>2026-04-18T09:43:16.923Z</time></trkpt><trkpt lat="43.7598" lon="11.2402533"><ele>67.83333333333333</ele><time>2026-04-18T09:43:17.924Z</time></trkpt><trkpt lat="43.7597617" lon="11.2403667"><ele>67.0</ele><time>2026-04-18T09:43:18.924Z</time></trkpt><trkpt lat="43.7597317" lon="11.2404783"><ele>67.0</ele><time>2026-04-18T09:43:19.923Z</time></trkpt><trkpt lat="43.759705" lon="11.240585"><ele>67.0</ele><time>2026-04-18T09:43:20.923Z</time></trkpt><trkpt lat="43.7596833" lon="11.2406917"><ele>67.0</ele><time>2026-04-18T09:43:21.923Z</time></trkpt><trkpt lat="43.7596483" lon="11.240875"><ele>67.0</ele><time>2026-04-18T09:43:23.923Z</time></trkpt><trkpt lat="43.7596317" lon="11.2409683"><ele>67.0</ele><time>2026-04-18T09:43:24.923Z</time></trkpt><trkpt lat="43.7596017" lon="11.241105"><ele>66.16666666666666</ele><time>2026-04-18T09:43:26.923Z</time></trkpt><trkpt lat="43.75957" lon="11.2412083"><ele>65.33333333333333</ele><time>2026-04-18T09:43:28.923Z</time></trkpt><trkpt lat="43.759555" lon="11.241305"><ele>64.5</ele><time>2026-04-18T09:43:31.924Z</time></trkpt><trkpt lat="43.75959" lon="11.2413833"><ele>63.66666666666667</ele><time>2026-04-18T09:43:38.924Z</time></trkpt><trkpt lat="43.75967" lon="11.2414583"><ele>62.833333333333336</ele><time>2026-04-18T09:43:41.923Z</time></trkpt><trkpt lat="43.7597483" lon="11.24148"><ele>62.0</ele><time>2026-04-18T09:43:43.924Z</time></trkpt><trkpt lat="43.7598317" lon="11.241505"><ele>61.0</ele><time>2026-04-18T09:43:45.924Z</time></trkpt><trkpt lat="43.75993" lon="11.2415367"><ele>60.0</ele><time>2026-04-18T09:43:47.924Z</time></trkpt><trkpt lat="43.760045" lon="11.2415783"><ele>59.0</ele><time>2026-04-18T09:43:49.924Z</time></trkpt><trkpt lat="43.760155" lon="11.2416333"><ele>58.0</ele><time>2026-04-18T09:43:51.923Z</time></trkpt><trkpt lat="43.7602083" lon="11.24169"><ele>57.0</ele><time>2026-04-18T09:43:52.923Z</time></trkpt><trkpt lat="43.7602483" lon="11.2417583"><ele>57.0</ele><time>2026-04-18T09:43:53.924Z</time></trkpt><trkpt lat="43.76031" lon="11.2418917"><ele>57.0</ele><time>2026-04-18T09:43:55.923Z</time></trkpt><trkpt lat="43.7603883" lon="11.2419817"><ele>57.0</ele><time>2026-04-18T09:43:57.923Z</time></trkpt><trkpt lat="43.7604867" lon="11.242025"><ele>57.0</ele><time>2026-04-18T09:43:59.923Z</time></trkpt><trkpt lat="43.7605817" lon="11.24205"><ele>57.0</ele><time>2026-04-18T09:44:01.923Z</time></trkpt><trkpt lat="43.76067" lon="11.2420717"><ele>57.0</ele><time>2026-04-18T09:44:03.923Z</time></trkpt><trkpt lat="43.760755" lon="11.2420883"><ele>57.0</ele><time>2026-04-18T09:44:05.923Z</time></trkpt><trkpt lat="43.7608433" lon="11.2421183"><ele>57.0</ele><time>2026-04-18T09:44:07.924Z</time></trkpt><trkpt lat="43.7609167" lon="11.2421483"><ele>57.0</ele><time>2026-04-18T09:44:09.923Z</time></trkpt><trkpt lat="43.7610083" lon="11.2422117"><ele>57.0</ele><time>2026-04-18T09:44:11.923Z</time></trkpt><trkpt lat="43.7611083" lon="11.2422833"><ele>56.8</ele><time>2026-04-18T09:44:13.923Z</time></trkpt><trkpt lat="43.761165" lon="11.242325"><ele>56.6</ele><time>2026-04-18T09:44:14.923Z</time></trkpt><trkpt lat="43.7612667" lon="11.2424033"><ele>56.39999999999999</ele><time>2026-04-18T09:44:16.923Z</time></trkpt><trkpt lat="43.7613567" lon="11.2424733"><ele>56.199999999999996</ele><time>2026-04-18T09:44:18.923Z</time></trkpt><trkpt lat="43.7614517" lon="11.242545"><ele>56.0</ele><time>2026-04-18T09:44:20.923Z</time></trkpt><trkpt lat="43.7615417" lon="11.2426033"><ele>56.0</ele><time>2026-04-18T09:44:22.923Z</time></trkpt><trkpt lat="43.7616367" lon="11.2426567"><ele>55.99999999999999</ele><time>2026-04-18T09:44:24.923Z</time></trkpt><trkpt lat="43.7617167" lon="11.2427217"><ele>55.99999999999999</ele><time>2026-04-18T09:44:26.923Z</time></trkpt><trkpt lat="43.761795" lon="11.2427833"><ele>56.0</ele><time>2026-04-18T09:44:28.923Z</time></trkpt><trkpt lat="43.7618833" lon="11.2428483"><ele>56.0</ele><time>2026-04-18T09:44:30.923Z</time></trkpt><trkpt lat="43.7619617" lon="11.24292"><ele>55.599999999999994</ele><time>2026-04-18T09:44:32.923Z</time></trkpt><trkpt lat="43.76205" lon="11.2429833"><ele>55.199999999999996</ele><time>2026-04-18T09:44:34.924Z</time></trkpt><trkpt lat="43.7621267" lon="11.2430417"><ele>54.800000000000004</ele><time>2026-04-18T09:44:36.923Z</time></trkpt><trkpt lat="43.7622283" lon="11.2431133"><ele>54.400000000000006</ele><time>2026-04-18T09:44:38.923Z</time></trkpt><trkpt lat="43.7623233" lon="11.2431967"><ele>54.0</ele><time>2026-04-18T09:44:40.923Z</time></trkpt><trkpt lat="43.7624267" lon="11.2432783"><ele>54.0</ele><time>2026-04-18T09:44:42.923Z</time></trkpt><trkpt lat="43.7625267" lon="11.2433633"><ele>54.00000000000001</ele><time>2026-04-18T09:44:44.923Z</time></trkpt><trkpt lat="43.7626267" lon="11.2434517"><ele>54.00000000000001</ele><time>2026-04-18T09:44:46.923Z</time></trkpt><trkpt lat="43.762695" lon="11.2435333"><ele>54.0</ele><time>2026-04-18T09:44:48.923Z</time></trkpt><trkpt lat="43.762775" lon="11.24361"><ele>54.0</ele><time>2026-04-18T09:44:50.923Z</time></trkpt><trkpt lat="43.7628567" lon="11.243715"><ele>53.833333333333336</ele><time>2026-04-18T09:44:52.923Z</time></trkpt><trkpt lat="43.7629283" lon="11.243825"><ele>53.66666666666667</ele><time>2026-04-18T09:44:54.923Z</time></trkpt><trkpt lat="43.7629933" lon="11.2439233"><ele>53.5</ele><time>2026-04-18T09:44:56.923Z</time></trkpt><trkpt lat="43.7630583" lon="11.2440283"><ele>53.333333333333336</ele><time>2026-04-18T09:44:58.923Z</time></trkpt><trkpt lat="43.7630833" lon="11.2441133"><ele>53.16666666666667</ele><time>2026-04-18T09:45:00.923Z</time></trkpt><trkpt lat="43.7631067" lon="11.2442067"><ele>53.0</ele><time>2026-04-18T09:45:02.923Z</time></trkpt><trkpt lat="43.7631467" lon="11.24433"><ele>53.2</ele><time>2026-04-18T09:45:04.923Z</time></trkpt><trkpt lat="43.7631967" lon="11.2444533"><ele>53.4</ele><time>2026-04-18T09:45:06.924Z</time></trkpt><trkpt lat="43.7632617" lon="11.244565"><ele>53.60000000000001</ele><time>2026-04-18T09:45:08.923Z</time></trkpt><trkpt lat="43.7633283" lon="11.2446867"><ele>53.800000000000004</ele><time>2026-04-18T09:45:10.923Z</time></trkpt><trkpt lat="43.763355" lon="11.24482"><ele>54.0</ele><time>2026-04-18T09:45:12.924Z</time></trkpt><trkpt lat="43.7634" lon="11.244935"><ele>54.0</ele><time>2026-04-18T09:45:14.923Z</time></trkpt><trkpt lat="43.76344" lon="11.2450683"><ele>54.00000000000001</ele><time>2026-04-18T09:45:16.923Z</time></trkpt><trkpt lat="43.7634983" lon="11.2451917"><ele>54.00000000000001</ele><time>2026-04-18T09:45:18.924Z</time></trkpt><trkpt lat="43.7635617" lon="11.24531"><ele>54.0</ele><time>2026-04-18T09:45:20.923Z</time></trkpt><trkpt lat="43.7636333" lon="11.2453917"><ele>54.0</ele><time>2026-04-18T09:45:22.923Z</time></trkpt><trkpt lat="43.7637233" lon="11.2454833"><ele>54.5</ele><time>2026-04-18T09:45:24.923Z</time></trkpt><trkpt lat="43.76374" lon="11.2455717"><ele>55.0</ele><time>2026-04-18T09:45:26.923Z</time></trkpt><trkpt lat="43.7638017" lon="11.245655"><ele>55.5</ele><time>2026-04-18T09:45:28.923Z</time></trkpt><trkpt lat="43.7638867" lon="11.2457367"><ele>56.0</ele><time>2026-04-18T09:45:30.924Z</time></trkpt><trkpt lat="43.763965" lon="11.2458133"><ele>56.5</ele><time>2026-04-18T09:45:32.923Z</time></trkpt><trkpt lat="43.7640317" lon="11.24589"><ele>57.0</ele><time>2026-04-18T09:45:34.923Z</time></trkpt><trkpt lat="43.764095" lon="11.245965"><ele>57.166666666666664</ele><time>2026-04-18T09:45:36.923Z</time></trkpt><trkpt lat="43.7641433" lon="11.2460583"><ele>57.33333333333333</ele><time>2026-04-18T09:45:38.923Z</time></trkpt><trkpt lat="43.7641917" lon="11.24616"><ele>57.5</ele><time>2026-04-18T09:45:40.924Z</time></trkpt><trkpt lat="43.7642233" lon="11.2462517"><ele>57.666666666666664</ele><time>2026-04-18T09:45:42.923Z</time></trkpt><trkpt lat="43.7642533" lon="11.2463317"><ele>57.83333333333333</ele><time>2026-04-18T09:45:44.924Z</time></trkpt><trkpt lat="43.7642833" lon="11.246415"><ele>58.0</ele><time>2026-04-18T09:45:46.923Z</time></trkpt><trkpt lat="43.7643267" lon="11.2465"><ele>57.99999999999999</ele><time>2026-04-18T09:45:48.923Z</time></trkpt><trkpt lat="43.76438" lon="11.2465717"><ele>58.0</ele><time>2026-04-18T09:45:50.924Z</time></trkpt><trkpt lat="43.76443" lon="11.2466483"><ele>58.0</ele><time>2026-04-18T09:45:52.924Z</time></trkpt><trkpt lat="43.7644717" lon="11.246745"><ele>58.0</ele><time>2026-04-18T09:45:54.923Z</time></trkpt><trkpt lat="43.7645167" lon="11.2468433"><ele>57.99999999999999</ele><time>2026-04-18T09:45:56.923Z</time></trkpt><trkpt lat="43.7645783" lon="11.2469367"><ele>58.0</ele><time>2026-04-18T09:45:58.924Z</time></trkpt><trkpt lat="43.764625" lon="11.2470283"><ele>57.99999999999999</ele><time>2026-04-18T09:46:00.923Z</time></trkpt><trkpt lat="43.76467" lon="11.247125"><ele>58.0</ele><time>2026-04-18T09:46:02.924Z</time></trkpt><trkpt lat="43.7647083" lon="11.247225"><ele>58.0</ele><time>2026-04-18T09:46:04.923Z</time></trkpt><trkpt lat="43.7647483" lon="11.2473333"><ele>58.0</ele><time>2026-04-18T09:46:06.923Z</time></trkpt><trkpt lat="43.764795" lon="11.2474283"><ele>57.99999999999999</ele><time>2026-04-18T09:46:08.923Z</time></trkpt><trkpt lat="43.7648383" lon="11.2475117"><ele>58.0</ele><time>2026-04-18T09:46:10.924Z</time></trkpt><trkpt lat="43.76488" lon="11.2476017"><ele>57.99999999999999</ele><time>2026-04-18T09:46:12.923Z</time></trkpt><trkpt lat="43.7649183" lon="11.2477183"><ele>58.0</ele><time>2026-04-18T09:46:14.923Z</time></trkpt><trkpt lat="43.7649583" lon="11.2478133"><ele>58.0</ele><time>2026-04-18T09:46:16.923Z</time></trkpt><trkpt lat="43.7650117" lon="11.2478833"><ele>58.0</ele><time>2026-04-18T09:46:20.923Z</time></trkpt><trkpt lat="43.7650283" lon="11.2479783"><ele>57.99999999999999</ele><time>2026-04-18T09:46:24.924Z</time></trkpt><trkpt lat="43.7650783" lon="11.2480717"><ele>58.0</ele><time>2026-04-18T09:46:27.923Z</time></trkpt><trkpt lat="43.765115" lon="11.248145"><ele>58.666666666666664</ele><time>2026-04-18T09:46:29.923Z</time></trkpt><trkpt lat="43.7651583" lon="11.248245"><ele>59.33333333333333</ele><time>2026-04-18T09:46:31.923Z</time></trkpt><trkpt lat="43.7651917" lon="11.2483533"><ele>60.0</ele><time>2026-04-18T09:46:33.923Z</time></trkpt><trkpt lat="43.7652333" lon="11.248465"><ele>60.66666666666667</ele><time>2026-04-18T09:46:35.924Z</time></trkpt><trkpt lat="43.7652733" lon="11.2485717"><ele>61.333333333333336</ele><time>2026-04-18T09:46:37.923Z</time></trkpt><trkpt lat="43.7653183" lon="11.2486733"><ele>62.0</ele><time>2026-04-18T09:46:39.923Z</time></trkpt><trkpt lat="43.76539" lon="11.24876"><ele>62.0</ele><time>2026-04-18T09:46:41.923Z</time></trkpt><trkpt lat="43.7654533" lon="11.248865"><ele>62.0</ele><time>2026-04-18T09:46:43.923Z</time></trkpt><trkpt lat="43.7655033" lon="11.2489783"><ele>62.0</ele><time>2026-04-18T09:46:45.923Z</time></trkpt><trkpt lat="43.765555" lon="11.249095"><ele>62.0</ele><time>2026-04-18T09:46:47.923Z</time></trkpt><trkpt lat="43.765605" lon="11.2492"><ele>62.0</ele><time>2026-04-18T09:46:49.923Z</time></trkpt><trkpt lat="43.765665" lon="11.2492967"><ele>62.0</ele><time>2026-04-18T09:46:51.923Z</time></trkpt><trkpt lat="43.7657267" lon="11.24939"><ele>62.0</ele><time>2026-04-18T09:46:53.924Z</time></trkpt><trkpt lat="43.76578" lon="11.249475"><ele>62.0</ele><time>2026-04-18T09:46:55.924Z</time></trkpt><trkpt lat="43.7658217" lon="11.24958"><ele>62.0</ele><time>2026-04-18T09:46:57.924Z</time></trkpt><trkpt lat="43.765865" lon="11.249695"><ele>62.0</ele><time>2026-04-18T09:46:59.923Z</time></trkpt><trkpt lat="43.7659117" lon="11.2498167"><ele>62.0</ele><time>2026-04-18T09:47:01.923Z</time></trkpt><trkpt lat="43.7659583" lon="11.2499383"><ele>62.0</ele><time>2026-04-18T09:47:03.923Z</time></trkpt><trkpt lat="43.76602" lon="11.250025"><ele>62.0</ele><time>2026-04-18T09:47:05.924Z</time></trkpt><trkpt lat="43.7660883" lon="11.2501083"><ele>62.0</ele><time>2026-04-18T09:47:07.923Z</time></trkpt><trkpt lat="43.7661383" lon="11.2502"><ele>62.0</ele><time>2026-04-18T09:47:09.923Z</time></trkpt><trkpt lat="43.7661933" lon="11.2503067"><ele>62.00000000000001</ele><time>2026-04-18T09:47:11.923Z</time></trkpt><trkpt lat="43.7662417" lon="11.25041"><ele>62.0</ele><time>2026-04-18T09:47:13.923Z</time></trkpt><trkpt lat="43.7662933" lon="11.2505067"><ele>62.0</ele><time>2026-04-18T09:47:15.923Z</time></trkpt><trkpt lat="43.766345" lon="11.2506183"><ele>62.0</ele><time>2026-04-18T09:47:17.923Z</time></trkpt><trkpt lat="43.7664017" lon="11.2507083"><ele>62.00000000000001</ele><time>2026-04-18T09:47:19.923Z</time></trkpt><trkpt lat="43.7664633" lon="11.2507917"><ele>62.0</ele><time>2026-04-18T09:47:21.923Z</time></trkpt><trkpt lat="43.7665267" lon="11.250855"><ele>62.16666666666667</ele><time>2026-04-18T09:47:23.923Z</time></trkpt><trkpt lat="43.766575" lon="11.250915"><ele>62.333333333333336</ele><time>2026-04-18T09:47:25.923Z</time></trkpt><trkpt lat="43.766605" lon="11.2510067"><ele>62.5</ele><time>2026-04-18T09:47:27.924Z</time></trkpt><trkpt lat="43.7666417" lon="11.2511067"><ele>62.66666666666667</ele><time>2026-04-18T09:47:29.923Z</time></trkpt><trkpt lat="43.7666733" lon="11.2512"><ele>62.833333333333336</ele><time>2026-04-18T09:47:31.923Z</time></trkpt><trkpt lat="43.766715" lon="11.251295"><ele>63.0</ele><time>2026-04-18T09:47:33.923Z</time></trkpt><trkpt lat="43.7667567" lon="11.2513917"><ele>62.714285714285715</ele><time>2026-04-18T09:47:35.923Z</time></trkpt><trkpt lat="43.7667967" lon="11.2514767"><ele>62.42857142857143</ele><time>2026-04-18T09:47:37.923Z</time></trkpt><trkpt lat="43.7668333" lon="11.2515567"><ele>62.14285714285714</ele><time>2026-04-18T09:47:39.924Z</time></trkpt><trkpt lat="43.766875" lon="11.251645"><ele>61.857142857142854</ele><time>2026-04-18T09:47:41.923Z</time></trkpt><trkpt lat="43.7669217" lon="11.2517133"><ele>61.57142857142857</ele><time>2026-04-18T09:47:43.923Z</time></trkpt><trkpt lat="43.7669583" lon="11.2517917"><ele>61.28571428571428</ele><time>2026-04-18T09:47:45.924Z</time></trkpt><trkpt lat="43.7669933" lon="11.2518733"><ele>60.99999999999999</ele><time>2026-04-18T09:47:47.923Z</time></trkpt><trkpt lat="43.76703" lon="11.251955"><ele>61.14285714285714</ele><time>2026-04-18T09:47:49.923Z</time></trkpt><trkpt lat="43.76707" lon="11.25203"><ele>61.285714285714285</ele><time>2026-04-18T09:47:51.923Z</time></trkpt><trkpt lat="43.7671083" lon="11.252105"><ele>61.42857142857143</ele><time>2026-04-18T09:47:53.923Z</time></trkpt><trkpt lat="43.7671667" lon="11.2521617"><ele>61.57142857142857</ele><time>2026-04-18T09:47:55.923Z</time></trkpt><trkpt lat="43.7672117" lon="11.2522367"><ele>61.71428571428572</ele><time>2026-04-18T09:47:57.923Z</time></trkpt><trkpt lat="43.7672583" lon="11.2523133"><ele>61.85714285714286</ele><time>2026-04-18T09:47:59.923Z</time></trkpt><trkpt lat="43.767325" lon="11.2523933"><ele>62.0</ele><time>2026-04-18T09:48:01.923Z</time></trkpt><trkpt lat="43.7673833" lon="11.2524933"><ele>62.00000000000001</ele><time>2026-04-18T09:48:03.923Z</time></trkpt><trkpt lat="43.7674183" lon="11.2525933"><ele>62.0</ele><time>2026-04-18T09:48:05.923Z</time></trkpt><trkpt lat="43.76744" lon="11.2526783"><ele>62.0</ele><time>2026-04-18T09:48:07.923Z</time></trkpt><trkpt lat="43.7674033" lon="11.2527867"><ele>62.0</ele><time>2026-04-18T09:48:09.924Z</time></trkpt><trkpt lat="43.7673433" lon="11.2529533"><ele>62.00000000000001</ele><time>2026-04-18T09:48:11.923Z</time></trkpt><trkpt lat="43.76732" lon="11.25304"><ele>62.0</ele><time>2026-04-18T09:48:12.924Z</time></trkpt><trkpt lat="43.7672717" lon="11.2531917"><ele>61.333333333333336</ele><time>2026-04-18T09:48:14.924Z</time></trkpt><trkpt lat="43.7672367" lon="11.2533133"><ele>60.66666666666667</ele><time>2026-04-18T09:48:16.923Z</time></trkpt><trkpt lat="43.7672033" lon="11.2534217"><ele>60.0</ele><time>2026-04-18T09:48:18.923Z</time></trkpt><trkpt lat="43.7671883" lon="11.2535167"><ele>59.33333333333333</ele><time>2026-04-18T09:48:20.923Z</time></trkpt><trkpt lat="43.7671667" lon="11.2536017"><ele>58.666666666666664</ele><time>2026-04-18T09:48:22.923Z</time></trkpt><trkpt lat="43.76715" lon="11.2537133"><ele>58.0</ele><time>2026-04-18T09:48:25.923Z</time></trkpt><trkpt lat="43.7671267" lon="11.2538267"><ele>57.99999999999999</ele><time>2026-04-18T09:48:28.923Z</time></trkpt><trkpt lat="43.7671" lon="11.2539067"><ele>58.0</ele><time>2026-04-18T09:48:30.923Z</time></trkpt><trkpt lat="43.7670717" lon="11.2540017"><ele>58.0</ele><time>2026-04-18T09:48:33.923Z</time></trkpt><trkpt lat="43.7670417" lon="11.2541067"><ele>58.0</ele><time>2026-04-18T09:48:36.923Z</time></trkpt><trkpt lat="43.76702" lon="11.2542267"><ele>57.99999999999999</ele><time>2026-04-18T09:48:39.923Z</time></trkpt><trkpt lat="43.76699" lon="11.2543183"><ele>58.0</ele><time>2026-04-18T09:48:41.923Z</time></trkpt><trkpt lat="43.7669633" lon="11.2544317"><ele>57.8</ele><time>2026-04-18T09:48:43.923Z</time></trkpt><trkpt lat="43.7669133" lon="11.2545517"><ele>57.599999999999994</ele><time>2026-04-18T09:48:45.923Z</time></trkpt><trkpt lat="43.7668617" lon="11.2546767"><ele>57.400000000000006</ele><time>2026-04-18T09:48:47.923Z</time></trkpt><trkpt lat="43.7667967" lon="11.2547933"><ele>57.2</ele><time>2026-04-18T09:48:49.923Z</time></trkpt><trkpt lat="43.7667533" lon="11.25493"><ele>57.0</ele><time>2026-04-18T09:48:51.923Z</time></trkpt><trkpt lat="43.7667133" lon="11.2550383"><ele>58.0</ele><time>2026-04-18T09:48:53.923Z</time></trkpt><trkpt lat="43.7666917" lon="11.2551533"><ele>59.0</ele><time>2026-04-18T09:48:55.923Z</time></trkpt><trkpt lat="43.7666467" lon="11.25527"><ele>60.0</ele><time>2026-04-18T09:48:57.923Z</time></trkpt><trkpt lat="43.7666117" lon="11.255385"><ele>61.0</ele><time>2026-04-18T09:48:59.923Z</time></trkpt><trkpt lat="43.7665667" lon="11.2554967"><ele>62.0</ele><time>2026-04-18T09:49:01.924Z</time></trkpt><trkpt lat="43.76653" lon="11.255605"><ele>61.400000000000006</ele><time>2026-04-18T09:49:03.923Z</time></trkpt><trkpt lat="43.7664867" lon="11.25572"><ele>60.800000000000004</ele><time>2026-04-18T09:49:05.924Z</time></trkpt><trkpt lat="43.766445" lon="11.2558417"><ele>60.2</ele><time>2026-04-18T09:49:07.923Z</time></trkpt><trkpt lat="43.7663883" lon="11.25594"><ele>59.6</ele><time>2026-04-18T09:49:09.923Z</time></trkpt><trkpt lat="43.766345" lon="11.2560467"><ele>59.0</ele><time>2026-04-18T09:49:11.924Z</time></trkpt><trkpt lat="43.766315" lon="11.256165"><ele>59.00000000000001</ele><time>2026-04-18T09:49:13.923Z</time></trkpt><trkpt lat="43.766275" lon="11.2562667"><ele>59.0</ele><time>2026-04-18T09:49:15.923Z</time></trkpt><trkpt lat="43.766235" lon="11.2563717"><ele>59.0</ele><time>2026-04-18T09:49:17.923Z</time></trkpt><trkpt lat="43.7661883" lon="11.2564733"><ele>59.0</ele><time>2026-04-18T09:49:19.923Z</time></trkpt><trkpt lat="43.766145" lon="11.2565683"><ele>59.00000000000001</ele><time>2026-04-18T09:49:21.923Z</time></trkpt><trkpt lat="43.7661017" lon="11.25667"><ele>59.0</ele><time>2026-04-18T09:49:23.923Z</time></trkpt><trkpt lat="43.7660617" lon="11.256775"><ele>59.16666666666667</ele><time>2026-04-18T09:49:25.924Z</time></trkpt><trkpt lat="43.7660183" lon="11.256885"><ele>59.333333333333336</ele><time>2026-04-18T09:49:27.923Z</time></trkpt><trkpt lat="43.7659767" lon="11.2569817"><ele>59.5</ele><time>2026-04-18T09:49:29.924Z</time></trkpt><trkpt lat="43.7659433" lon="11.2570717"><ele>59.66666666666667</ele><time>2026-04-18T09:49:31.923Z</time></trkpt><trkpt lat="43.7659067" lon="11.2571667"><ele>59.833333333333336</ele><time>2026-04-18T09:49:33.923Z</time></trkpt><trkpt lat="43.7658817" lon="11.25726"><ele>60.0</ele><time>2026-04-18T09:49:35.923Z</time></trkpt><trkpt lat="43.76585" lon="11.2573567"><ele>58.333333333333336</ele><time>2026-04-18T09:49:37.924Z</time></trkpt><trkpt lat="43.7658167" lon="11.25745"><ele>56.66666666666667</ele><time>2026-04-18T09:49:39.923Z</time></trkpt><trkpt lat="43.7657817" lon="11.2575617"><ele>55.0</ele><time>2026-04-18T09:49:42.924Z</time></trkpt><trkpt lat="43.7657567" lon="11.2576733"><ele>53.333333333333336</ele><time>2026-04-18T09:49:45.924Z</time></trkpt><trkpt lat="43.7657033" lon="11.2577517"><ele>51.66666666666667</ele><time>2026-04-18T09:49:48.923Z</time></trkpt><trkpt lat="43.76564" lon="11.25776"><ele>50.0</ele><time>2026-04-18T09:49:52.924Z</time></trkpt><trkpt lat="43.765575" lon="11.2577017"><ele>50.00000000000001</ele><time>2026-04-18T09:49:56.923Z</time></trkpt><trkpt lat="43.765535" lon="11.2576333"><ele>50.0</ele><time>2026-04-18T09:49:59.923Z</time></trkpt><trkpt lat="43.765485" lon="11.2575683"><ele>50.0</ele><time>2026-04-18T09:50:03.924Z</time></trkpt><trkpt lat="43.7654767" lon="11.257675"><ele>50.0</ele><time>2026-04-18T09:50:09.924Z</time></trkpt><trkpt lat="43.7655217" lon="11.2577567"><ele>50.0</ele><time>2026-04-18T09:50:12.923Z</time></trkpt><trkpt lat="43.7656033" lon="11.25778"><ele>50.00000000000001</ele><time>2026-04-18T09:50:15.923Z</time></trkpt><trkpt lat="43.7656783" lon="11.2578"><ele>50.0</ele><time>2026-04-18T09:50:18.923Z</time></trkpt><trkpt lat="43.76565" lon="11.2578967"><ele>50.00000000000001</ele><time>2026-04-18T09:50:22.923Z</time></trkpt><trkpt lat="43.7656183" lon="11.2579967"><ele>50.0</ele><time>2026-04-18T09:50:25.923Z</time></trkpt><trkpt lat="43.765595" lon="11.2580867"><ele>50.0</ele><time>2026-04-18T09:50:27.923Z</time></trkpt><trkpt lat="43.7655817" lon="11.258175"><ele>50.0</ele><time>2026-04-18T09:50:29.923Z</time></trkpt><trkpt lat="43.7655633" lon="11.2582817"><ele>50.0</ele><time>2026-04-18T09:50:32.923Z</time></trkpt><trkpt lat="43.76559" lon="11.2583667"><ele>50.00000000000001</ele><time>2026-04-18T09:50:35.923Z</time></trkpt><trkpt lat="43.76564" lon="11.2584333"><ele>50.0</ele><time>2026-04-18T09:50:37.923Z</time></trkpt><trkpt lat="43.7656933" lon="11.2585017"><ele>49.50000000000001</ele><time>2026-04-18T09:50:39.922Z</time></trkpt><trkpt lat="43.7657567" lon="11.2585633"><ele>49.0</ele><time>2026-04-18T09:50:41.922Z</time></trkpt><trkpt lat="43.7658317" lon="11.2586"><ele>48.5</ele><time>2026-04-18T09:50:43.923Z</time></trkpt><trkpt lat="43.7659133" lon="11.2586383"><ele>48.0</ele><time>2026-04-18T09:50:45.923Z</time></trkpt><trkpt lat="43.7659883" lon="11.25867"><ele>47.5</ele><time>2026-04-18T09:50:47.923Z</time></trkpt><trkpt lat="43.7660533" lon="11.2587"><ele>47.0</ele><time>2026-04-18T09:50:49.922Z</time></trkpt><trkpt lat="43.7661467" lon="11.2587417"><ele>47.0</ele><time>2026-04-18T09:50:52.922Z</time></trkpt><trkpt lat="43.7662117" lon="11.258775"><ele>47.0</ele><time>2026-04-18T09:50:54.922Z</time></trkpt><trkpt lat="43.7662833" lon="11.2588033"><ele>47.0</ele><time>2026-04-18T09:50:56.922Z</time></trkpt><trkpt lat="43.766355" lon="11.258835"><ele>47.0</ele><time>2026-04-18T09:50:58.923Z</time></trkpt><trkpt lat="43.7664283" lon="11.2588717"><ele>47.0</ele><time>2026-04-18T09:51:00.922Z</time></trkpt><trkpt lat="43.7665017" lon="11.2589"><ele>47.0</ele><time>2026-04-18T09:51:02.923Z</time></trkpt><trkpt lat="43.76657" lon="11.2589283"><ele>47.0</ele><time>2026-04-18T09:51:04.923Z</time></trkpt><trkpt lat="43.7666367" lon="11.2589667"><ele>46.83333333333333</ele><time>2026-04-18T09:51:06.923Z</time></trkpt><trkpt lat="43.7667017" lon="11.2590117"><ele>46.666666666666664</ele><time>2026-04-18T09:51:08.922Z</time></trkpt><trkpt lat="43.7667683" lon="11.2590317"><ele>46.5</ele><time>2026-04-18T09:51:10.922Z</time></trkpt><trkpt lat="43.7668433" lon="11.2590533"><ele>46.333333333333336</ele><time>2026-04-18T09:51:12.922Z</time></trkpt><trkpt lat="43.76692" lon="11.2590833"><ele>46.16666666666667</ele><time>2026-04-18T09:51:14.923Z</time></trkpt><trkpt lat="43.767005" lon="11.2591183"><ele>46.0</ele><time>2026-04-18T09:51:16.922Z</time></trkpt><trkpt lat="43.7671" lon="11.2591617"><ele>48.199999999999996</ele><time>2026-04-18T09:51:18.922Z</time></trkpt><trkpt lat="43.7672" lon="11.2592217"><ele>50.4</ele><time>2026-04-18T09:51:20.923Z</time></trkpt><trkpt lat="43.7673117" lon="11.25926"><ele>52.6</ele><time>2026-04-18T09:51:22.923Z</time></trkpt><trkpt lat="43.7674233" lon="11.2593017"><ele>54.8</ele><time>2026-04-18T09:51:24.923Z</time></trkpt><trkpt lat="43.7675167" lon="11.25935"><ele>57.0</ele><time>2026-04-18T09:51:26.922Z</time></trkpt><trkpt lat="43.7675767" lon="11.2593933"><ele>57.0</ele><time>2026-04-18T09:51:28.922Z</time></trkpt><trkpt lat="43.76764" lon="11.2594133"><ele>57.0</ele><time>2026-04-18T09:51:30.922Z</time></trkpt><trkpt lat="43.7677067" lon="11.25944"><ele>57.0</ele><time>2026-04-18T09:51:32.922Z</time></trkpt><trkpt lat="43.767785" lon="11.2594883"><ele>57.0</ele><time>2026-04-18T09:51:34.922Z</time></trkpt><trkpt lat="43.767875" lon="11.2595483"><ele>57.0</ele><time>2026-04-18T09:51:36.923Z</time></trkpt><trkpt lat="43.7679667" lon="11.2596117"><ele>57.0</ele><time>2026-04-18T09:51:38.922Z</time></trkpt><trkpt lat="43.768035" lon="11.2596817"><ele>57.400000000000006</ele><time>2026-04-18T09:51:40.922Z</time></trkpt><trkpt lat="43.7681283" lon="11.259755"><ele>57.800000000000004</ele><time>2026-04-18T09:51:42.923Z</time></trkpt><trkpt lat="43.7681833" lon="11.2597983"><ele>58.2</ele><time>2026-04-18T09:51:43.922Z</time></trkpt><trkpt lat="43.768275" lon="11.2598817"><ele>58.6</ele><time>2026-04-18T09:51:45.923Z</time></trkpt><trkpt lat="43.7683717" lon="11.25997"><ele>59.0</ele><time>2026-04-18T09:51:47.922Z</time></trkpt><trkpt lat="43.768465" lon="11.26006"><ele>59.0</ele><time>2026-04-18T09:51:49.922Z</time></trkpt><trkpt lat="43.76857" lon="11.2601283"><ele>59.00000000000001</ele><time>2026-04-18T09:51:51.923Z</time></trkpt><trkpt lat="43.7686683" lon="11.2602033"><ele>59.00000000000001</ele><time>2026-04-18T09:51:53.922Z</time></trkpt><trkpt lat="43.7687683" lon="11.2602583"><ele>59.0</ele><time>2026-04-18T09:51:55.922Z</time></trkpt><trkpt lat="43.76885" lon="11.2602917"><ele>59.0</ele><time>2026-04-18T09:51:57.923Z</time></trkpt><trkpt lat="43.7689783" lon="11.2603367"><ele>59.00000000000001</ele><time>2026-04-18T09:52:07.922Z</time></trkpt><trkpt lat="43.7690033" lon="11.2604417"><ele>59.0</ele><time>2026-04-18T09:52:12.922Z</time></trkpt><trkpt lat="43.7690567" lon="11.2605067"><ele>59.0</ele><time>2026-04-18T09:52:15.922Z</time></trkpt><trkpt lat="43.7691267" lon="11.2605917"><ele>59.0</ele><time>2026-04-18T09:52:18.922Z</time></trkpt><trkpt lat="43.7691833" lon="11.2606433"><ele>59.00000000000001</ele><time>2026-04-18T09:52:20.922Z</time></trkpt><trkpt lat="43.7692467" lon="11.2606967"><ele>59.0</ele><time>2026-04-18T09:52:22.923Z</time></trkpt><trkpt lat="43.769305" lon="11.2607633"><ele>59.333333333333336</ele><time>2026-04-18T09:52:24.922Z</time></trkpt><trkpt lat="43.7693733" lon="11.2608217"><ele>59.66666666666667</ele><time>2026-04-18T09:52:26.922Z</time></trkpt><trkpt lat="43.7694433" lon="11.2608783"><ele>60.0</ele><time>2026-04-18T09:52:28.922Z</time></trkpt><trkpt lat="43.7695167" lon="11.260915"><ele>60.33333333333333</ele><time>2026-04-18T09:52:30.922Z</time></trkpt><trkpt lat="43.769585" lon="11.26095"><ele>60.666666666666664</ele><time>2026-04-18T09:52:32.923Z</time></trkpt><trkpt lat="43.7696667" lon="11.2610117"><ele>61.0</ele><time>2026-04-18T09:52:34.922Z</time></trkpt><trkpt lat="43.7697417" lon="11.2611"><ele>61.0</ele><time>2026-04-18T09:52:36.922Z</time></trkpt><trkpt lat="43.76982" lon="11.2611967"><ele>60.99999999999999</ele><time>2026-04-18T09:52:38.922Z</time></trkpt><trkpt lat="43.76988" lon="11.2612683"><ele>60.99999999999999</ele><time>2026-04-18T09:52:40.922Z</time></trkpt><trkpt lat="43.7699417" lon="11.2613017"><ele>61.0</ele><time>2026-04-18T09:52:42.922Z</time></trkpt><trkpt lat="43.7700467" lon="11.26136"><ele>61.0</ele><time>2026-04-18T09:52:44.922Z</time></trkpt><trkpt lat="43.7701283" lon="11.261435"><ele>60.14285714285713</ele><time>2026-04-18T09:52:46.922Z</time></trkpt><trkpt lat="43.77019" lon="11.2615067"><ele>59.285714285714285</ele><time>2026-04-18T09:52:48.922Z</time></trkpt><trkpt lat="43.7702333" lon="11.2615717"><ele>58.42857142857142</ele><time>2026-04-18T09:52:51.922Z</time></trkpt><trkpt lat="43.770305" lon="11.261615"><ele>57.57142857142857</ele><time>2026-04-18T09:52:55.922Z</time></trkpt><trkpt lat="43.7703833" lon="11.2616783"><ele>56.71428571428571</ele><time>2026-04-18T09:52:58.922Z</time></trkpt><trkpt lat="43.7704417" lon="11.26172"><ele>55.857142857142854</ele><time>2026-04-18T09:53:00.922Z</time></trkpt><trkpt lat="43.770495" lon="11.2617667"><ele>55.0</ele><time>2026-04-18T09:53:02.922Z</time></trkpt><trkpt lat="43.7705617" lon="11.2618433"><ele>54.857142857142854</ele><time>2026-04-18T09:53:05.922Z</time></trkpt><trkpt lat="43.770615" lon="11.2619033"><ele>54.714285714285715</ele><time>2026-04-18T09:53:07.922Z</time></trkpt><trkpt lat="43.770675" lon="11.2619617"><ele>54.57142857142857</ele><time>2026-04-18T09:53:09.922Z</time></trkpt><trkpt lat="43.770745" lon="11.2620133"><ele>54.42857142857143</ele><time>2026-04-18T09:53:11.922Z</time></trkpt><trkpt lat="43.770825" lon="11.2620483"><ele>54.285714285714285</ele><time>2026-04-18T09:53:13.922Z</time></trkpt><trkpt lat="43.7708767" lon="11.262105"><ele>54.14285714285714</ele><time>2026-04-18T09:53:15.923Z</time></trkpt><trkpt lat="43.77094" lon="11.2621667"><ele>54.0</ele><time>2026-04-18T09:53:17.922Z</time></trkpt><trkpt lat="43.7710217" lon="11.26222"><ele>54.333333333333336</ele><time>2026-04-18T09:53:19.922Z</time></trkpt><trkpt lat="43.7711" lon="11.26227"><ele>54.66666666666667</ele><time>2026-04-18T09:53:21.922Z</time></trkpt><trkpt lat="43.7711617" lon="11.2623333"><ele>55.0</ele><time>2026-04-18T09:53:23.922Z</time></trkpt><trkpt lat="43.7712233" lon="11.26239"><ele>55.333333333333336</ele><time>2026-04-18T09:53:25.922Z</time></trkpt><trkpt lat="43.7712917" lon="11.262445"><ele>55.66666666666667</ele><time>2026-04-18T09:53:27.922Z</time></trkpt><trkpt lat="43.7713583" lon="11.2625067"><ele>56.0</ele><time>2026-04-18T09:53:29.923Z</time></trkpt><trkpt lat="43.7714383" lon="11.2625583"><ele>56.00000000000001</ele><time>2026-04-18T09:53:32.923Z</time></trkpt><trkpt lat="43.7715317" lon="11.26255"><ele>56.0</ele><time>2026-04-18T09:53:35.923Z</time></trkpt><trkpt lat="43.7715967" lon="11.2625533"><ele>56.0</ele><time>2026-04-18T09:53:37.922Z</time></trkpt><trkpt lat="43.771675" lon="11.2626117"><ele>56.0</ele><time>2026-04-18T09:53:40.922Z</time></trkpt><trkpt lat="43.77175" lon="11.2626667"><ele>56.00000000000001</ele><time>2026-04-18T09:53:42.923Z</time></trkpt><trkpt lat="43.7718367" lon="11.2627267"><ele>56.0</ele><time>2026-04-18T09:53:44.922Z</time></trkpt><trkpt lat="43.7719417" lon="11.2627767"><ele>56.50000000000001</ele><time>2026-04-18T09:53:46.923Z</time></trkpt><trkpt lat="43.7720383" lon="11.26283"><ele>57.0</ele><time>2026-04-18T09:53:48.922Z</time></trkpt><trkpt lat="43.77212" lon="11.2628617"><ele>57.5</ele><time>2026-04-18T09:53:50.922Z</time></trkpt><trkpt lat="43.7721833" lon="11.2629083"><ele>58.0</ele><time>2026-04-18T09:53:52.922Z</time></trkpt><trkpt lat="43.772255" lon="11.26295"><ele>58.50000000000001</ele><time>2026-04-18T09:53:54.922Z</time></trkpt><trkpt lat="43.772305" lon="11.2630217"><ele>59.0</ele><time>2026-04-18T09:53:56.922Z</time></trkpt><trkpt lat="43.77238" lon="11.2630733"><ele>59.00000000000001</ele><time>2026-04-18T09:53:59.922Z</time></trkpt><trkpt lat="43.7724483" lon="11.2631"><ele>59.0</ele><time>2026-04-18T09:54:01.922Z</time></trkpt><trkpt lat="43.77251" lon="11.2631467"><ele>59.0</ele><time>2026-04-18T09:54:03.922Z</time></trkpt><trkpt lat="43.772575" lon="11.2631983"><ele>59.0</ele><time>2026-04-18T09:54:05.922Z</time></trkpt><trkpt lat="43.77265" lon="11.2632467"><ele>59.00000000000001</ele><time>2026-04-18T09:54:07.922Z</time></trkpt><trkpt lat="43.7727217" lon="11.263295"><ele>59.0</ele><time>2026-04-18T09:54:09.922Z</time></trkpt><trkpt lat="43.772795" lon="11.2633317"><ele>59.00000000000001</ele><time>2026-04-18T09:54:11.922Z</time></trkpt><trkpt lat="43.7728583" lon="11.2633883"><ele>59.0</ele><time>2026-04-18T09:54:13.922Z</time></trkpt><trkpt lat="43.7729133" lon="11.2634483"><ele>59.0</ele><time>2026-04-18T09:54:15.922Z</time></trkpt><trkpt lat="43.772985" lon="11.2635183"><ele>59.0</ele><time>2026-04-18T09:54:17.922Z</time></trkpt><trkpt lat="43.7730617" lon="11.2635617"><ele>59.00000000000001</ele><time>2026-04-18T09:54:19.922Z</time></trkpt><trkpt lat="43.77313" lon="11.263595"><ele>59.0</ele><time>2026-04-18T09:54:21.922Z</time></trkpt><trkpt lat="43.773205" lon="11.2636367"><ele>59.0</ele><time>2026-04-18T09:54:23.922Z</time></trkpt><trkpt lat="43.7732767" lon="11.2636667"><ele>59.0</ele><time>2026-04-18T09:54:25.923Z</time></trkpt><trkpt lat="43.7733533" lon="11.2637133"><ele>59.0</ele><time>2026-04-18T09:54:27.923Z</time></trkpt><trkpt lat="43.77342" lon="11.2637533"><ele>59.0</ele><time>2026-04-18T09:54:29.923Z</time></trkpt><trkpt lat="43.7734717" lon="11.2638033"><ele>59.0</ele><time>2026-04-18T09:54:31.922Z</time></trkpt><trkpt lat="43.7735067" lon="11.263905"><ele>59.0</ele><time>2026-04-18T09:54:34.922Z</time></trkpt><trkpt lat="43.7735683" lon="11.2638667"><ele>59.0</ele><time>2026-04-18T09:54:38.922Z</time></trkpt><trkpt lat="43.7736533" lon="11.263765"><ele>59.0</ele><time>2026-04-18T09:54:52.922Z</time></trkpt><trkpt lat="43.77371" lon="11.2637183"><ele>59.0</ele><time>2026-04-18T09:54:55.923Z</time></trkpt><trkpt lat="43.7737767" lon="11.263665"><ele>59.0</ele><time>2026-04-18T09:54:58.922Z</time></trkpt><trkpt lat="43.77376" lon="11.263575"><ele>59.0</ele><time>2026-04-18T09:55:06.922Z</time></trkpt><trkpt lat="43.77369" lon="11.2635533"><ele>59.0</ele><time>2026-04-18T09:55:10.922Z</time></trkpt><trkpt lat="43.7736283" lon="11.2635033"><ele>59.0</ele><time>2026-04-18T09:55:13.922Z</time></trkpt><trkpt lat="43.7735767" lon="11.26343"><ele>59.0</ele><time>2026-04-18T09:55:16.922Z</time></trkpt><trkpt lat="43.77351" lon="11.2633633"><ele>59.00000000000001</ele><time>2026-04-18T09:55:19.923Z</time></trkpt><trkpt lat="43.7735033" lon="11.26325"><ele>59.0</ele><time>2026-04-18T09:55:22.922Z</time></trkpt><trkpt lat="43.7735417" lon="11.2631717"><ele>59.0</ele><time>2026-04-18T09:55:24.923Z</time></trkpt><trkpt lat="43.7735967" lon="11.263055"><ele>59.0</ele><time>2026-04-18T09:55:26.923Z</time></trkpt><trkpt lat="43.7736483" lon="11.2629567"><ele>59.00000000000001</ele><time>2026-04-18T09:55:28.923Z</time></trkpt><trkpt lat="43.77371" lon="11.26287"><ele>59.0</ele><time>2026-04-18T09:55:30.922Z</time></trkpt><trkpt lat="43.773755" lon="11.2627867"><ele>58.71428571428571</ele><time>2026-04-18T09:55:32.922Z</time></trkpt><trkpt lat="43.7738033" lon="11.2626883"><ele>58.42857142857143</ele><time>2026-04-18T09:55:34.922Z</time></trkpt><trkpt lat="43.7738483" lon="11.2626067"><ele>58.14285714285714</ele><time>2026-04-18T09:55:36.922Z</time></trkpt><trkpt lat="43.773895" lon="11.2625117"><ele>57.857142857142854</ele><time>2026-04-18T09:55:39.922Z</time></trkpt><trkpt lat="43.7739317" lon="11.26244"><ele>57.57142857142857</ele><time>2026-04-18T09:55:41.922Z</time></trkpt><trkpt lat="43.77398" lon="11.2623667"><ele>57.285714285714285</ele><time>2026-04-18T09:55:43.923Z</time></trkpt><trkpt lat="43.774015" lon="11.2622933"><ele>57.0</ele><time>2026-04-18T09:55:45.923Z</time></trkpt><trkpt lat="43.77405" lon="11.26219"><ele>56.833333333333336</ele><time>2026-04-18T09:55:48.922Z</time></trkpt><trkpt lat="43.7740867" lon="11.2620917"><ele>56.66666666666667</ele><time>2026-04-18T09:55:51.922Z</time></trkpt><trkpt lat="43.77416" lon="11.2620917"><ele>56.5</ele><time>2026-04-18T09:55:54.922Z</time></trkpt><trkpt lat="43.7742333" lon="11.2621433"><ele>56.333333333333336</ele><time>2026-04-18T09:55:57.922Z</time></trkpt><trkpt lat="43.7742967" lon="11.2622167"><ele>56.16666666666667</ele><time>2026-04-18T09:56:00.922Z</time></trkpt><trkpt lat="43.7743617" lon="11.26229"><ele>56.0</ele><time>2026-04-18T09:56:04.923Z</time></trkpt><trkpt lat="43.7744133" lon="11.26234"><ele>56.00000000000001</ele><time>2026-04-18T09:56:07.922Z</time></trkpt><trkpt lat="43.77438" lon="11.262425"><ele>56.0</ele><time>2026-04-18T09:56:13.922Z</time></trkpt><trkpt lat="43.7743467" lon="11.2625383"><ele>56.0</ele><time>2026-04-18T09:56:16.922Z</time></trkpt><trkpt lat="43.7743" lon="11.2626567"><ele>56.0</ele><time>2026-04-18T09:56:19.922Z</time></trkpt><trkpt lat="43.7742533" lon="11.2627733"><ele>56.00000000000001</ele><time>2026-04-18T09:56:22.922Z</time></trkpt><trkpt lat="43.774215" lon="11.2628483"><ele>56.0</ele><time>2026-04-18T09:56:24.922Z</time></trkpt><trkpt lat="43.7741817" lon="11.262925"><ele>57.0</ele><time>2026-04-18T09:56:26.922Z</time></trkpt></trkseg></trk></gpx>